[[{"header":{"parameterUnit":"m.s-1","parameterCategory":1,"la1":31.0,"la2":29.5877,"lo1":-88.7671,"lo2":-86.6584,"dx":0.0162,"dy":0.0185,"nx":115,"ny":88,"refTime":"2023-02-01T06:00:00:Z","depth":0,"parameterNumber":2,"parameterNumberName":"U-component_of_WINDS"},"data":[0.0,0.0,0.0,0.0,0.0,0.0,0.0,0.0,0.0,0.0,0.0,0.0,0.0,0.0,0.0,0.0,0.0,0.0,0.0,0.0,0.0,0.0,0.0,0.0,0.0,0.0,0.0,0.0,0.0,0.0,0.0,0.0,0.0,0.0,0.0,0.0,0.0,0.0,0.0,0.0,0.0,0.0,0.0,0.0,0.0,0.0,0.0,0.0,0.0,0.0,0.0,0.0,0.0,0.0,0.0,0.0,0.0,0.0,0.0,0.0,0.0,0.0,0.0,0.0,0.0,0.0,0.0,0.0,0.0,0.0,0.0,0.0,0.0,0.0,0.0,0.0,0.0,0.0,0.0,0.0,0.0,0.0,0.0,0.0,0.0,0.0,0.0,0.0,0.0,0.0,0.0,0.0,0.0,0.0,0.0,0.0,0.0,0.0,0.0,0.0,0.0,0.0,0.0,0.0,0.0,0.0,0.0,0.0,0.0,0.0,0.0,0.0,0.0,0.0,0.0,0.0,0.0,0.0,0.0,0.0,0.0,0.0,0.0,0.0,0.0,0.0,0.0,0.0,0.0,0.0,0.0,0.0,0.0,0.0,0.0,0.0,0.0,0.0,0.0,0.0,0.0,0.0,0.0,0.0,0.0,0.0,0.0,0.0,0.0,0.0,0.0,0.0,0.0,0.0,0.0,0.0,0.0,0.0,0.0,0.0,0.0,0.0,0.0,0.0,0.0,0.0,0.0,0.0,0.0,0.0,0.0,0.0,0.0,0.0,0.0,0.0,0.0,0.0,0.0,0.0,0.0,0.0,0.0,0.0,0.0,0.0,0.0,0.0,0.0,0.0,0.0,0.0,0.0,0.0,0.0,0.0,0.0,0.0,0.0,0.0,0.0,0.0,0.0,0.0,0.0,0.0,0.0,0.0,0.0,0.0,0.0,0.0,0.0,0.0,0.0,0.0,0.0,0.0,0.0,0.0,0.0,0.0,0.0,0.0,0.0,0.0,0.0,0.0,0.0,0.0,0.0,0.0,0.0,0.0,0.0,0.0,0.0,0.0,0.0,0.0,0.0,0.0,0.0,0.0,0.0,0.0,0.0,0.0,0.0,0.0,0.0,0.0,0.0,0.0,0.0,0.0,0.0,0.0,0.0,0.0,0.0,0.0,0.0,0.0,0.0,0.0,0.0,0.0,0.0,0.0,0.0,0.0,0.0,0.0,0.0,0.0,0.0,0.0,0.0,0.0,0.0,0.0,0.0,0.0,0.0,0.0,0.0,0.0,0.0,0.0,0.0,0.0,0.0,0.0,0.0,0.0,0.0,0.0,0.0,0.0,0.0,0.0,0.0,0.0,0.0,0.0,0.0,0.0,0.0,0.0,0.0,0.0,0.0,0.0,0.0,0.0,0.0,0.0,0.0,0.0,0.0,0.0,0.0,0.0,0.0,0.0,0.0,0.0,0.0,0.0,0.0,0.0,0.0,0.0,0.0,0.0,0.0,0.0,0.0,0.0,0.0,0.0,0.0,0.0,0.0,0.0,0.0,0.0,0.0,0.0,0.0,0.0,0.0,0.0,0.0,0.0,0.0,0.0,0.0,0.0,0.0,0.0,0.0,0.0,0.0,0.0,0.0,0.0,0.0,0.0,0.0,0.0,0.0,0.0,0.0,0.0,0.0,0.0,0.0,0.0,0.0,0.0,0.0,0.0,0.0,0.0,0.0,0.0,0.0,0.0,0.0,0.0,0.0,0.0,0.0,0.0,0.0,0.0,0.0,0.0,0.0,0.0,0.0,0.0,0.0,0.0,0.0,0.0,0.0,0.0,0.0,0.0,0.0,0.0,0.0,0.0,0.0,0.0,0.0,0.0,0.0,0.0,0.0,0.0,0.0,0.0,0.0,0.0,0.0,0.0,0.0,0.0,0.0,0.0,0.0,0.0,0.0,0.0,0.0,0.0,0.0,0.0,0.0,0.0,0.0,0.0,0.0,0.0,0.0,0.0,0.0,0.0,0.0,0.0,0.0,0.0,0.0,0.0,0.0,0.0,0.0,0.0,0.0,0.0,0.0,0.0,0.0,0.0,0.0,0.0,0.0,0.0,0.0,0.0,0.0,0.0,0.0,0.0,0.0,0.0,0.0,0.0,0.0,0.0,0.0,0.0,0.0,0.0,0.0,0.0,0.0,0.0,0.0,0.0,0.0,0.0,0.0,0.0,0.0,0.0,0.0,0.0,0.0,0.0,0.0,0.0,0.0,0.0,0.0,0.0,0.0,0.0,0.0,0.0,0.0,0.0,0.0,0.0,0.0,0.0,0.0,0.0,0.0,0.0,0.0,0.0,0.0,0.0,0.0,0.0,0.0,0.0,0.0,0.0,0.0,0.0,0.0,0.0,0.0,0.0,0.0,0.0,0.0,0.0,0.0,0.0,0.0,0.0,0.0,0.0,0.0,0.0,0.0,0.0,0.0,0.0,0.0,0.0,0.0,0.0,0.0,0.0,0.0,0.0,0.0,0.0,0.0,0.0,0.0,0.0,0.0,0.0,0.0,0.0,0.0,0.0,0.0,0.0,0.0,0.0,0.0,0.0,0.0,0.0,0.0,0.0,0.0,0.0,0.0,0.0,0.0,0.0,0.0,0.0,0.0,0.0,0.0,0.0,0.0,0.0,0.0,0.0,0.0,0.0,0.0,0.0,0.0,0.0,0.0,0.0,0.0,0.0,0.0,0.0,0.0,0.0,0.0,0.0,0.0,0.0,0.0,0.0,0.0,0.0,0.0,0.0,0.0,0.0,0.0,0.0,0.0,0.0,0.0,0.0,0.0,0.0,0.0,0.0,0.0,0.0,0.0,0.0,0.0,0.0,0.0,0.0,0.0,0.0,0.0,0.0,0.0,0.0,0.0,0.0,0.0,0.0,0.0,0.0,0.0,0.0,0.0,0.0,0.0,0.0,0.0,0.0,0.0,0.0,0.0,0.0,0.0,0.0,0.0,0.0,0.0,0.0,0.0,0.0,0.0,0.0,0.0,0.0,0.0,0.0,0.0,0.0,0.0,0.0,0.0,0.0,0.0,0.0,0.0,0.0,0.0,0.0,0.0,0.0,0.0,0.0,0.0,0.0,0.0,0.0,0.0,0.0,0.0,0.0,0.0,0.0,0.0,0.0,0.0,0.0,0.0,0.0,0.0,0.0,0.0,0.0,0.0,0.0,0.0,0.0,0.0,0.0,0.0,0.0,0.0,0.0,0.0,0.0,0.0,0.0,0.0,0.0,0.0,0.0,0.0,0.0,0.0,0.0,0.0,0.0,0.0,0.0,0.0,0.0,0.0,0.0,0.0,0.0,0.0,0.0,0.0,0.0,0.0,0.0,0.0,0.0,0.0,0.0,0.0,0.0,0.0,0.0,0.0,0.0,0.0,0.0,0.0,0.0,0.0,0.0,0.0,0.0,0.0,0.0,0.0,0.0,0.0,0.0,0.0,0.0,0.0,0.0,0.0,0.0,0.0,0.0,0.0,0.0,0.0,0.0,0.0,0.0,0.0,0.0,0.0,0.0,0.0,0.0,0.0,0.0,0.0,0.0,0.0,0.0,0.0,0.0,0.0,0.0,0.0,0.0,0.0,0.0,0.0,0.0,0.0,0.0,0.0,0.0,0.0,0.0,0.0,0.0,0.0,0.0,0.0,0.0,0.0,0.0,0.0,0.0,0.0,0.0,0.0,0.0,0.0,0.0,0.0,0.0,0.0,0.0,0.0,0.0,0.0,0.0,0.0,0.0,0.0,0.0,0.0,0.0,0.0,0.0,0.0,0.0,0.0,0.0,0.0,0.0,0.0,0.0,0.0,0.0,0.0,0.0,0.0,0.0,0.0,0.0,0.0,0.0,0.0,0.0,0.0,0.0,0.0,0.0,0.0,0.0,0.0,0.0,0.0,0.0,0.0,0.0,0.0,0.0,0.0,0.0,0.0,0.0,0.0,0.0,0.0,0.0,0.0,0.0,0.0,0.0,0.0,0.0,0.0,0.0,0.0,0.0,0.0,0.0,0.0,0.0,0.0,0.0,0.0,0.0,0.0,0.0,0.0,0.0,0.0,0.0,0.0,0.0,0.0,0.0,0.0,0.0,0.0,0.0,0.0,0.0,0.0,0.0,0.0,0.0,0.0,0.0,0.0,0.0,0.0,0.0,0.0,0.0,0.0,0.0,0.0,0.0,0.0,0.0,0.0,0.0,0.0,0.0,0.0,0.0,0.0,0.0,0.0,0.0,0.0,0.0,0.0,0.0,0.0,0.0,-1.6819,0.0,0.0,0.0,0.0,0.0,0.0,0.0,0.0,0.0,0.0,0.0,0.0,0.0,0.0,0.0,0.0,0.0,0.0,0.0,0.0,0.0,0.0,0.0,0.0,0.0,0.0,0.0,0.0,0.0,0.0,0.0,0.0,0.0,0.0,0.0,0.0,0.0,0.0,0.0,0.0,0.0,0.0,0.0,0.0,0.0,0.0,0.0,0.0,0.0,0.0,0.0,0.0,0.0,0.0,0.0,0.0,0.0,0.0,0.0,0.0,0.0,0.0,0.0,0.0,0.0,0.0,0.0,0.0,0.0,0.0,0.0,0.0,0.0,0.0,0.0,0.0,0.0,0.0,0.0,0.0,0.0,0.0,0.0,0.0,0.0,0.0,0.0,0.0,0.0,0.0,0.0,0.0,0.0,0.0,0.0,0.0,0.0,0.0,0.0,0.0,0.0,0.0,0.0,0.0,0.0,0.0,0.0,0.0,0.0,0.0,-1.8546,-1.8242,-1.8058,-1.7802,-1.7346,0.0,0.0,0.0,0.0,0.0,0.0,0.0,0.0,0.0,0.0,0.0,0.0,0.0,0.0,0.0,0.0,0.0,0.0,0.0,0.0,0.0,0.0,0.0,0.0,0.0,0.0,0.0,0.0,0.0,0.0,0.0,0.0,0.0,0.0,0.0,0.0,0.0,0.0,0.0,0.0,0.0,0.0,0.0,0.0,0.0,0.0,0.0,0.0,0.0,0.0,0.0,0.0,0.0,0.0,0.0,0.0,0.0,0.0,0.0,0.0,0.0,0.0,0.0,0.0,0.0,0.0,0.0,0.0,0.0,0.0,0.0,0.0,0.0,0.0,0.0,0.0,0.0,0.0,0.0,0.0,0.0,0.0,0.0,0.0,0.0,0.0,0.0,0.0,0.0,0.0,0.0,0.0,0.0,0.0,0.0,0.0,0.0,0.0,0.0,0.0,0.0,0.0,0.0,0.0,0.0,0.0,0.0,0.0,0.0,0.0,0.0,0.0,-1.853,-1.8239,-1.7825,0.0,0.0,0.0,0.0,0.0,0.0,0.0,0.0,0.0,0.0,0.0,0.0,0.0,0.0,0.0,0.0,0.0,0.0,0.0,0.0,0.0,0.0,0.0,0.0,0.0,0.0,0.0,0.0,0.0,0.0,0.0,0.0,0.0,0.0,0.0,0.0,0.0,0.0,0.0,0.0,0.0,0.0,0.0,0.0,0.0,0.0,0.0,0.0,0.0,0.0,0.0,0.0,0.0,0.0,0.0,0.0,0.0,0.0,0.0,0.0,0.0,0.0,0.0,0.0,0.0,0.0,0.0,0.0,0.0,0.0,0.0,0.0,0.0,0.0,0.0,0.0,0.0,0.0,0.0,0.0,0.0,0.0,0.0,0.0,0.0,0.0,0.0,0.0,0.0,0.0,0.0,0.0,0.0,0.0,0.0,0.0,0.0,0.0,0.0,0.0,0.0,0.0,0.0,0.0,0.0,0.0,0.0,0.0,0.0,0.0,-1.9406,-1.9056,-1.9023,0.0,-1.8244,0.0,0.0,0.0,0.0,0.0,0.0,0.0,0.0,0.0,0.0,0.0,0.0,0.0,0.0,0.0,0.0,0.0,0.0,0.0,0.0,0.0,0.0,0.0,0.0,0.0,0.0,0.0,0.0,0.0,0.0,0.0,0.0,0.0,0.0,0.0,0.0,0.0,0.0,0.0,0.0,0.0,0.0,0.0,0.0,0.0,0.0,0.0,0.0,0.0,0.0,0.0,0.0,0.0,0.0,0.0,0.0,0.0,0.0,0.0,0.0,0.0,0.0,0.0,0.0,0.0,0.0,0.0,0.0,0.0,0.0,0.0,0.0,0.0,0.0,0.0,0.0,0.0,0.0,0.0,0.0,0.0,0.0,0.0,0.0,0.0,0.0,0.0,0.0,0.0,0.0,0.0,0.0,0.0,0.0,0.0,0.0,0.0,0.0,0.0,0.0,0.0,0.0,0.0,0.0,0.0,0.0,0.0,0.0,0.0,0.0,-2.0036,-1.9688,-1.9314,-1.8831,0.0,0.0,0.0,0.0,0.0,0.0,0.0,0.0,0.0,0.0,0.0,0.0,0.0,0.0,0.0,0.0,0.0,0.0,0.0,0.0,0.0,0.0,0.0,0.0,0.0,0.0,0.0,0.0,0.0,0.0,0.0,0.0,0.0,0.0,0.0,0.0,0.0,0.0,0.0,0.0,0.0,0.0,0.0,0.0,0.0,0.0,0.0,0.0,0.0,0.0,0.0,0.0,0.0,0.0,0.0,0.0,0.0,0.0,0.0,0.0,0.0,0.0,0.0,0.0,0.0,0.0,0.0,0.0,0.0,0.0,0.0,0.0,0.0,0.0,0.0,0.0,0.0,0.0,0.0,0.0,0.0,0.0,0.0,0.0,0.0,0.0,0.0,0.0,0.0,0.0,0.0,0.0,0.0,0.0,0.0,0.0,0.0,0.0,0.0,0.0,0.0,0.0,0.0,0.0,0.0,0.0,0.0,0.0,0.0,0.0,-2.0619,-2.0242,-1.9819,-1.9363,-1.8881,-1.8445,0.0,0.0,0.0,0.0,0.0,0.0,0.0,0.0,0.0,0.0,0.0,0.0,0.0,0.0,0.0,0.0,0.0,0.0,0.0,0.0,0.0,0.0,0.0,0.0,0.0,0.0,0.0,0.0,0.0,0.0,0.0,0.0,0.0,0.0,0.0,0.0,0.0,0.0,0.0,0.0,0.0,0.0,0.0,0.0,0.0,0.0,0.0,0.0,0.0,0.0,0.0,0.0,0.0,0.0,0.0,0.0,0.0,0.0,0.0,0.0,0.0,0.0,0.0,0.0,0.0,0.0,0.0,0.0,0.0,0.0,0.0,0.0,0.0,0.0,0.0,0.0,0.0,0.0,0.0,0.0,0.0,0.0,0.0,0.0,0.0,0.0,0.0,0.0,0.0,0.0,0.0,0.0,0.0,0.0,0.0,0.0,0.0,0.0,0.0,0.0,0.0,0.0,0.0,0.0,0.0,0.0,0.0,0.0,-2.0193,-2.0145,-1.9802,-1.9181,-1.9098,-1.8981,0.0,0.0,0.0,0.0,0.0,0.0,0.0,0.0,0.0,0.0,0.0,0.0,0.0,0.0,0.0,0.0,0.0,0.0,0.0,0.0,0.0,0.0,0.0,0.0,0.0,0.0,0.0,0.0,0.0,0.0,0.0,0.0,0.0,0.0,0.0,0.0,0.0,0.0,0.0,0.0,0.0,0.0,0.0,0.0,0.0,0.0,0.0,0.0,0.0,0.0,0.0,0.0,0.0,0.0,0.0,0.0,0.0,0.0,0.0,0.0,0.0,0.0,0.0,0.0,0.0,0.0,0.0,0.0,0.0,0.0,0.0,0.0,0.0,0.0,0.0,0.0,0.0,0.0,0.0,0.0,0.0,0.0,0.0,0.0,0.0,0.0,0.0,0.0,0.0,0.0,0.0,0.0,0.0,0.0,0.0,0.0,0.0,0.0,0.0,0.0,0.0,0.0,0.0,0.0,0.0,0.0,0.0,0.0,0.0,-2.0796,-2.0361,-1.9906,-1.9413,-1.9214,-1.8998,0.0,0.0,0.0,0.0,0.0,0.0,0.0,0.0,0.0,0.0,0.0,0.0,0.0,0.0,0.0,0.0,0.0,0.0,0.0,0.0,0.0,0.0,0.0,0.0,0.0,0.0,0.0,0.0,0.0,0.0,0.0,0.0,0.0,0.0,0.0,0.0,0.0,0.0,0.0,0.0,0.0,0.0,0.0,0.0,0.0,0.0,0.0,0.0,0.0,0.0,0.0,0.0,0.0,0.0,0.0,0.0,0.0,0.0,0.0,0.0,0.0,0.0,0.0,0.0,0.0,0.0,0.0,0.0,0.0,0.0,0.0,0.0,0.0,0.0,0.0,0.0,0.0,0.0,0.0,0.0,0.0,0.0,0.0,0.0,0.0,0.0,0.0,0.0,0.0,0.0,0.0,0.0,0.0,0.0,0.0,0.0,0.0,0.0,0.0,0.0,0.0,0.0,0.0,0.0,0.0,0.0,0.0,0.0,0.0,-2.0667,0.0,-1.9676,-1.9446,-1.9214,-1.8998,0.0,0.0,0.0,0.0,0.0,0.0,0.0,0.0,0.0,0.0,0.0,0.0,0.0,0.0,0.0,0.0,0.0,0.0,0.0,0.0,0.0,0.0,0.0,0.0,0.0,0.0,0.0,0.0,0.0,0.0,0.0,0.0,0.0,0.0,0.0,0.0,0.0,0.0,0.0,0.0,0.0,0.0,0.0,0.0,0.0,0.0,0.0,0.0,0.0,0.0,0.0,0.0,0.0,0.0,0.0,0.0,0.0,0.0,0.0,0.0,0.0,0.0,0.0,0.0,0.0,0.0,0.0,0.0,0.0,0.0,0.0,0.0,0.0,0.0,0.0,0.0,0.0,0.0,0.0,0.0,0.0,0.0,0.0,0.0,0.0,0.0,0.0,0.0,0.0,0.0,0.0,0.0,0.0,0.0,0.0,0.0,0.0,0.0,0.0,0.0,0.0,0.0,0.0,0.0,0.0,0.0,0.0,0.0,-1.9938,-1.9632,-1.9335,-1.9148,-1.9098,-1.9119,-1.8998,0.0,0.0,0.0,0.0,0.0,0.0,0.0,0.0,0.0,0.0,0.0,0.0,0.0,0.0,0.0,0.0,0.0,0.0,0.0,0.0,0.0,0.0,0.0,0.0,0.0,0.0,0.0,0.0,0.0,0.0,0.0,0.0,0.0,0.0,0.0,0.0,0.0,0.0,0.0,0.0,0.0,0.0,0.0,0.0,0.0,0.0,0.0,0.0,0.0,0.0,0.0,0.0,0.0,0.0,0.0,0.0,0.0,0.0,0.0,0.0,0.0,0.0,0.0,0.0,0.0,0.0,0.0,0.0,0.0,0.0,0.0,0.0,0.0,0.0,0.0,0.0,0.0,0.0,0.0,0.0,0.0,0.0,0.0,0.0,0.0,0.0,0.0,0.0,0.0,0.0,0.0,0.0,0.0,0.0,0.0,0.0,0.0,0.0,0.0,0.0,0.0,0.0,0.0,0.0,0.0,0.0,0.0,0.0,0.0,-1.9599,-1.9495,-1.9268,-1.8935,-1.9035,-1.8881,0.0,0.0,0.0,0.0,0.0,0.0,0.0,0.0,0.0,0.0,0.0,0.0,0.0,0.0,0.0,0.0,0.0,0.0,0.0,0.0,0.0,0.0,0.0,0.0,0.0,0.0,0.0,0.0,0.0,0.0,0.0,0.0,0.0,0.0,0.0,0.0,0.0,0.0,0.0,0.0,0.0,0.0,0.0,0.0,0.0,0.0,0.0,0.0,0.0,0.0,0.0,0.0,0.0,0.0,0.0,0.0,0.0,0.0,0.0,0.0,0.0,0.0,0.0,0.0,0.0,0.0,0.0,0.0,0.0,0.0,0.0,0.0,0.0,0.0,0.0,0.0,0.0,0.0,0.0,0.0,0.0,0.0,0.0,0.0,0.0,0.0,0.0,0.0,0.0,0.0,0.0,0.0,0.0,0.0,0.0,0.0,0.0,0.0,0.0,0.0,0.0,0.0,0.0,0.0,0.0,0.0,0.0,0.0,0.0,-1.9198,-1.9331,-1.9247,-1.8915,-1.8985,-1.8831,-1.8516,0.0,0.0,0.0,0.0,0.0,0.0,0.0,0.0,0.0,0.0,0.0,0.0,0.0,0.0,0.0,0.0,0.0,0.0,0.0,0.0,0.0,0.0,0.0,0.0,0.0,0.0,0.0,0.0,0.0,0.0,0.0,0.0,0.0,0.0,0.0,0.0,0.0,0.0,0.0,0.0,0.0,0.0,0.0,0.0,0.0,0.0,0.0,0.0,0.0,0.0,0.0,0.0,0.0,0.0,0.0,0.0,0.0,0.0,0.0,0.0,0.0,0.0,0.0,0.0,0.0,0.0,0.0,0.0,0.0,0.0,0.0,0.0,0.0,0.0,0.0,0.0,0.0,0.0,0.0,0.0,0.0,0.0,0.0,0.0,0.0,0.0,0.0,0.0,0.0,0.0,0.0,0.0,0.0,0.0,0.0,0.0,0.0,0.0,0.0,0.0,0.0,0.0,0.0,0.0,0.0,0.0,0.0,0.0,-1.8506,-1.8926,-1.9151,-1.9135,-1.8946,-1.8809,0.0,0.0,0.0,0.0,0.0,0.0,0.0,0.0,0.0,0.0,0.0,0.0,0.0,0.0,0.0,0.0,0.0,0.0,0.0,0.0,0.0,0.0,0.0,0.0,0.0,0.0,0.0,0.0,0.0,0.0,0.0,0.0,0.0,0.0,0.0,0.0,0.0,0.0,0.0,0.0,0.0,0.0,0.0,0.0,0.0,0.0,0.0,0.0,0.0,0.0,0.0,0.0,0.0,0.0,0.0,0.0,0.0,0.0,0.0,0.0,0.0,0.0,0.0,0.0,0.0,0.0,0.0,0.0,0.0,0.0,0.0,0.0,0.0,0.0,0.0,0.0,0.0,0.0,0.0,0.0,0.0,0.0,0.0,0.0,0.0,0.0,0.0,0.0,0.0,0.0,0.0,0.0,0.0,0.0,0.0,0.0,0.0,0.0,0.0,0.0,0.0,0.0,0.0,0.0,0.0,0.0,0.0,0.0,0.0,-1.8561,-1.924,-1.9571,-1.9464,-1.9231,-1.9106,0.0,0.0,0.0,0.0,0.0,0.0,0.0,0.0,0.0,0.0,0.0,0.0,0.0,0.0,0.0,0.0,0.0,0.0,0.0,0.0,0.0,0.0,0.0,0.0,0.0,0.0,0.0,0.0,0.0,0.0,0.0,0.0,0.0,0.0,0.0,0.0,0.0,0.0,0.0,0.0,0.0,0.0,0.0,0.0,0.0,0.0,0.0,0.0,0.0,0.0,0.0,0.0,0.0,0.0,0.0,0.0,0.0,0.0,0.0,0.0,0.0,0.0,0.0,0.0,0.0,0.0,0.0,0.0,0.0,0.0,0.0,0.0,0.0,0.0,0.0,0.0,0.0,0.0,0.0,0.0,0.0,0.0,0.0,0.0,0.0,0.0,0.0,0.0,0.0,0.0,0.0,0.0,0.0,0.0,0.0,0.0,0.0,0.0,0.0,0.0,0.0,0.0,0.0,0.0,0.0,0.0,0.0,0.0,-1.8695,-1.8311,-1.9146,-1.9543,-1.9468,-1.9056,-1.9005,0.0,0.0,0.0,0.0,0.0,0.0,0.0,0.0,0.0,0.0,0.0,0.0,0.0,0.0,0.0,0.0,0.0,0.0,0.0,0.0,0.0,0.0,0.0,0.0,0.0,0.0,0.0,0.0,0.0,0.0,0.0,0.0,0.0,0.0,0.0,0.0,0.0,0.0,0.0,0.0,0.0,0.0,0.0,0.0,0.0,0.0,0.0,0.0,0.0,0.0,0.0,0.0,0.0,0.0,0.0,0.0,0.0,0.0,0.0,0.0,0.0,0.0,0.0,0.0,0.0,0.0,0.0,0.0,0.0,0.0,0.0,0.0,0.0,0.0,0.0,0.0,0.0,0.0,0.0,0.0,0.0,0.0,0.0,0.0,0.0,0.0,0.0,0.0,0.0,0.0,0.0,0.0,0.0,0.0,0.0,0.0,0.0,0.0,0.0,0.0,0.0,0.0,0.0,0.0,0.0,0.0,0.0,0.0,-1.7697,-1.7859,-1.8716,-1.9154,-1.9155,-1.8635,-1.8675,0.0,0.0,0.0,0.0,0.0,0.0,0.0,0.0,0.0,0.0,0.0,0.0,0.0,0.0,0.0,0.0,0.0,0.0,0.0,0.0,0.0,0.0,0.0,0.0,0.0,0.0,0.0,0.0,0.0,0.0,0.0,0.0,0.0,0.0,0.0,0.0,0.0,0.0,0.0,0.0,0.0,0.0,0.0,0.0,0.0,0.0,0.0,0.0,0.0,0.0,0.0,0.0,0.0,0.0,0.0,0.0,0.0,0.0,0.0,0.0,0.0,0.0,0.0,0.0,0.0,0.0,0.0,0.0,0.0,0.0,0.0,0.0,0.0,0.0,0.0,0.0,0.0,0.0,0.0,0.0,0.0,0.0,0.0,0.0,0.0,0.0,0.0,0.0,0.0,0.0,0.0,0.0,0.0,0.0,0.0,0.0,0.0,0.0,0.0,0.0,0.0,0.0,0.0,0.0,0.0,0.0,0.0,0.0,-1.761,-1.7025,-1.7836,-1.8258,-1.8278,-1.8448,-1.8475,0.0,0.0,0.0,0.0,0.0,0.0,0.0,0.0,0.0,0.0,0.0,0.0,0.0,0.0,0.0,0.0,0.0,0.0,0.0,0.0,0.0,0.0,0.0,0.0,0.0,0.0,0.0,0.0,0.0,0.0,0.0,0.0,0.0,0.0,0.0,0.0,0.0,0.0,0.0,0.0,0.0,0.0,0.0,0.0,0.0,0.0,0.0,0.0,-0.1085,0.0,0.0,0.0,0.0,0.0,0.0,0.0,0.0,0.0,0.0,0.0,0.0,0.0,0.0,0.0,0.0,0.0,0.0,0.0,0.0,0.0,0.0,0.0,0.0,0.0,0.0,0.0,0.0,0.0,0.0,0.0,0.0,0.0,0.0,0.0,0.0,0.0,0.0,0.0,0.0,0.0,0.0,0.0,0.0,0.0,0.0,0.0,0.0,0.0,0.0,0.0,0.0,0.0,0.0,0.0,0.0,0.0,0.0,0.0,-1.6612,-1.6555,-1.7107,-1.735,-1.7269,-1.7449,-1.7652,0.0,0.0,0.0,0.0,0.0,0.0,0.0,0.0,0.0,0.0,0.0,0.0,0.0,0.0,0.0,0.0,0.0,0.0,0.0,0.0,0.0,0.0,0.0,0.0,0.0,0.0,0.0,0.0,0.0,0.0,0.0,0.0,0.0,0.0,0.0,0.0,0.0,0.0,0.0,0.0,0.0,0.0,0.0,0.0,0.0,0.0,0.0,0.0,0.0,0.0,0.0,0.0,0.0,0.0,0.0,0.0,0.0,0.0,0.0,0.0,0.0,0.0,0.0,0.0,0.0,0.0,0.0,0.0,0.0,0.0,0.0,0.0,0.0,0.0,0.0,0.0,0.0,0.0,0.0,0.0,0.0,0.0,0.0,0.0,0.0,0.0,0.0,0.0,0.0,0.0,0.0,0.0,0.0,0.0,0.0,0.0,0.0,0.0,0.0,0.0,0.0,0.0,0.0,0.0,0.0,0.0,0.0,-1.5069,-1.5388,-1.6098,-1.6324,-1.6309,-1.6139,-1.6098,-1.6432,-1.7151,0.0,0.0,0.0,0.0,0.0,0.0,0.0,0.0,0.0,0.0,0.0,0.0,0.0,0.0,0.0,0.0,0.0,0.0,0.0,0.0,0.0,0.0,0.0,0.0,0.0,0.0,0.0,0.0,0.0,0.0,0.0,0.0,0.0,0.0,0.0,0.0,0.0,0.0,-0.5053,-0.5154,0.0,0.0,0.0,0.0,0.0,0.0,0.0,0.0,-0.0863,0.0,0.0,0.0,0.0,0.0,0.0,0.0,0.0,0.0,0.0,0.0,0.0,0.0,0.0,0.0,0.0,0.0,0.0,0.0,0.0,0.0,0.0,0.0,0.0,0.0,0.0,0.0,0.0,0.0,0.0,0.0,0.0,0.0,0.0,0.0,0.0,0.0,0.0,0.0,0.0,0.0,0.0,0.0,0.0,0.0,0.0,0.0,0.0,0.0,0.0,0.0,0.0,0.0,0.0,0.0,0.0,-1.511,-1.4887,-1.4845,-1.4957,-1.5019,-1.5019,-1.4957,-1.481,-1.4789,-1.4921,0.0,0.0,0.0,0.0,0.0,0.0,0.0,0.0,0.0,0.0,0.0,0.0,0.0,0.0,0.0,0.0,0.0,0.0,0.0,0.0,0.0,0.0,0.0,0.0,0.0,0.0,0.0,0.0,0.0,0.0,0.0,0.0,0.0,0.0,0.0,0.0,0.0,0.0,0.0,-0.5348,-0.5391,0.0,0.0,0.0,0.0,0.0,0.0,0.0,0.0,-0.1076,0.0,0.0,0.0,0.0,0.0,0.0,0.0,0.0,0.0,0.0,0.0,0.0,0.0,0.0,0.0,0.0,0.0,0.0,0.0,0.0,0.0,0.0,0.0,0.0,0.0,0.0,0.0,0.0,0.0,0.0,0.0,0.0,0.0,0.0,0.0,0.0,0.0,0.0,0.0,0.0,0.0,0.0,0.0,0.0,0.0,0.0,0.0,0.0,0.0,0.0,0.0,0.0,0.0,0.0,0.0,-1.472,-1.4601,-1.4552,-1.4538,-1.4657,-1.4657,-1.4538,-1.4433,-1.4342,0.0,0.0,0.0,0.0,0.0,0.0,0.0,0.0,0.0,0.0,0.0,0.0,0.0,0.0,0.0,0.0,0.0,0.0,0.0,0.0,0.0,0.0,0.0,0.0,0.0,0.0,0.0,0.0,0.0,0.0,0.0,0.0,0.0,0.0,0.0,0.0,0.0,0.0,0.0,0.0,-0.5464,-0.5464,-0.5551,0.0,0.0,0.0,0.0,0.0,0.0,-0.2684,-0.1915,0.0,0.0,0.0,0.0,0.0,0.0,0.0,0.0,0.0,0.0,0.0,0.0,0.0,0.0,0.0,0.0,0.0,0.0,0.0,0.0,0.0,0.0,0.0,0.0,0.0,0.0,0.0,0.0,0.0,0.0,0.0,0.0,0.0,0.0,0.0,0.0,0.0,0.0,0.0,0.0,0.0,0.0,0.0,0.0,0.0,0.0,0.0,0.0,0.0,0.0,0.0,0.0,0.0,0.0,0.0,-1.4405,-1.4363,-1.4342,-1.4342,-1.4489,-1.451,-1.4363,-1.4342,-1.4258,0.0,0.0,0.0,0.0,0.0,0.0,0.0,0.0,0.0,0.0,0.0,0.0,0.0,0.0,0.0,0.0,0.0,0.0,0.0,0.0,0.0,0.0,0.0,0.0,0.0,0.0,0.0,0.0,0.0,0.0,0.0,0.0,0.0,0.0,0.0,0.0,0.0,0.0,0.0,0.0,0.0,-0.5578,-0.5675,-0.553,0.0,0.0,0.0,0.0,-0.3642,-0.3197,0.0,0.0,0.0,0.0,0.0,0.0,0.0,0.0,0.0,0.0,0.0,0.0,0.0,0.0,0.0,0.0,0.0,0.0,0.0,0.0,0.0,0.0,0.0,0.0,0.0,0.0,0.0,0.0,0.0,0.0,0.0,0.0,0.0,0.0,0.0,0.0,0.0,0.0,0.0,0.0,0.0,0.0,0.0,0.0,0.0,0.0,0.0,0.0,0.0,0.0,0.0,0.0,0.0,0.0,0.0,0.0,-1.437,-1.4229,-1.4124,-1.4124,-1.4145,-1.4145,-1.4145,-1.4145,-1.4124,0.0,0.0,0.0,0.0,0.0,0.0,0.0,0.0,0.0,0.0,0.0,0.0,0.0,0.0,0.0,0.0,0.0,0.0,0.0,0.0,0.0,0.0,0.0,0.0,0.0,0.0,0.0,0.0,0.0,0.0,0.0,0.0,0.0,0.0,0.0,0.0,0.0,0.0,0.0,0.0,0.0,-0.5675,-0.5708,-0.553,-0.5396,0.0,0.0,-0.5017,-0.4599,-0.3188,0.0,0.0,0.0,0.0,0.0,0.0,0.0,0.0,0.0,0.0,0.0,0.0,0.0,0.0,0.0,0.0,0.0,0.0,0.0,0.0,0.0,0.0,0.0,0.0,0.0,0.0,0.0,0.0,0.0,0.0,0.0,0.0,0.0,0.0,0.0,0.0,0.0,0.0,0.0,0.0,0.0,0.0,0.0,0.0,0.0,0.0,0.0,0.0,0.0,0.0,0.0,0.0,0.0,0.0,0.0,-1.306,-1.4153,-1.3625,-1.3561,-1.406,-1.4103,-1.4103,-1.4103,-1.4103,-1.4103,0.0,0.0,0.0,0.0,0.0,0.0,0.0,0.0,0.0,0.0,0.0,0.0,0.0,0.0,0.0,0.0,0.0,0.0,0.0,0.0,0.0,0.0,0.0,0.0,0.0,0.0,0.0,0.0,0.0,0.0,0.0,0.0,0.0,0.0,0.0,0.0,0.0,0.0,0.0,0.0,0.0,0.0,-0.5713,-0.5619,0.0,0.0,0.0,-0.5406,-0.5142,0.0,0.0,0.0,0.0,0.0,0.0,0.0,0.0,0.0,0.0,0.0,0.0,0.0,0.0,0.0,0.0,0.0,0.0,0.0,0.0,0.0,0.0,0.0,0.0,0.0,0.0,0.0,0.0,0.0,0.0,0.0,0.0,0.0,0.0,0.0,0.0,0.0,0.0,0.0,0.0,0.0,0.0,0.0,0.0,0.0,0.0,0.0,0.0,0.0,0.0,0.0,0.0,0.0,0.0,0.0,0.0,0.0,-1.3349,-1.2699,-1.2677,-1.337,-1.3392,-1.3392,-1.3392,-1.3349,0.0,0.0,0.0,0.0,0.0,0.0,0.0,0.0,0.0,0.0,0.0,0.0,0.0,0.0,0.0,0.0,0.0,0.0,0.0,0.0,0.0,0.0,0.0,0.0,0.0,0.0,0.0,0.0,0.0,0.0,0.0,0.0,0.0,0.0,0.0,0.0,0.0,0.0,0.0,0.0,0.0,0.0,-0.5713,-0.5713,-0.5508,-0.5329,0.0,0.0,-0.4896,-0.4696,-0.3631,-0.2512,0.0,0.0,0.0,0.0,0.0,0.0,0.0,0.0,0.0,0.0,0.0,0.0,0.0,0.0,0.0,0.0,0.0,0.0,0.0,0.0,0.0,0.0,0.0,0.0,0.0,0.0,0.0,0.0,0.0,0.0,0.0,0.0,0.0,0.0,0.0,0.0,0.0,0.0,0.0,0.0,0.0,0.0,0.0,0.0,0.0,0.0,0.0,0.0,0.0,0.0,0.0,0.0,0.0,0.0,0.0,-1.1478,-1.1435,-1.1413,-1.1478,-1.1499,-1.1499,-1.1499,-1.1327,-1.1713,0.0,0.0,0.0,0.0,0.0,0.0,0.0,0.0,0.0,0.0,0.0,0.0,0.0,0.0,0.0,0.0,0.0,0.0,0.0,0.0,0.0,0.0,0.0,0.0,0.0,0.0,0.0,0.0,0.0,0.0,0.0,0.0,0.0,0.0,0.0,0.0,0.0,0.0,0.0,0.0,0.0,-0.5713,-0.5713,-0.4951,-0.4389,0.0,0.0,-0.2845,-0.2722,-0.1586,-0.0657,-0.0536,0.0,0.0,0.0,0.0,0.0,0.0,0.0,0.0,0.0,0.0,0.0,0.0,0.0,0.0,0.0,0.0,0.0,0.0,0.0,0.0,0.0,0.0,0.0,0.0,0.0,0.0,0.0,0.0,0.0,0.0,0.0,0.0,0.0,0.0,0.0,0.0,0.0,0.0,0.0,0.0,0.0,0.0,0.0,0.0,0.0,0.0,0.0,0.0,0.0,0.0,0.0,0.0,0.0,-1.0019,-1.1284,-1.0431,-1.0366,-1.1069,-1.0971,-1.095,-1.1112,-1.1047,-1.1219,0.0,0.0,0.0,0.0,0.0,0.0,0.0,0.0,0.0,0.0,0.0,0.0,0.0,0.0,0.0,0.0,0.0,0.0,0.0,0.0,0.0,0.0,0.0,0.0,0.0,0.0,0.0,0.0,-0.6562,-0.6357,-0.6132,0.0,0.0,0.0,0.0,0.0,0.0,0.0,0.0,0.0,0.0,-0.3973,-0.3973,-0.3668,0.0,0.0,-0.3092,-0.281,-0.2738,-0.1547,-0.0622,-0.0581,0.0558,0.0,0.0,0.0,0.0,0.0,0.0,0.0,0.0,0.0,0.0,0.0,0.0,0.0,0.0,0.0,0.0,0.0,0.0,0.0,0.0,0.0,0.0,0.0,0.0,0.0,0.0,0.0,0.0,0.0,0.0,0.0,0.0,0.0,0.0,0.0,0.0,0.0,0.0,0.0,0.0,0.0,0.0,0.0,0.0,0.0,0.0,0.0,0.0,0.0,0.0,0.0,0.0,-0.8938,-1.0463,-0.9366,-0.9257,-1.0139,-0.9923,-0.9879,-1.0053,-0.9988,-1.0118,0.0,0.0,0.0,0.0,0.0,0.0,0.0,0.0,0.0,0.0,0.0,0.0,0.0,0.0,0.0,0.0,0.0,0.0,0.0,0.0,0.0,0.0,0.0,0.0,0.0,0.0,0.0,0.0,-0.586,-0.544,-0.518,0.0,0.0,0.0,0.0,0.0,0.0,0.0,0.0,0.0,0.0,-0.2899,-0.2899,-0.2638,-0.2467,-0.2452,-0.2202,-0.204,-0.2028,-0.109,-0.0357,-0.0262,0.0,0.0,0.0,0.0,0.0,0.0,0.0,0.0,0.0,0.0,0.0,0.0,0.0,0.0,0.0,0.0,0.0,0.0,0.0,0.0,0.0,0.0,0.0,0.0,0.0,0.0,0.0,0.0,0.0,0.0,-0.8456,0.0,0.0,0.0,0.0,0.0,0.0,0.0,0.0,0.0,0.0,0.0,0.0,0.0,0.0,0.0,0.0,0.0,0.0,0.0,0.0,0.0,0.0,-0.8332,-0.8656,-0.8208,-0.8047,-0.8288,-0.8069,-0.7988,-0.801,-0.7724,-0.8113,-0.9213,0.0,0.0,0.0,0.0,0.0,0.0,0.0,0.0,0.0,0.0,0.0,0.0,0.0,0.0,0.0,0.0,0.0,0.0,0.0,0.0,0.0,0.0,0.0,0.0,0.0,0.0,-0.57,-0.4277,-0.3308,0.0,0.0,0.0,0.0,0.0,0.0,0.0,0.0,0.0,0.0,-0.2899,-0.2875,-0.2854,-0.2046,-0.1419,-0.1415,-0.0682,0.0,0.0,0.0165,0.0453,0.0,0.0,0.0,0.0,0.0,0.0,0.0,0.0,0.0,0.0,0.0,0.0,0.0,0.0,0.0,0.0,0.0,0.0,0.0,0.0,0.0,0.0,0.0,0.0,0.0,0.0,0.0,-0.8031,-0.8009,0.0,0.0,0.0,0.0,0.0,0.0,0.0,0.0,0.0,0.0,0.0,-0.7121,-0.7121,0.0,0.0,0.0,0.0,0.0,0.0,0.0,0.0,0.0,0.0,0.0,0.0,-0.7856,-0.8098,-0.7628,-0.7496,-0.7724,-0.7503,-0.7452,-0.7613,-0.7554,-0.768,-0.8069,0.0,0.0,0.0,0.0,0.0,0.0,0.0,0.0,0.0,0.0,0.0,0.0,0.0,0.0,0.0,0.0,0.0,0.0,0.0,0.0,0.0,0.0,0.0,0.0,0.0,-0.5983,0.0,0.0,0.0,0.0,0.0,0.0,0.0,0.0,0.0,0.0,0.0,-0.2302,-0.1963,-0.1374,-0.096,-0.0972,-0.068,-0.0458,0.0,0.0,0.0,0.0,0.0,0.0,0.0,0.0,0.0,0.0,0.0,0.0,0.0,0.0,0.1403,0.1464,0.1692,0.1861,0.1873,0.0,0.0,0.0,0.0,0.0,0.0,0.0,0.0,0.0,0.0,0.0,0.0,0.0,0.0,-0.7121,0.0,-0.7121,0.0,0.0,0.0,0.0,0.0,0.0,0.0,0.0,-0.7121,-0.7121,-0.7121,-0.7121,-0.7121,0.0,-0.7175,-0.7264,0.0,0.0,0.0,0.0,0.0,0.0,0.0,0.0,-0.7613,-0.7856,-0.7363,-0.7231,-0.7481,-0.7253,-0.7187,-0.7348,-0.737,-0.7348,-0.737,-0.7264,-0.7195,0.0,0.0,0.0,0.0,0.0,0.0,0.0,0.0,0.0,0.0,0.0,0.0,0.0,0.0,0.0,0.0,0.0,0.0,0.0,0.0,0.0,0.0,0.0,-0.4736,0.0,0.0,0.0,0.0,0.0,0.0,0.0,0.0,0.0,-0.2437,-0.1871,-0.1319,-0.0971,-0.0395,0.0,0.0,0.0,0.0,0.0,0.0,0.0,0.0,0.0,0.029,0.0389,0.0553,0.0787,0.1097,0.1273,0.138,0.1497,0.0,0.0,0.1468,0.162,0.1767,0.1731,0.1859,0.1948,0.1982,0.1964,0.1936,0.0,0.0,0.0,0.0,0.0,0.0,0.0,0.0,-0.7121,-0.7121,0.0,-0.7121,0.0,0.0,0.0,0.0,0.0,-0.7052,0.0,0.0,-0.6963,-0.7017,-0.6979,-0.6963,-0.7001,-0.703,-0.7147,-0.7147,-0.6992,-0.7001,0.0,0.0,0.0,0.0,0.0,0.0,-0.7635,-0.7856,-0.7363,-0.7231,-0.7459,-0.7231,-0.7121,-0.7105,-0.7112,-0.7119,-0.7141,-0.7321,-0.7403,-0.7426,-0.7516,0.0,0.0,0.0,0.0,0.0,0.0,0.0,0.0,0.0,0.0,0.0,0.0,0.0,0.0,0.0,0.0,0.0,0.0,0.0,0.0,-0.3773,0.0,0.0,0.0,0.0,0.0,0.0,0.0,0.0,0.0,0.0,-0.1404,-0.1521,-0.117,-0.0144,0.0,0.0,0.0,0.0,0.0,0.0,0.0,0.0,0.0,0.0,0.0099,0.0351,0.0,0.0,0.1025,0.1097,0.1191,0.143,0.15,0.1484,0.1405,0.1467,0.1475,0.1428,0.149,0.1494,0.147,0.163,0.1635,-0.7121,0.0,0.0,0.0,0.0,-0.7121,-0.7121,-0.7121,-0.7121,-0.7121,-0.7121,-0.7121,0.0,0.0,0.0,0.0,0.0,0.0,-0.5923,-0.5181,-0.5181,-0.5157,-0.5181,-0.5181,-0.5181,-0.5181,-0.5237,-0.5232,-0.5181,-0.5157,-0.5911,-0.7348,0.0,0.0,0.0,0.0,-0.7253,-0.7319,-0.7187,-0.7143,-0.7209,-0.7143,-0.7175,-0.7305,-0.7414,-0.7468,-0.7468,-0.7509,-0.7536,-0.7536,-0.7577,0.0,0.0,0.0,0.0,0.0,0.0,0.0,0.0,0.0,0.0,0.0,0.0,0.0,0.0,0.0,0.0,0.0,0.0,0.0,-0.3748,-0.2368,-0.1463,0.0,0.0,0.0,0.0,0.0,0.0,0.0,0.0,0.0,-0.0409,-0.048,-0.035,0.0,0.0,0.0,0.0,0.0,0.0,0.0,0.0,0.0,0.0,0.0,0.0024,0.0097,0.0264,0.0501,0.0834,0.1025,0.1192,0.1431,0.1502,0.1496,0.1482,0.1483,0.151,0.1479,0.1484,0.177,0.2436,0.2618,0.2857,-0.6934,-0.7312,-0.733,-0.7253,-0.7098,-0.7181,-0.7208,-0.7215,-0.7292,-0.7296,-0.7303,-0.7303,-0.707,-0.6662,-0.6351,0.0,0.0,0.0,-0.5006,-0.4395,-0.4395,-0.4395,-0.4395,-0.4395,-0.4395,-0.4395,-0.4454,-0.4454,-0.4395,-0.4454,-0.5082,-0.6253,0.0,0.0,-0.6911,-0.716,-0.7296,-0.7303,-0.7296,-0.7303,-0.7303,-0.7296,-0.7344,-0.7461,-0.7573,-0.7409,-0.7003,-0.7029,-0.6846,-0.6417,-0.6462,-0.6485,0.0,0.0,0.0,0.0,0.0,0.0,0.0,0.0,0.0,0.0,0.0,-0.5757,0.0,0.0,0.0,0.0,-0.3802,-0.3321,-0.2652,-0.1727,0.0,0.0,0.0,0.0,0.0,0.0,0.0,0.0,0.0,0.0,0.0,0.0,0.0,0.0,0.0,0.0,0.0,0.0,0.0,0.0,0.0,0.0,0.0,0.0,0.0,0.0,0.0122,0.0342,0.0585,0.083,0.1073,0.1318,0.1465,0.1538,0.1538,0.1538,0.1698,0.2079,0.2476,0.2996,0.3637,0.3732,0.3945,-0.6455,-0.7336,-0.6998,-0.6932,-0.7034,-0.7212,-0.725,-0.7171,-0.7279,-0.7338,-0.7362,-0.7338,-0.6791,-0.5847,-0.4853,0.0,-0.4296,-0.4296,-0.4252,-0.4177,-0.4177,-0.4177,-0.4177,-0.4153,-0.4177,-0.4181,-0.4304,-0.43,-0.4161,-0.4279,-0.43,-0.4201,-0.5246,-0.5805,-0.5931,-0.6855,-0.7338,-0.7338,-0.7308,-0.7338,-0.7338,-0.7352,-0.7358,-0.7358,-0.7365,-0.6892,-0.5963,-0.604,-0.563,-0.4683,-0.4732,-0.4797,-0.4797,0.0,0.0,0.0,0.0,0.0,0.0,0.0,0.0,0.0,0.0,0.0,0.0,0.0,0.0,0.0,-0.224,0.0,-0.1701,-0.1677,0.0,0.0,0.0,-0.0749,-0.0427,-0.0161,0.0,0.0,0.0,0.0,0.0,0.0,0.0,0.0,0.0,0.0,0.0,0.0,0.0,0.0,0.0,0.0,0.0,0.0,0.0,0.0,0.0,0.0,0.0381,0.0634,0.0913,0.1163,0.1442,0.1593,0.1592,0.1688,0.1997,0.2914,0.3803,0.4518,0.4621,0.4741,0.4888,-0.4916,-0.5147,-0.5073,-0.5521,-0.6241,-0.6322,-0.5865,-0.512,-0.5162,-0.5176,-0.5176,-0.5152,-0.5074,-0.4905,-0.4663,-0.4163,-0.3477,-0.3502,-0.3034,-0.229,-0.2265,-0.2265,-0.2265,-0.229,-0.2265,-0.2265,-0.23,-0.23,-0.2267,-0.23,-0.23,-0.234,-0.3329,-0.4159,-0.4778,-0.5034,-0.5152,-0.5176,-0.5152,-0.5176,-0.5157,-0.5255,-0.532,-0.5296,-0.539,-0.5329,-0.5107,-0.5104,-0.5017,-0.4769,-0.4789,-0.4797,-0.4797,-0.4797,0.0,0.0,0.0,0.0,0.0,0.0,0.0,0.0,0.0,-0.3646,-0.3671,0.0,-0.2337,0.0,-0.1822,-0.1696,-0.1703,-0.1518,0.0,0.0,-0.0702,-0.0408,-0.0136,-0.0028,0.0,0.0,0.0,0.0,0.0,0.0,0.0,0.0,0.0,0.0,0.0,0.0,0.0,0.0,0.0,0.0,0.0,0.0,0.0,0.0,0.0,0.0,0.0342,0.0685,0.0944,0.1165,0.147,0.1643,0.1622,0.2246,0.2841,0.3138,0.3403,0.3824,0.4588,0.5407,0.6227,-0.4145,-0.4582,-0.4582,-0.4655,-0.4768,-0.5187,-0.5025,-0.4506,-0.4562,-0.4578,-0.4558,-0.4072,-0.3901,-0.3938,-0.3474,-0.2969,-0.2496,-0.2496,-0.217,-0.1592,-0.1592,-0.1592,-0.1592,-0.1592,-0.1592,-0.1592,-0.163,-0.1637,-0.1639,-0.165,-0.1656,-0.1656,-0.2248,-0.276,-0.3229,-0.4107,-0.4554,-0.4554,-0.4554,-0.4574,-0.4614,-0.469,-0.4734,-0.4719,-0.4818,-0.4611,-0.4152,-0.4149,-0.3917,-0.3454,-0.3428,-0.3403,-0.3403,-0.3403,-0.3161,0.0,0.0,0.0,0.0,0.0,0.0,0.0,0.0,0.0,0.0,0.0,-0.171,0.0,-0.1751,-0.173,-0.1744,-0.1607,-0.1418,-0.1119,-0.0908,-0.0637,-0.0221,-0.0195,-0.014,0.0,0.0,0.0,0.0,0.0,0.0,0.0,0.0,0.0,0.0,0.0,0.0,0.0,0.0,0.0,0.0,0.0,0.0,0.0,0.0,0.0053,0.0213,0.0453,0.0771,0.1027,0.1314,0.1546,0.1659,0.2557,0.3305,0.346,0.4178,0.4942,0.545,0.6356,0.7353,-0.355,-0.44,-0.4375,-0.3848,-0.307,-0.3871,-0.4213,-0.4205,-0.4346,-0.44,-0.4325,-0.3399,-0.3,-0.2922,-0.2024,-0.1622,-0.1622,-0.1626,-0.1628,-0.1628,-0.1628,-0.1628,-0.1628,-0.1628,-0.1628,-0.1629,-0.1681,-0.1719,-0.1721,-0.1718,-0.1704,-0.1704,-0.1704,-0.1704,-0.1781,-0.35,-0.4405,-0.4405,-0.4405,-0.4438,-0.4483,-0.4486,-0.4493,-0.4484,-0.4487,-0.4063,-0.3167,-0.3085,-0.2662,-0.1784,-0.1704,-0.1704,-0.1704,-0.1704,-0.1707,0.0,-0.171,0.0,0.0,0.0,0.0,0.0,0.0,0.0,0.0,-0.1716,-0.1726,-0.1808,-0.1811,-0.1794,-0.1793,-0.1794,-0.1655,-0.135,-0.1294,-0.1041,-0.048,-0.0367,-0.0254,-0.0028,0.0,0.0,0.0,0.0,0.0,0.0,0.0,0.0,0.0,0.0,0.0,0.0,0.0,0.0,0.0,0.0,0.0,0.0,0.0,0.0,0.0,0.0244,0.0514,0.081,0.1242,0.1644,0.185,0.292,0.3749,0.3882,0.5425,0.6653,0.6562,0.7239,0.8089,-0.2019,-0.2196,-0.2221,-0.2095,-0.1921,-0.2147,-0.2216,-0.2159,-0.2192,-0.2221,-0.2196,-0.1994,-0.1918,-0.1871,-0.1745,-0.1679,-0.1681,-0.1677,-0.1688,-0.1688,-0.1688,-0.1688,-0.1688,-0.1688,-0.1688,-0.1688,-0.1693,-0.1696,-0.1696,-0.1701,-0.1704,-0.1704,-0.1704,-0.1704,-0.1731,0.0,0.0,0.0,-0.2266,-0.2296,-0.2303,-0.2303,-0.2307,-0.2314,-0.2314,0.0,-0.2023,-0.1997,-0.1917,-0.1731,-0.1704,0.0,0.0,0.0,0.0,0.0,0.0,0.0,0.0,0.0,0.0,0.0,-0.1775,-0.1777,-0.178,-0.1778,-0.178,-0.1814,-0.1815,-0.1789,-0.1794,-0.1794,-0.1692,-0.14,-0.1144,-0.0834,-0.0524,-0.0263,-0.0058,0.0,0.0,0.0,0.0,0.0,0.0,0.0,0.0,0.0,0.0,0.0,0.0,0.0,0.0,0.0,0.0,0.0,0.0,0.0,0.0,0.0,0.0,0.0202,0.0402,0.0568,0.1587,0.2592,0.2946,0.4018,0.4961,0.5233,0.6336,0.7138,0.6879,0.7669,0.8404,-0.166,0.0,-0.166,-0.1659,0.0,-0.1677,-0.1674,-0.166,-0.166,-0.166,-0.166,-0.166,-0.166,-0.166,-0.1675,-0.171,-0.171,-0.1699,-0.1704,-0.1704,-0.1704,-0.1704,-0.1704,-0.1704,-0.1704,-0.1704,-0.1746,-0.1727,-0.1727,-0.1741,-0.1749,-0.1749,-0.1749,-0.1749,-0.1749,-0.1749,-0.1734,-0.1704,-0.1704,-0.1711,-0.1753,-0.1727,-0.1734,-0.1748,0.0,0.0,0.0,0.0,0.0,0.0,0.0,0.0,0.0,0.0,0.0,-0.1844,-0.1846,-0.1853,-0.1868,-0.1868,-0.1782,-0.161,-0.1449,-0.1421,-0.1582,-0.1437,-0.1351,-0.1379,-0.1351,-0.1351,-0.1351,-0.1351,-0.1298,-0.1163,-0.0989,-0.0788,-0.05,-0.0294,-0.0147,0.0,0.0,0.0,0.0,0.0,0.0,0.0,0.0,0.0,0.0,0.0,0.0,0.0,0.0,0.0,0.0,0.0,0.0,0.0,0.0,0.0,0.0,0.0118,0.0411,0.1194,0.2093,0.2894,0.4134,0.5296,0.6213,0.664,0.755,0.8257,0.8165,0.8457,0.873,-0.1704,-0.1704,-0.1704,-0.1704,-0.1704,-0.171,-0.1715,-0.1719,0.0,0.0,0.0,-0.1704,-0.1704,-0.1704,-0.171,-0.1712,-0.1712,-0.1718,-0.172,-0.1719,-0.172,-0.172,-0.172,-0.172,-0.172,-0.1722,-0.1772,-0.1812,-0.1814,-0.1789,-0.1804,-0.1804,-0.1808,-0.1839,-0.181,-0.1812,-0.1787,-0.1738,-0.1731,-0.1771,-0.1828,-0.1829,-0.1814,-0.181,-0.181,-0.181,-0.1812,-0.1806,-0.182,-0.182,-0.1872,-0.1885,-0.1885,-0.1885,-0.1885,-0.1885,-0.1885,-0.1885,-0.1885,-0.1885,-0.1741,-0.142,-0.1094,-0.1034,-0.1296,-0.106,-0.0883,-0.0883,-0.0883,-0.0883,-0.0883,-0.0883,-0.0885,-0.0887,-0.0858,-0.0711,-0.0445,-0.0356,-0.0208,0.0,0.0,0.0,0.0,0.0,0.0,0.0,0.0,0.0,0.0,0.0,0.0,0.0,0.0,0.0,0.0,0.0,0.0,0.0,0.0,0.0356,0.0356,0.0534,0.1216,0.2405,0.2816,0.3763,0.5178,0.6509,0.7455,0.7837,0.8724,0.9492,0.9442,0.9237,0.9102,-0.1704,-0.1704,-0.1704,-0.1704,-0.1707,-0.176,-0.1786,-0.1778,-0.1727,-0.1704,-0.1704,-0.1704,-0.1704,-0.1705,-0.1758,-0.1798,-0.1799,-0.1799,-0.1782,-0.1782,-0.1782,-0.1782,-0.1782,-0.1782,-0.1782,-0.1782,-0.1787,-0.1789,-0.1793,-0.179,-0.1805,-0.1809,-0.1859,-0.1901,-0.1873,-0.1873,-0.1869,-0.1889,-0.1806,-0.1808,-0.1895,-0.1895,-0.1898,-0.1873,-0.1872,-0.1873,-0.1873,-0.1907,-0.188,-0.188,-0.1883,-0.1885,-0.1885,-0.1887,-0.1885,-0.1885,-0.1885,-0.1885,-0.1885,-0.1885,-0.1748,-0.1441,-0.1082,-0.0927,-0.0973,-0.0942,-0.0883,-0.0884,-0.0855,-0.0883,-0.0883,-0.0885,-0.0861,-0.0841,-0.0631,-0.0453,-0.0459,-0.0215,0.0,0.0,0.0,0.0,0.0,0.0,0.0,0.0,0.0,0.0,0.0,0.0,0.0,0.0,0.0,0.0,0.0,0.0,0.0,0.0,0.0,0.1746,0.1746,0.2448,0.318,0.3638,0.4496,0.5468,0.6228,0.7539,0.846,0.8914,0.9392,0.9694,0.9717,0.968,0.9598,-0.1753,-0.1753,-0.1753,-0.1753,-0.1755,-0.1768,-0.181,-0.1793,-0.1765,-0.1753,-0.1753,-0.1753,-0.1753,-0.1755,-0.1796,-0.1801,-0.1803,-0.1789,-0.1804,-0.179,-0.1792,-0.1828,-0.1843,-0.1873,-0.1873,-0.1844,-0.1844,-0.1844,-0.1846,-0.1858,-0.1865,-0.1836,-0.188,-0.1885,-0.1885,-0.1885,-0.1894,-0.1879,-0.1851,-0.1872,-0.1885,-0.1885,-0.1885,-0.1885,-0.1885,-0.1885,-0.1885,-0.1902,-0.1881,-0.188,-0.1926,-0.1966,-0.1965,-0.1965,-0.1966,-0.1934,-0.1966,-0.1965,-0.1965,-0.1602,-0.1364,-0.1191,-0.0708,-0.0401,-0.0429,-0.0395,-0.0423,-0.0393,-0.0393,-0.0423,-0.0423,-0.0423,-0.0396,-0.0432,-0.0247,-0.0187,-0.0221,-0.0095,0.0,0.0,0.0,0.0,0.0,0.0,0.0,0.0,0.0,0.0,0.0,0.0699,0.0853,0.0,0.0,0.0,0.0,0.0696,0.1074,0.1137,0.2336,0.3124,0.325,0.3847,0.4379,0.5074,0.5765,0.6491,0.7368,0.8187,0.8912,0.9436,0.9623,0.9759,0.9848,0.9852,0.9744,-0.1794,-0.1794,-0.1794,-0.18,-0.1805,-0.1805,-0.1809,-0.1843,-0.1816,-0.1816,-0.1814,-0.1809,-0.1809,-0.1816,-0.1816,-0.1816,-0.1844,-0.1814,-0.1828,-0.182,-0.1821,-0.1862,-0.1884,-0.1885,-0.1885,-0.1885,-0.1885,-0.1885,-0.1885,-0.1892,-0.19,-0.1906,-0.1906,-0.1936,-0.1936,-0.1936,-0.1921,-0.1918,-0.1928,-0.1913,-0.1936,-0.1936,-0.1907,-0.1936,-0.1907,-0.1909,-0.1915,-0.1908,-0.1923,-0.1931,-0.1984,-0.2027,-0.2027,-0.2027,-0.1965,-0.1902,-0.1902,-0.184,-0.1746,-0.131,-0.0966,-0.0873,-0.041,-0.0063,0.0,0.0,0.0,0.0,0.0,0.0,0.0,0.0,0.0,0.0,0.0,0.0,0.0,0.0,0.0,0.0,0.0,0.0,0.0,0.0,0.0,0.0,0.0742,0.0968,0.11,0.1974,0.2007,0.1364,0.0972,0.0,0.1032,0.1867,0.2507,0.2607,0.3794,0.4555,0.4814,0.4916,0.5497,0.6509,0.6709,0.7216,0.8284,0.8634,0.8915,0.9405,0.9627,0.9773,1.0026,0.9994,0.9866,-0.1795,-0.1794,-0.1795,-0.181,-0.1806,-0.1808,-0.1822,-0.1873,-0.1907,-0.1877,-0.1873,-0.182,-0.1851,-0.1876,-0.1904,-0.1904,-0.1904,-0.1877,-0.1879,-0.1881,-0.1881,-0.1884,-0.1888,-0.1887,-0.1885,-0.1888,-0.1888,-0.1891,-0.1892,-0.1885,-0.1911,-0.1966,-0.1969,-0.1998,-0.1999,-0.1999,-0.1982,-0.2009,-0.1977,-0.1993,-0.2001,-0.1999,-0.1969,-0.1969,-0.1999,-0.1981,-0.2001,-0.1978,-0.2023,-0.2081,-0.2085,-0.2087,-0.2087,-0.2088,-0.1926,-0.1605,-0.1541,-0.1413,-0.1156,-0.1028,-0.0866,-0.0579,-0.0483,-0.029,0.0,0.0,0.0,0.0,0.0,0.0,0.0,0.0,0.0,0.0,0.0,0.0,0.0,0.0,0.0,0.0,0.0,0.0,0.0,0.0,0.0,0.1812,0.2752,0.3375,0.3469,0.3803,0.4048,0.3874,0.3866,0.3779,0.3712,0.3927,0.4101,0.4195,0.5215,0.5965,0.6299,0.6937,0.7884,0.7555,0.7905,0.8044,0.8226,0.8492,0.8855,0.9236,0.9576,0.9825,1.0161,1.0222,1.012,-0.1805,-0.1793,-0.1793,-0.181,-0.1865,-0.1866,-0.1874,-0.1885,-0.1885,-0.1895,-0.188,-0.1869,-0.1891,-0.1885,-0.1885,-0.1885,-0.1885,-0.1885,-0.1896,-0.1881,-0.1883,-0.1922,-0.1969,-0.197,-0.197,-0.1969,-0.1969,-0.197,-0.1972,-0.1952,-0.1973,-0.1999,-0.2001,-0.2011,-0.2057,-0.206,-0.2066,-0.2077,-0.2045,-0.2071,-0.2062,-0.206,-0.206,-0.206,-0.206,-0.2064,-0.2075,-0.2045,-0.2082,-0.2095,-0.2096,-0.2096,-0.2096,-0.1903,-0.1677,-0.1516,-0.1322,-0.1129,-0.1,-0.0806,-0.0646,-0.0484,-0.0325,-0.0131,0.0,0.0,0.0,0.0,0.0,0.0,0.0,0.0,0.0,0.0,0.0,0.0,0.0,0.0,0.0,0.0,0.0727,0.1223,0.1389,0.2015,0.2707,0.3331,0.399,0.4262,0.4353,0.4986,0.5501,0.5552,0.5543,0.5152,0.4682,0.508,0.5409,0.577,0.6727,0.7646,0.7706,0.7979,0.841,0.8437,0.8426,0.8426,0.8421,0.8541,0.8765,0.9172,0.9599,0.998,1.0341,1.0337,1.0222,-0.1832,-0.1822,-0.1824,-0.1841,-0.1898,-0.1898,-0.1903,-0.194,-0.194,-0.1924,-0.1912,-0.1944,-0.1932,-0.1943,-0.1941,-0.1911,-0.191,-0.1941,-0.1922,-0.1943,-0.1912,-0.1956,-0.2006,-0.2008,-0.2008,-0.2009,-0.2015,-0.2023,-0.2031,-0.2031,-0.2042,-0.2029,-0.2031,-0.2042,-0.2093,-0.2096,-0.21,-0.2107,-0.2109,-0.2113,-0.212,-0.2121,-0.2114,-0.2099,-0.2096,-0.21,-0.2109,-0.2109,-0.2113,-0.2121,-0.2023,-0.1958,-0.1958,-0.1599,-0.1338,-0.1208,-0.0914,-0.0718,-0.0718,-0.049,-0.0359,-0.0327,-0.0132,0.0,0.0,0.0,0.0,0.0,0.0,0.0,0.0,0.0,0.0,0.0,0.0,0.0,0.0,0.0,0.0,0.0,0.0738,0.1513,0.168,0.255,0.3417,0.3483,0.3954,0.4294,0.4395,0.5128,0.5804,0.6309,0.6372,0.6201,0.5603,0.5823,0.651,0.7145,0.7969,0.8429,0.8623,0.8617,0.8617,0.8519,0.8568,0.8612,0.8541,0.8596,0.8806,0.9193,0.9668,1.0123,1.0489,1.046,1.0426,-0.1883,-0.1884,-0.1884,-0.1903,-0.1899,-0.1899,-0.1945,-0.1997,-0.1999,-0.2003,-0.2003,-0.2003,-0.2003,-0.1999,-0.1999,-0.2002,-0.2001,-0.1999,-0.1999,-0.2003,-0.2005,-0.2006,-0.2008,-0.2008,-0.2009,-0.2017,-0.2007,-0.203,-0.2087,-0.2121,-0.2092,-0.2095,-0.2095,-0.2095,-0.2102,-0.2103,-0.2111,-0.2105,-0.2106,-0.212,-0.2178,-0.2182,-0.2153,-0.2107,-0.2098,-0.2113,-0.2104,-0.2108,-0.212,-0.2182,-0.1845,-0.161,-0.1612,-0.1309,-0.0972,-0.057,-0.0235,0.0,0.0,0.0,0.0,0.0,0.0,0.0,0.0,0.0,0.0,0.0,0.0,0.0,0.0,0.0,0.0,0.0,0.0,0.0,0.0,0.0,0.0,0.0,0.0303,0.0706,0.0437,0.1311,0.2386,0.2788,0.349,0.4361,0.4529,0.4596,0.5235,0.6176,0.661,0.6811,0.7879,0.7445,0.7312,0.7784,0.8251,0.8623,0.8623,0.8623,0.8623,0.8623,0.8623,0.8623,0.8623,0.8751,0.8978,0.9338,0.9775,1.0207,1.0551,1.0657,1.0649,-0.1898,-0.1887,-0.1936,-0.1951,-0.196,-0.196,-0.1997,-0.2008,-0.2008,-0.2008,-0.2008,-0.2008,-0.2008,-0.2008,-0.2027,-0.2024,-0.2009,-0.2008,-0.2008,-0.201,-0.2026,-0.2003,-0.2005,-0.2053,-0.2064,-0.2066,-0.2075,-0.2085,-0.2095,-0.2096,-0.2107,-0.209,-0.2093,-0.2102,-0.2152,-0.2156,-0.2161,-0.217,-0.2172,-0.2178,-0.2188,-0.2189,-0.2177,-0.2157,-0.2154,-0.216,-0.2171,-0.2172,-0.2076,-0.1851,-0.1683,-0.1515,-0.1279,-0.0909,-0.0572,-0.0236,-0.0067,0.0,0.0,0.0,0.0,0.0,0.0,0.0,0.0,0.0,0.0,0.0,0.0,0.0,0.0,0.0,0.0,0.0,0.0,0.0,0.0,0.0,0.0,0.0,0.074,0.1647,0.2284,0.3188,0.349,0.3557,0.3959,0.4562,0.5402,0.5637,0.6005,0.7145,0.7045,0.6911,0.8351,0.8218,0.8051,0.8318,0.8623,0.8623,0.8623,0.8623,0.8623,0.8623,0.8623,0.8623,0.8617,0.8601,0.8895,0.9417,0.9825,1.0128,1.0585,1.0684,1.0717,-0.1926,-0.1947,-0.1999,-0.2008,-0.2008,-0.2008,-0.2008,-0.2009,-0.2017,-0.2021,-0.2023,-0.2031,-0.2035,-0.2039,-0.2056,-0.2023,-0.2037,-0.2037,-0.2035,-0.2007,-0.2024,-0.2033,-0.2037,-0.2054,-0.2096,-0.2098,-0.2107,-0.2116,-0.2125,-0.2127,-0.2138,-0.2123,-0.2124,-0.2133,-0.2186,-0.2189,-0.2189,-0.2189,-0.2189,-0.2189,-0.2189,-0.2189,-0.2189,-0.2189,-0.2088,-0.2021,-0.1987,-0.2021,-0.1851,-0.1481,-0.1313,-0.1077,-0.0774,-0.0505,-0.0236,0.0,0.0,0.0,0.0,0.0,0.0,0.0,0.0,0.0,0.0,0.0,0.0,0.0,0.0,0.0,0.0,0.0,0.0,0.0,0.0,0.0,0.0,0.0,0.0,0.0,0.0706,0.178,0.2687,0.2786,0.2752,0.292,0.3255,0.4062,0.4766,0.5536,0.6239,0.7479,0.6978,0.7178,0.8151,0.8418,0.8284,0.8518,0.8623,0.8623,0.8623,0.8623,0.8623,0.8623,0.8617,0.8617,0.8573,0.8552,0.8877,0.9383,0.9658,0.9899,1.03,1.0684,1.0717,-0.2005,-0.2006,-0.2008,-0.2009,-0.2012,-0.2012,-0.201,-0.2019,-0.2008,-0.2019,-0.2023,-0.208,-0.2087,-0.2092,-0.2093,-0.2095,-0.2093,-0.2095,-0.2092,-0.2089,-0.2093,-0.2096,-0.2096,-0.2103,-0.2106,-0.2107,-0.2097,-0.2124,-0.2179,-0.2179,-0.2182,-0.2186,-0.2185,-0.2185,-0.2189,-0.2189,-0.2189,-0.2189,-0.2189,-0.2189,-0.2188,-0.2186,-0.2183,-0.2118,-0.1848,-0.1613,-0.158,-0.1581,-0.1447,-0.1077,-0.0741,-0.037,0.0,0.0,0.0,0.0,0.0,0.0,0.0,0.0,0.0,0.0,0.0,0.0,0.0,0.0,0.0,0.0,0.0,0.0,0.0,0.0,0.0,0.0,0.0,0.0,0.0,0.0,0.0,0.0,0.0336,0.0101,0.0168,0.0941,0.1277,0.1412,0.1982,0.2888,0.3492,0.4431,0.5098,0.6239,0.6944,0.7517,0.8117,0.859,0.859,0.8623,0.8623,0.8623,0.8623,0.8623,0.8623,0.8617,0.8541,0.8535,0.8465,0.8476,0.8726,0.9154,0.938,0.9725,1.0149,1.0524,1.0664,-0.2008,-0.2008,-0.2008,-0.2019,-0.2004,-0.2005,-0.2016,-0.2067,-0.208,-0.2082,-0.2084,-0.2092,-0.2096,-0.2103,-0.2117,-0.2095,-0.2097,-0.2147,-0.2138,-0.2106,-0.2118,-0.2095,-0.2099,-0.2149,-0.216,-0.2161,-0.2168,-0.2178,-0.2186,-0.2189,-0.2189,-0.2189,-0.2189,-0.2189,-0.2189,-0.2189,-0.2189,-0.2189,-0.2189,-0.2189,-0.2186,-0.2167,-0.2024,-0.1791,-0.1658,-0.1393,-0.0896,-0.1104,-0.1043,-0.0706,-0.0572,-0.0337,0.0,0.0,0.0,0.0,0.0,0.0,0.0,0.0,0.0,0.0,0.0,0.0,0.0,0.0,0.0,0.0,0.0,0.0,0.0,0.0,0.0,0.0,0.0,0.0,0.0,0.0,0.0,0.0,0.084,0.1378,0.1647,0.2083,0.2685,0.2752,0.3289,0.3825,0.4833,0.5268,0.6305,0.7579,0.7817,0.7817,0.8318,0.8623,0.8623,0.8623,0.8623,0.8623,0.8623,0.8623,0.8623,0.8573,0.853,0.8481,0.8378,0.8426,0.8653,0.8893,0.917,0.9586,1.0071,1.0372,1.0597,-0.0867,-0.084,-0.084,-0.0816,-0.0826,-0.0795,-0.0831,-0.0935,-0.1329,-0.1495,-0.1496,-0.1504,-0.1507,-0.151,-0.1522,-0.1527,-0.1563,-0.1945,-0.2168,-0.2136,-0.2149,-0.2125,-0.2128,-0.2178,-0.2189,-0.2189,-0.2189,-0.2189,-0.2189,-0.2189,-0.2189,-0.2189,-0.2189,-0.2189,-0.2186,-0.2177,-0.2175,-0.2183,-0.2165,-0.216,-0.2129,-0.2009,-0.1798,-0.1601,-0.1341,-0.0948,-0.0556,-0.0627,-0.0565,-0.0367,-0.03,-0.0201,0.0,0.0,0.0,0.0,0.0,0.0,0.0,0.0,0.0,0.0,0.0,0.0,0.0,0.0,0.0,0.0,0.0,0.0,0.0,0.0,0.082,0.0,0.0,0.0774,0.0841,0.1311,0.0,0.1378,0.205,0.2721,0.319,0.3557,0.4294,0.4328,0.4763,0.5232,0.6272,0.6811,0.7755,0.8356,0.8351,0.8418,0.8518,0.8623,0.8623,0.8623,0.8623,0.8623,0.8623,0.8623,0.8623,0.8584,0.8552,0.8546,0.8481,0.8394,0.8518,0.8724,0.9046,0.9566,1.0097,1.0425,1.0637,0.1027,0.1103,0.1073,0.0987,0.1,0.1001,0.0906,0.0908,0.0066,-0.0396,-0.0397,-0.0433,-0.0403,-0.0403,-0.0403,-0.0436,-0.0572,-0.1277,-0.1648,-0.1745,-0.1881,-0.1982,-0.2151,-0.2188,-0.2189,-0.2189,-0.2189,-0.2189,-0.2189,-0.2189,-0.2188,-0.2182,-0.2181,-0.2182,-0.2171,-0.212,-0.2054,-0.2104,-0.2033,-0.1992,-0.1982,-0.1729,-0.1521,-0.1456,-0.0908,-0.0551,-0.0422,-0.0228,0.0,0.0,0.0,0.0,0.0,0.0,0.0,0.0,0.0,0.0,0.0,0.0,0.0,0.0,0.0,0.0,0.0,0.0,0.0,0.0,0.0,0.0,0.0,0.157,0.2371,0.2577,0.25,0.2337,0.236,0.3371,0.3314,0.277,0.3468,0.4442,0.449,0.4723,0.4925,0.5127,0.5942,0.656,0.693,0.7689,0.8393,0.8638,0.8677,0.8687,0.872,0.872,0.8725,0.8725,0.8693,0.8655,0.8611,0.8595,0.8623,0.8584,0.8584,0.8579,0.8519,0.841,0.8437,0.8648,0.9071,0.9625,0.9978,1.0313,1.059,0.1068,0.1105,0.1149,0.1164,0.1146,0.1114,0.1153,0.113,0.0867,0.0668,0.0669,0.0671,0.0672,0.0672,0.0672,0.0672,0.0504,0.0269,0.0235,0.0101,-0.0639,-0.1447,-0.2054,-0.2189,-0.2189,-0.2189,-0.2189,-0.2189,-0.2189,-0.2188,-0.2143,-0.2121,-0.2092,-0.2113,-0.209,-0.1857,-0.1765,-0.1719,-0.1482,-0.1384,-0.1364,-0.1252,-0.1049,-0.0786,-0.0622,-0.036,-0.0164,-0.0033,0.0,0.0,0.0,0.0,0.0,0.0,0.0,0.0,0.0,0.0,0.0,0.0,0.0,0.0,0.0,0.0,0.0,0.0,0.0,0.0209,0.0906,0.1674,0.1925,0.3116,0.4337,0.5305,0.4724,0.408,0.4077,0.429,0.4393,0.4255,0.5284,0.597,0.6275,0.6829,0.7383,0.752,0.7761,0.8069,0.8084,0.8191,0.8796,0.8805,0.8838,0.8832,0.8832,0.8832,0.8838,0.8843,0.8805,0.874,0.8698,0.8617,0.86,0.8584,0.86,0.86,0.8481,0.8361,0.8475,0.8662,0.903,0.9484,0.9751,1.0052,1.0425,0.235,0.2411,0.2431,0.246,0.2457,0.2426,0.2436,0.235,0.1948,0.178,0.178,0.178,0.178,0.178,0.178,0.1478,0.1109,0.0639,0.0101,-0.0437,-0.1043,-0.1616,-0.2088,-0.2189,-0.2189,-0.2189,-0.2189,-0.2181,-0.214,-0.2047,-0.1937,-0.1854,-0.1757,-0.1688,-0.1647,-0.1469,-0.1376,-0.1356,-0.1152,-0.1052,-0.1065,-0.0889,-0.0719,-0.0491,-0.0394,-0.0165,0.0,0.0,0.0,0.0,0.0,0.0,0.0,0.0,0.0,0.0,0.0,0.0,0.0,0.0,0.0,0.0,0.0491,0.0806,0.0,0.0981,0.0175,0.2011,0.2258,0.2583,0.3445,0.4728,0.6217,0.7398,0.7106,0.6332,0.5709,0.6179,0.6116,0.6116,0.6743,0.7687,0.7657,0.8427,0.878,0.8839,0.8649,0.8753,0.8793,0.8919,0.893,0.8946,0.8941,0.8919,0.8908,0.8914,0.8919,0.8935,0.8935,0.887,0.88,0.8731,0.8725,0.8715,0.8666,0.8589,0.8529,0.8497,0.8595,0.8812,0.9079,0.9288,0.9527,0.9842,1.0201,0.4181,0.4215,0.4355,0.4422,0.4367,0.4476,0.437,0.4171,0.343,0.2957,0.289,0.2857,0.2857,0.2857,0.2588,0.2151,0.1277,0.0437,-0.074,-0.1312,-0.1717,-0.1851,-0.2021,-0.2155,-0.2189,-0.2189,-0.2155,-0.2075,-0.1934,-0.171,-0.1569,-0.1491,-0.1267,-0.1137,-0.116,-0.1022,-0.0994,-0.0998,-0.0853,-0.0786,-0.0761,-0.056,-0.0427,-0.0362,-0.0166,0.0,0.0,0.0,0.0,0.0,0.0,0.0,0.0,0.0,0.0,0.0,0.0,0.0,0.0,0.0,0.0844,0.1691,0.1164,0.1583,0.3278,0.2296,0.1914,0.3894,0.343,0.4021,0.524,0.6532,0.7607,0.8714,0.9064,0.8469,0.7736,0.8179,0.8458,0.7366,0.8253,0.8777,0.8952,0.8952,0.8927,0.9044,0.9033,0.9038,0.9038,0.9044,0.9038,0.9022,0.9006,0.8979,0.8979,0.8979,0.8995,0.9006,0.9027,0.9,0.8979,0.8914,0.8897,0.8865,0.8778,0.8773,0.8805,0.8805,0.88,0.8882,0.9103,0.9175,0.9263,0.963,0.9968,0.4681,0.4287,0.5464,0.5633,0.5312,0.5681,0.5614,0.5144,0.491,0.444,0.407,0.3969,0.3969,0.3936,0.3194,0.2554,0.2083,0.1042,0.0168,-0.0741,-0.0875,-0.1245,-0.1649,-0.1987,-0.2155,-0.2088,-0.1851,-0.1713,-0.161,-0.1374,-0.1203,-0.1123,-0.1026,-0.0988,-0.0947,-0.072,-0.0621,-0.0561,-0.0362,0.0,0.0,0.0,0.0,0.0,0.0,0.0,0.0,0.0,0.0,0.0,0.0,0.0,0.0,0.0,0.0,0.0,0.0,0.0,0.0,0.1068,0.1965,0.2481,0.3128,0.397,0.4402,0.4143,0.3898,0.4891,0.5469,0.6304,0.7734,0.8471,0.8868,0.9193,0.9302,0.9177,0.8873,0.9,0.8918,0.8847,0.8918,0.9226,0.9184,0.9204,0.9204,0.9184,0.9215,0.922,0.9209,0.9163,0.9141,0.915,0.9155,0.9103,0.9103,0.9103,0.9103,0.9103,0.915,0.9155,0.9103,0.906,0.9017,0.8962,0.8903,0.893,0.8989,0.8935,0.8892,0.8987,0.9069,0.9087,0.9176,0.9503,0.9561,0.5584,0.5325,0.6068,0.6183,0.5949,0.625,0.6183,0.5915,0.5848,0.5647,0.5346,0.5279,0.5282,0.5181,0.4,0.3159,0.2083,0.0605,-0.037,-0.0808,-0.0842,-0.101,-0.1279,-0.1548,-0.1683,-0.1649,-0.1481,-0.1343,-0.1237,-0.1005,-0.0802,-0.0726,-0.063,-0.0499,-0.0527,0.0,-0.0265,-0.0233,0.0,0.0,0.0,0.0,0.0,0.0,0.0,0.0,0.0,0.0,0.0,0.0,0.0,0.0,0.0,0.0,0.0,0.0,0.0,0.0,0.0,0.1838,0.2924,0.4358,0.4766,0.5564,0.5855,0.5709,0.5601,0.6398,0.7087,0.7598,0.9085,0.9302,0.9302,0.9302,0.9302,0.9302,0.9302,0.9302,0.9302,0.9302,0.9249,0.9291,0.9302,0.9302,0.9296,0.9258,0.9258,0.9264,0.9269,0.9258,0.9269,0.9258,0.9275,0.928,0.928,0.9269,0.9258,0.9253,0.9247,0.9247,0.9242,0.9193,0.9103,0.9065,0.9049,0.9122,0.916,0.9054,0.8933,0.8932,0.8965,0.9013,0.903,0.9057,0.9062,0.6481,0.6418,0.6652,0.6686,0.6585,0.6719,0.6719,0.6585,0.6585,0.6451,0.6384,0.6418,0.6187,0.5982,0.4568,0.3157,0.1377,-0.0168,-0.1178,-0.1043,-0.1043,-0.101,-0.1043,-0.1043,-0.101,-0.0943,-0.0976,-0.097,-0.0867,-0.0601,-0.0435,-0.0365,-0.0167,0.0,0.0,0.0,0.0,0.0,0.0,0.0,0.0,0.0,0.0,0.0,0.0,0.0,0.0,0.0,0.0,0.0,0.0,0.0,0.0,0.0,0.0,0.0,0.0,0.0,0.1851,0.2689,0.3959,0.6725,0.6253,0.6652,0.7923,0.7291,0.7142,0.7738,0.8357,0.8032,0.9121,0.9302,0.9302,0.9302,0.9302,0.9302,0.9302,0.9302,0.9302,0.9302,0.9302,0.9302,0.9302,0.9302,0.9302,0.9302,0.9302,0.9302,0.9302,0.9302,0.9302,0.9302,0.9302,0.9302,0.9302,0.9302,0.9302,0.9302,0.9302,0.9302,0.9302,0.9264,0.922,0.9253,0.9258,0.9269,0.9237,0.9119,0.9033,0.8946,0.8872,0.8911,0.8789,0.8645,0.8667,0.6969,0.6518,0.7722,0.7884,0.745,0.7951,0.7817,0.7383,0.7316,0.6982,0.6485,0.6451,0.6518,0.5912,0.3928,0.178,0.0101,-0.0943,-0.1111,-0.101,-0.0976,-0.0875,-0.064,-0.0606,-0.0471,-0.0337,-0.0438,-0.0604,-0.0503,-0.0269,0.0,0.0,0.0,0.0,0.0,0.0,0.0,0.0,0.0,0.0,0.0,0.0,0.0,0.0,0.0,0.0,0.0,0.0,0.0,0.0,0.0,0.0,0.0,0.0,0.0,0.0,0.0,0.1312,0.2656,0.3748,0.5093,0.6725,0.767,0.8285,0.8956,0.8693,0.8452,0.8703,0.9085,0.9013,0.923,0.9302,0.9302,0.9302,0.9302,0.9302,0.9302,0.9302,0.9302,0.9302,0.9302,0.9302,0.9302,0.9302,0.9302,0.9302,0.9302,0.9302,0.9302,0.9302,0.9302,0.9302,0.9302,0.9302,0.9302,0.9302,0.9302,0.9302,0.9302,0.9302,0.9302,0.9302,0.9302,0.9302,0.9302,0.9291,0.9253,0.9163,0.9103,0.9022,0.8921,0.8808,0.8747,0.8715,0.8655,0.7851,0.7622,0.8318,0.8418,0.8184,0.8423,0.8418,0.8084,0.8051,0.7884,0.7617,0.7522,0.7555,0.6815,0.4696,0.2081,0.0034,-0.0741,-0.0673,-0.0572,-0.0505,-0.0438,0.0,0.0,-0.0168,-0.0067,-0.0168,0.0,-0.0236,-0.0101,0.0,0.0,0.0,0.0,0.0,0.0,0.0,0.0,0.0,0.0,0.0,0.0,0.0,0.0,0.0,0.0,0.0,0.0,0.0,0.0,0.0,0.1094,0.1384,0.1858,0.204,0.153,0.1894,0.3057,0.44,0.5601,0.658,0.7996,0.8941,0.923,0.9296,0.9192,0.9242,0.928,0.9302,0.9302,0.9302,0.9302,0.9302,0.9302,0.9302,0.9302,0.9302,0.9302,0.9302,0.9302,0.9302,0.9302,0.9302,0.9302,0.9302,0.9302,0.9302,0.9302,0.9302,0.9302,0.9302,0.9302,0.9302,0.9302,0.9302,0.9302,0.9302,0.9302,0.9302,0.9302,0.9302,0.9302,0.9302,0.9302,0.9302,0.9302,0.9264,0.9179,0.9136,0.9087,0.8952,0.8838,0.8856,0.8823,0.8764,0.8623,0.8623,0.8623,0.8623,0.8623,0.8623,0.859,0.8623,0.859,0.8556,0.8623,0.8556,0.8518,0.7912,0.5867,0.3188,0.0605,0.0404,0.0504,-0.0034,0.0336,0.0404,0.0,0.0,0.0,0.0,0.0,0.0,0.0,0.0,0.0,0.0,0.0,0.0,0.0,0.0,0.0,0.0,0.0,0.0,0.0,0.0,0.0,0.0,0.0,0.0,0.0,0.0,0.0,0.0,0.153,0.2401,0.2947,0.4291,0.4509,0.3673,0.4257,0.5419,0.6471,0.6833,0.7417,0.8904,0.923,0.9302,0.9302,0.9291,0.9291,0.928,0.9296,0.9302,0.9302,0.9302,0.9302,0.9302,0.9302,0.9302,0.9302,0.9302,0.9302,0.9302,0.9302,0.9302,0.9302,0.9302,0.9302,0.9302,0.9302,0.9302,0.9302,0.9302,0.9302,0.9302,0.9302,0.9302,0.9302,0.9302,0.9302,0.9302,0.9302,0.9302,0.9302,0.9302,0.9302,0.9302,0.9302,0.9296,0.9264,0.919,0.913,0.9065,0.8949,0.889,0.8881,0.887,0.8843,0.8623,0.8623,0.8623,0.8623,0.8623,0.8623,0.8623,0.8623,0.8623,0.8623,0.8623,0.859,0.8584,0.8017,0.6878,0.4465,0.2855,0.2486,0.2016,0.0874,0.1244,0.1177,0.0,0.0,0.0,0.0,0.0,0.0,0.0,0.0,0.0,0.0,0.0,0.0,0.0,0.0,0.0,0.0,0.0,0.0,0.0,0.0,0.0,0.0,0.0,0.0,0.0,0.0,0.0,0.1994,0.2256,0.3092,0.4366,0.5891,0.6543,0.6145,0.5673,0.5383,0.6833,0.7272,0.7779,0.9013,0.9302,0.9302,0.9302,0.9296,0.9269,0.9125,0.9206,0.9302,0.9302,0.9302,0.9302,0.9302,0.9302,0.9302,0.9302,0.9302,0.9302,0.9302,0.9302,0.9302,0.9302,0.9302,0.9302,0.9302,0.9302,0.9302,0.9302,0.9302,0.9302,0.9302,0.9302,0.9302,0.9302,0.9302,0.9307,0.9307,0.9307,0.9307,0.9302,0.9302,0.9302,0.9302,0.9302,0.9302,0.9285,0.9237,0.913,0.9087,0.9054,0.8989,0.8919,0.8924,0.8962,0.8623,0.8623,0.8623,0.8623,0.8623,0.8623,0.8623,0.8623,0.8623,0.8623,0.8623,0.859,0.8184,0.7445,0.661,0.5268,0.3624,0.3358,0.3056,0.2284,0.2318,0.2251,0.2518,0.0,0.0,0.1277,0.1076,0.0,0.0,0.0,0.0,0.0,0.0,0.0,0.0,0.0,0.0,0.0,0.0,0.0,0.0,0.0,0.0,0.0,0.0,0.0,0.1011,0.1298,0.2047,0.3413,0.4268,0.5198,0.6181,0.7344,0.8285,0.8249,0.7779,0.7743,0.8249,0.8249,0.8652,0.9013,0.9302,0.9302,0.9302,0.9302,0.9291,0.9242,0.9275,0.9302,0.9302,0.9302,0.9302,0.9302,0.9302,0.9302,0.9302,0.9302,0.9302,0.9302,0.9302,0.9302,0.9302,0.9302,0.9302,0.9302,0.9302,0.9302,0.9302,0.9302,0.9302,0.9302,0.9302,0.9302,0.9302,0.9302,0.9318,0.9323,0.9323,0.9318,0.9307,0.9302,0.9334,0.9323,0.9307,0.9307,0.9302,0.9275,0.9231,0.9209,0.9188,0.9139,0.906,0.9139,0.9171,0.8623,0.8623,0.8623,0.8623,0.8623,0.8623,0.8623,0.8623,0.8623,0.8623,0.8623,0.8584,0.7951,0.7178,0.6978,0.6272,0.483,0.3993,0.3859,0.3892,0.3727,0.3694,0.3792,0.3993,0.3557,0.2653,0.2653,0.2251,0.1579,0.0,0.0,0.0,0.0,0.0,0.0,0.0,0.0,0.0,0.0,0.0,0.0,0.0,0.0,0.0,0.0,0.1068,0.2011,0.2763,0.3612,0.5057,0.604,0.6797,0.7634,0.8466,0.9049,0.9049,0.8832,0.8904,0.9049,0.9121,0.9302,0.9302,0.9302,0.9302,0.9302,0.9302,0.9302,0.9291,0.9296,0.9302,0.9302,0.9302,0.9302,0.9302,0.9302,0.9302,0.9307,0.9329,0.9323,0.9302,0.9302,0.9302,0.9302,0.9302,0.9302,0.9302,0.9302,0.9307,0.9313,0.9323,0.9323,0.9323,0.9318,0.9334,0.9372,0.9362,0.9362,0.9372,0.9372,0.9394,0.9421,0.9416,0.9469,0.94,0.9345,0.9318,0.9323,0.9313,0.9302,0.9269,0.9247,0.9275,0.9275,0.9302,0.9296,0.8623,0.8623,0.8623,0.8623,0.8623,0.8623,0.8623,0.8623,0.8623,0.8623,0.8623,0.8584,0.8518,0.8351,0.8084,0.7479,0.6305,0.7545,0.6406,0.5466,0.5332,0.5232,0.5165,0.4864,0.4495,0.416,0.4127,0.406,0.3825,0.3222,0.2083,0.0,0.0,0.0,0.0,0.0,0.0,0.0,0.0,0.0,0.0,0.0,0.0,0.0,0.1352,0.2221,0.2413,0.3767,0.5208,0.6677,0.7147,0.7743,0.8615,0.9049,0.9302,0.9302,0.9302,0.9302,0.9302,0.9302,0.9302,0.9302,0.9302,0.9313,0.9334,0.9318,0.9307,0.9334,0.9356,0.934,0.9329,0.9307,0.9334,0.9378,0.94,0.9394,0.9394,0.9378,0.9367,0.9318,0.9334,0.9383,0.9389,0.941,0.9329,0.9323,0.9356,0.9362,0.9362,0.9367,0.9362,0.9356,0.9345,0.9378,0.9465,0.9512,0.9523,0.9556,0.9573,0.9605,0.9638,0.9627,0.9573,0.9476,0.9416,0.9378,0.934,0.9318,0.9302,0.9302,0.9302,0.9302,0.9302,0.9302,0.9302,0.8623,0.8623,0.8623,0.8623,0.8623,0.8623,0.8623,0.8623,0.8623,0.8623,0.8623,0.8623,0.8623,0.8623,0.859,0.8351,0.7679,0.7178,0.7007,0.6873,0.6644,0.6644,0.6506,0.664,0.6573,0.58,0.5566,0.4997,0.4261,0.4635,0.4021,0.2746,0.1872,0.0,0.0,0.0,0.0,0.0,0.0,0.0,0.0,0.1025,0.1405,0.1537,0.2965,0.4214,0.5031,0.5682,0.6895,0.7876,0.8256,0.8714,0.9121,0.9266,0.9302,0.9302,0.9302,0.9307,0.9313,0.9307,0.9302,0.9302,0.9307,0.934,0.9405,0.9416,0.9465,0.9481,0.9443,0.9416,0.9508,0.9465,0.9443,0.9497,0.9514,0.9492,0.9476,0.9485,0.9512,0.9459,0.9503,0.9594,0.9552,0.9546,0.9438,0.9345,0.9383,0.9421,0.9427,0.9438,0.9443,0.9432,0.9421,0.9465,0.9589,0.9627,0.9649,0.9682,0.9709,0.9725,0.9731,0.9703,0.9643,0.9546,0.9476,0.941,0.9356,0.9318,0.9302,0.9302,0.9302,0.9302,0.9302,0.9302,0.9302,0.8623,0.8623,0.8623,0.8623,0.8623,0.8623,0.8623,0.8623,0.8623,0.8623,0.8623,0.8623,0.8623,0.8623,0.859,0.859,0.8251,0.7784,0.7917,0.7817,0.7717,0.7784,0.8284,0.8384,0.7779,0.7178,0.7011,0.6473,0.5938,0.5688,0.5393,0.486,0.4043,0.2916,0.1774,0.0869,0.0873,0.1265,0.0877,0.1125,0.1516,0.2401,0.3014,0.3237,0.4574,0.5616,0.6532,0.7193,0.8041,0.8755,0.9115,0.9224,0.9302,0.9302,0.9302,0.9302,0.9307,0.9318,0.9351,0.9356,0.9378,0.9432,0.9438,0.9476,0.9514,0.9514,0.9503,0.9557,0.9519,0.9514,0.9633,0.9519,0.9465,0.9487,0.9525,0.9514,0.9562,0.9551,0.9611,0.9612,0.9682,0.9682,0.9676,0.9622,0.9584,0.9497,0.9514,0.9578,0.9573,0.9546,0.9552,0.9541,0.9556,0.9616,0.9682,0.9654,0.9638,0.9709,0.9736,0.9737,0.9737,0.972,0.9714,0.9643,0.953,0.9438,0.9372,0.9323,0.9307,0.9302,0.9302,0.9302,0.9302,0.9302,0.9302,0.8623,0.8623,0.8623,0.8623,0.8623,0.8623,0.8623,0.8623,0.8623,0.8623,0.8623,0.8623,0.8623,0.8623,0.8623,0.8623,0.859,0.8418,0.8484,0.8418,0.8318,0.8484,0.8551,0.8523,0.8451,0.8556,0.8256,0.8051,0.8133,0.7873,0.7451,0.6958,0.6321,0.5534,0.4488,0.2991,0.3064,0.4056,0.2813,0.3143,0.3793,0.4314,0.461,0.4982,0.6129,0.7193,0.7522,0.8304,0.8935,0.9203,0.9285,0.9302,0.9302,0.9302,0.9307,0.9323,0.9323,0.9372,0.947,0.9481,0.9567,0.9616,0.96,0.959,0.9612,0.9568,0.9508,0.9568,0.9508,0.9443,0.9465,0.9534,0.9476,0.9503,0.9546,0.9563,0.9611,0.9612,0.9671,0.9699,0.9725,0.9714,0.9682,0.9688,0.9731,0.9709,0.9703,0.9693,0.9676,0.9665,0.9628,0.9661,0.9639,0.9688,0.972,0.9612,0.9627,0.9709,0.9753,0.9807,0.9835,0.984,0.9775,0.9714,0.9617,0.9563,0.9438,0.9323,0.9372,0.9416,0.9323,0.9302,0.9302,0.9302,0.9302,0.8623,0.8623,0.8623,0.8623,0.8623,0.8623,0.8623,0.8623,0.8623,0.8623,0.8623,0.8623,0.8623,0.8623,0.8623,0.8623,0.8623,0.8623,0.8623,0.8623,0.8623,0.859,0.8623,0.8623,0.8623,0.8623,0.859,0.8677,0.8647,0.8814,0.8751,0.8308,0.7988,0.6995,0.5273,0.4039,0.4293,0.4512,0.413,0.4193,0.4816,0.5687,0.6248,0.6278,0.7684,0.8354,0.8353,0.9121,0.9266,0.9302,0.9302,0.9302,0.9307,0.9307,0.9345,0.94,0.9432,0.9525,0.9628,0.9671,0.966,0.9676,0.9654,0.9612,0.9676,0.9589,0.9578,0.9557,0.9514,0.9492,0.9616,0.9525,0.9514,0.9627,0.9671,0.9665,0.965,0.9715,0.9769,0.9764,0.9753,0.984,0.9873,0.9829,0.9824,0.9786,0.9764,0.9753,0.9731,0.9677,0.9677,0.9748,0.9775,0.9813,0.9802,0.9699,0.9688,0.9775,0.9867,0.9943,0.996,0.9878,0.9829,0.9769,0.9731,0.965,0.9568,0.9481,0.953,0.9541,0.9443,0.9367,0.9362,0.934,0.9302,0.8623,0.8623,0.8623,0.8623,0.8623,0.8623,0.8623,0.8623,0.8623,0.8623,0.8623,0.8623,0.8623,0.8623,0.8623,0.8623,0.8623,0.8623,0.8623,0.8623,0.8623,0.8623,0.8623,0.8623,0.8623,0.8628,0.8677,0.8732,0.8798,0.889,0.8933,0.9054,0.9228,0.8201,0.6709,0.6065,0.5902,0.6097,0.6123,0.589,0.659,0.7261,0.7765,0.8027,0.8641,0.923,0.9266,0.9302,0.9302,0.9302,0.9302,0.9302,0.9307,0.9356,0.94,0.947,0.959,0.9655,0.9709,0.9764,0.9709,0.9703,0.9584,0.9595,0.9665,0.9589,0.9541,0.9541,0.9514,0.9514,0.9525,0.9465,0.9611,0.9687,0.9693,0.965,0.972,0.9786,0.9791,0.9824,0.9856,0.9954,1.0019,1.0008,0.997,0.9911,0.9851,0.9802,0.9791,0.9726,0.9737,0.9807,0.9786,0.9813,0.9818,0.9802,0.9813,0.9883,0.9938,0.9992,0.991,0.9845,0.9834,0.9813,0.9769,0.9704,0.972,0.9693,0.9693,0.966,0.9589,0.9523,0.9438,0.94,0.9367,0.8623,0.8623,0.8623,0.8623,0.8623,0.8623,0.8623,0.8623,0.8623,0.8623,0.8623,0.8623,0.8623,0.8623,0.8623,0.8623,0.8623,0.8623,0.8623,0.8623,0.8623,0.8623,0.8623,0.8623,0.8639,0.8677,0.8732,0.8803,0.8847,0.8997,0.9177,0.9258,0.9291,0.8848,0.8292,0.7774,0.7688,0.7872,0.7661,0.7639,0.8261,0.8817,0.8904,0.9013,0.9193,0.9302,0.9302,0.9302,0.9302,0.9302,0.9302,0.9307,0.9345,0.9421,0.9465,0.9563,0.9688,0.9737,0.9731,0.9737,0.9715,0.9676,0.9649,0.9682,0.9649,0.9525,0.9476,0.9481,0.947,0.941,0.9372,0.9492,0.9612,0.9671,0.9639,0.9688,0.9775,0.9829,0.9873,0.99,0.9932,0.9987,1.0014,1.0019,1.0019,0.9987,0.9932,0.9921,0.9862,0.9769,0.9791,0.9829,0.9818,0.978,0.9791,0.9856,0.9873,0.9927,0.9911,0.9899,0.985,0.985,0.9867,0.9878,0.9775,0.9731,0.9775,0.9764,0.9764,0.9731,0.9736,0.9665,0.9584,0.9525,0.9487,0.8623,0.8623,0.8623,0.8623,0.8623,0.8623,0.8623,0.8623,0.8623,0.8623,0.8623,0.8623,0.8623,0.8623,0.8623,0.8623,0.8623,0.8623,0.8623,0.8623,0.8623,0.8623,0.859,0.86,0.8672,0.8738,0.8808,0.8907,0.9024,0.9157,0.9253,0.9296,0.9302,0.9302,0.9157,0.8832,0.9013,0.9013,0.8652,0.8868,0.9121,0.9302,0.9302,0.9302,0.9302,0.9302,0.9302,0.9302,0.9302,0.9302,0.9307,0.9329,0.9443,0.9481,0.9525,0.9688,0.9769,0.9775,0.9737,0.9661,0.9584,0.9583,0.9523,0.9476,0.947,0.9465,0.9394,0.9438,0.9487,0.9459,0.9465,0.9594,0.9644,0.9671,0.9682,0.9726,0.9807,0.9862,0.9894,0.9883,0.9921,0.9937,1.0003,1.0019,1.0019,0.997,0.9964,0.9998,0.9965,0.9829,0.9802,0.9878,0.9878,0.9851,0.99,0.9965,0.9954,0.9949,0.9938,0.9905,0.9915,0.9921,0.9965,0.9932,0.9873,0.9883,0.9932,0.99,0.9845,0.99,0.9905,0.9813,0.9764,0.9661,0.9617,0.8623,0.8623,0.8623,0.8623,0.8623,0.8623,0.8623,0.8623,0.8623,0.8623,0.8623,0.8623,0.8623,0.8623,0.8623,0.8623,0.8623,0.8623,0.8623,0.8623,0.8623,0.8623,0.859,0.8638,0.8738,0.8808,0.8878,0.9003,0.9144,0.9242,0.9302,0.9302,0.9302,0.9302,0.9266,0.9193,0.923,0.9266,0.9266,0.9302,0.9302,0.9302,0.9302,0.9302,0.9302,0.9302,0.9302,0.9302,0.9302,0.9318,0.9329,0.9405,0.9514,0.9568,0.965,0.978,0.9791,0.9726,0.9639,0.9574,0.9508,0.947,0.9421,0.947,0.9487,0.9492,0.9476,0.9492,0.953,0.9568,0.9633,0.966,0.9682,0.9731,0.9748,0.9764,0.9824,0.9883,0.9878,0.9851,0.9889,0.9915,0.9948,1.0008,1.0019,1.0014,1.0014,1.0014,0.9998,0.991,0.9883,0.9915,0.9921,0.9894,0.9953,1.0019,0.9998,0.9981,0.9987,0.9998,1.0019,1.0019,0.9964,1.0003,1.0003,1.0019,1.003,1.0008,0.9981,1.0036,1.0047,0.996,0.9862,0.9786,0.9753,0.8623,0.8623,0.8623,0.8623,0.8623,0.8623,0.8623,0.8623,0.8623,0.8623,0.8623,0.8623,0.8623,0.8623,0.8623,0.8623,0.8623,0.8623,0.8623,0.8623,0.8623,0.8628,0.8688,0.8743,0.8819,0.8872,0.8976,0.9065,0.916,0.9247,0.9302,0.9302,0.9302,0.9302,0.9302,0.9302,0.9302,0.9302,0.9302,0.9302,0.9302,0.9302,0.9302,0.9302,0.9302,0.9302,0.9302,0.9302,0.9302,0.934,0.94,0.9476,0.9601,0.9693,0.9758,0.9753,0.9748,0.9645,0.959,0.9508,0.9497,0.9492,0.9534,0.9568,0.9595,0.9563,0.9552,0.9584,0.9633,0.9671,0.9699,0.9753,0.9807,0.984,0.9862,0.9883,0.9921,0.996,0.9949,0.9932,0.9943,0.9998,0.9998,1.0019,1.0019,1.0019,1.0019,1.0019,1.0008,0.9948,0.9948,0.9953,0.9948,0.9943,0.9959,1.0019,1.0019,1.0014,1.0025,1.0019,1.0019,1.003,1.0002,1.0074,1.0112,1.0101,1.0101,1.0112,1.0128,1.0123,1.0123,1.0079,1.0014,0.9954,0.9894,0.8623,0.8623,0.8623,0.8623,0.8623,0.8623,0.8623,0.8623,0.8623,0.8623,0.8623,0.8623,0.8623,0.8623,0.8623,0.8623,0.8623,0.8623,0.8623,0.8623,0.8623,0.8672,0.8709,0.8798,0.8872,0.9014,0.9087,0.9147,0.9242,0.9285,0.9302,0.9302,0.9302,0.9302,0.9302,0.9302,0.9302,0.9302,0.9302,0.9302,0.9302,0.9302,0.9302,0.9302,0.9302,0.9302,0.9302,0.9302,0.9302,0.9323,0.9427,0.9568,0.9748,0.9769,0.9791,0.9775,0.9639,0.9574,0.9525,0.9492,0.9497,0.9536,0.9616,0.9682,0.9715,0.9661,0.9655,0.9736,0.9737,0.9775,0.9813,0.9873,0.9921,0.9949,0.9965,0.9992,1.0019,1.0019,1.0019,1.0019,1.0019,1.0019,1.0019,1.0019,1.0019,1.0019,1.0019,1.0019,1.0019,1.0008,1.0003,1.0008,1.0008,1.0008,1.0019,1.0019,1.0019,1.003,1.0041,1.003,1.0036,1.0095,1.0161,1.0199,1.0226,1.0215,1.0237,1.0297,1.0297,1.0253,1.0237,1.0215,1.0237,1.0204,1.0112,0.8623,0.8623,0.8623,0.8623,0.8623,0.8623,0.8623,0.8623,0.8623,0.8623,0.8623,0.8623,0.8623,0.8623,0.8623,0.8623,0.8623,0.8623,0.8623,0.8623,0.8639,0.8699,0.877,0.8829,0.8959,0.9065,0.9152,0.9217,0.9296,0.9302,0.9302,0.9302,0.9302,0.9302,0.9302,0.9302,0.9302,0.9302,0.9302,0.9302,0.9302,0.9302,0.9302,0.9302,0.9302,0.9302,0.9302,0.9307,0.934,0.94,0.9551,0.9644,0.9758,0.9775,0.9726,0.9661,0.9568,0.9487,0.9487,0.9503,0.9541,0.9617,0.9682,0.9758,0.985,0.9851,0.9845,0.9883,0.9889,0.9883,0.9883,0.9965,0.9976,0.9992,0.9998,1.0008,1.0019,1.0019,1.0019,1.0019,1.0019,1.0019,1.0019,1.0019,1.0019,1.0019,1.0019,1.0019,1.0019,1.0019,1.0019,1.003,1.0036,1.0025,1.0019,1.0019,1.0019,1.0036,1.0079,1.0139,1.0193,1.0242,1.0297,1.0313,1.0329,1.034,1.0408,1.0416,1.0394,1.0335,1.0346,1.0397,1.0435,1.0411,1.0318,0.8623,0.8623,0.8623,0.8623,0.8623,0.8623,0.8623,0.8623,0.8623,0.8623,0.8623,0.8623,0.8623,0.8623,0.8623,0.8623,0.8623,0.8623,0.8623,0.8628,0.8617,0.8715,0.8823,0.8927,0.9022,0.9119,0.9206,0.9275,0.9302,0.9302,0.9302,0.9302,0.9302,0.9302,0.9302,0.9302,0.9302,0.9302,0.9302,0.9302,0.9302,0.9302,0.9302,0.9302,0.9302,0.9302,0.9302,0.934,0.9394,0.9476,0.9616,0.9682,0.9715,0.9699,0.9612,0.9578,0.9519,0.9487,0.9497,0.9546,0.9655,0.9726,0.9791,0.9861,0.9953,0.997,1.0003,1.0003,0.997,0.9975,0.9975,0.9975,1.0014,1.0019,1.0019,1.0019,1.0019,1.0019,1.0019,1.0019,1.0019,1.0019,1.0019,1.0019,1.0019,1.0019,1.0019,1.0019,1.0019,1.0019,1.0019,1.0047,1.0068,1.0057,1.0052,1.0063,1.0079,1.015,1.021,1.0286,1.0346,1.0378,1.04,1.0416,1.0427,1.0471,1.0476,1.0509,1.0465,1.0443,1.0487,1.052,1.0509,1.052,1.0481,0.8623,0.8623,0.8623,0.8623,0.8623,0.8623,0.8623,0.8623,0.8623,0.8623,0.8623,0.8623,0.8623,0.8623,0.8623,0.8623,0.8623,0.8623,0.8623,0.8628,0.8671,0.8791,0.8916,0.8995,0.916,0.9237,0.9285,0.9296,0.9302,0.9302,0.9302,0.9302,0.9302,0.9302,0.9302,0.9302,0.9302,0.9302,0.9302,0.9302,0.9302,0.9302,0.9302,0.9302,0.9302,0.9302,0.9323,0.9405,0.9454,0.9519,0.9627,0.9655,0.9644,0.9595,0.9519,0.9545,0.9487,0.9519,0.9546,0.965,0.9748,0.9802,0.9861,0.9926,1.0014,1.0014,1.0014,1.0014,1.0014,1.0014,1.0014,1.0014,1.0019,1.0019,1.0019,1.0019,1.0019,1.0019,1.0019,1.0019,1.0019,1.0019,1.0019,1.0019,1.0019,1.0019,1.0019,1.0019,1.0025,1.0019,1.003,1.0074,1.0073,1.0144,1.0172,1.0177,1.0199,1.0269,1.0335,1.0394,1.0443,1.0528,1.0549,1.0525,1.059,1.0645,1.0603,1.0554,1.0582,1.0617,1.0661,1.0683,1.0614,1.0587,1.059]},{"header":{"parameterUnit":"m.s-1","parameterCategory":1,"la1":31.0,"la2":29.5877,"lo1":-88.7671,"lo2":-86.6584,"dx":0.0162,"dy":0.0185,"nx":115,"ny":88,"refTime":"2023-02-01T06:00:00:Z","depth":0,"parameterNumber":3,"parameterNumberName":"V-component_of_WINDS"},"data":[0.0,0.0,0.0,0.0,0.0,0.0,0.0,0.0,0.0,0.0,0.0,0.0,0.0,0.0,0.0,0.0,0.0,0.0,0.0,0.0,0.0,0.0,0.0,0.0,0.0,0.0,0.0,0.0,0.0,0.0,0.0,0.0,0.0,0.0,0.0,0.0,0.0,0.0,0.0,0.0,0.0,0.0,0.0,0.0,0.0,0.0,0.0,0.0,0.0,0.0,0.0,0.0,0.0,0.0,0.0,0.0,0.0,0.0,0.0,0.0,0.0,0.0,0.0,0.0,0.0,0.0,0.0,0.0,0.0,0.0,0.0,0.0,0.0,0.0,0.0,0.0,0.0,0.0,0.0,0.0,0.0,0.0,0.0,0.0,0.0,0.0,0.0,0.0,0.0,0.0,0.0,0.0,0.0,0.0,0.0,0.0,0.0,0.0,0.0,0.0,0.0,0.0,0.0,0.0,0.0,0.0,0.0,0.0,0.0,0.0,0.0,0.0,0.0,0.0,0.0,0.0,0.0,0.0,0.0,0.0,0.0,0.0,0.0,0.0,0.0,0.0,0.0,0.0,0.0,0.0,0.0,0.0,0.0,0.0,0.0,0.0,0.0,0.0,0.0,0.0,0.0,0.0,0.0,0.0,0.0,0.0,0.0,0.0,0.0,0.0,0.0,0.0,0.0,0.0,0.0,0.0,0.0,0.0,0.0,0.0,0.0,0.0,0.0,0.0,0.0,0.0,0.0,0.0,0.0,0.0,0.0,0.0,0.0,0.0,0.0,0.0,0.0,0.0,0.0,0.0,0.0,0.0,0.0,0.0,0.0,0.0,0.0,0.0,0.0,0.0,0.0,0.0,0.0,0.0,0.0,0.0,0.0,0.0,0.0,0.0,0.0,0.0,0.0,0.0,0.0,0.0,0.0,0.0,0.0,0.0,0.0,0.0,0.0,0.0,0.0,0.0,0.0,0.0,0.0,0.0,0.0,0.0,0.0,0.0,0.0,0.0,0.0,0.0,0.0,0.0,0.0,0.0,0.0,0.0,0.0,0.0,0.0,0.0,0.0,0.0,0.0,0.0,0.0,0.0,0.0,0.0,0.0,0.0,0.0,0.0,0.0,0.0,0.0,0.0,0.0,0.0,0.0,0.0,0.0,0.0,0.0,0.0,0.0,0.0,0.0,0.0,0.0,0.0,0.0,0.0,0.0,0.0,0.0,0.0,0.0,0.0,0.0,0.0,0.0,0.0,0.0,0.0,0.0,0.0,0.0,0.0,0.0,0.0,0.0,0.0,0.0,0.0,0.0,0.0,0.0,0.0,0.0,0.0,0.0,0.0,0.0,0.0,0.0,0.0,0.0,0.0,0.0,0.0,0.0,0.0,0.0,0.0,0.0,0.0,0.0,0.0,0.0,0.0,0.0,0.0,0.0,0.0,0.0,0.0,0.0,0.0,0.0,0.0,0.0,0.0,0.0,0.0,0.0,0.0,0.0,0.0,0.0,0.0,0.0,0.0,0.0,0.0,0.0,0.0,0.0,0.0,0.0,0.0,0.0,0.0,0.0,0.0,0.0,0.0,0.0,0.0,0.0,0.0,0.0,0.0,0.0,0.0,0.0,0.0,0.0,0.0,0.0,0.0,0.0,0.0,0.0,0.0,0.0,0.0,0.0,0.0,0.0,0.0,0.0,0.0,0.0,0.0,0.0,0.0,0.0,0.0,0.0,0.0,0.0,0.0,0.0,0.0,0.0,0.0,0.0,0.0,0.0,0.0,0.0,0.0,0.0,0.0,0.0,0.0,0.0,0.0,0.0,0.0,0.0,0.0,0.0,0.0,0.0,0.0,0.0,0.0,0.0,0.0,0.0,0.0,0.0,0.0,0.0,0.0,0.0,0.0,0.0,0.0,0.0,0.0,0.0,0.0,0.0,0.0,0.0,0.0,0.0,0.0,0.0,0.0,0.0,0.0,0.0,0.0,0.0,0.0,0.0,0.0,0.0,0.0,0.0,0.0,0.0,0.0,0.0,0.0,0.0,0.0,0.0,0.0,0.0,0.0,0.0,0.0,0.0,0.0,0.0,0.0,0.0,0.0,0.0,0.0,0.0,0.0,0.0,0.0,0.0,0.0,0.0,0.0,0.0,0.0,0.0,0.0,0.0,0.0,0.0,0.0,0.0,0.0,0.0,0.0,0.0,0.0,0.0,0.0,0.0,0.0,0.0,0.0,0.0,0.0,0.0,0.0,0.0,0.0,0.0,0.0,0.0,0.0,0.0,0.0,0.0,0.0,0.0,0.0,0.0,0.0,0.0,0.0,0.0,0.0,0.0,0.0,0.0,0.0,0.0,0.0,0.0,0.0,0.0,0.0,0.0,0.0,0.0,0.0,0.0,0.0,0.0,0.0,0.0,0.0,0.0,0.0,0.0,0.0,0.0,0.0,0.0,0.0,0.0,0.0,0.0,0.0,0.0,0.0,0.0,0.0,0.0,0.0,0.0,0.0,0.0,0.0,0.0,0.0,0.0,0.0,0.0,0.0,0.0,0.0,0.0,0.0,0.0,0.0,0.0,0.0,0.0,0.0,0.0,0.0,0.0,0.0,0.0,0.0,0.0,0.0,0.0,0.0,0.0,0.0,0.0,0.0,0.0,0.0,0.0,0.0,0.0,0.0,0.0,0.0,0.0,0.0,0.0,0.0,0.0,0.0,0.0,0.0,0.0,0.0,0.0,0.0,0.0,0.0,0.0,0.0,0.0,0.0,0.0,0.0,0.0,0.0,0.0,0.0,0.0,0.0,0.0,0.0,0.0,0.0,0.0,0.0,0.0,0.0,0.0,0.0,0.0,0.0,0.0,0.0,0.0,0.0,0.0,0.0,0.0,0.0,0.0,0.0,0.0,0.0,0.0,0.0,0.0,0.0,0.0,0.0,0.0,0.0,0.0,0.0,0.0,0.0,0.0,0.0,0.0,0.0,0.0,0.0,0.0,0.0,0.0,0.0,0.0,0.0,0.0,0.0,0.0,0.0,0.0,0.0,0.0,0.0,0.0,0.0,0.0,0.0,0.0,0.0,0.0,0.0,0.0,0.0,0.0,0.0,0.0,0.0,0.0,0.0,0.0,0.0,0.0,0.0,0.0,0.0,0.0,0.0,0.0,0.0,0.0,0.0,0.0,0.0,0.0,0.0,0.0,0.0,0.0,0.0,0.0,0.0,0.0,0.0,0.0,0.0,0.0,0.0,0.0,0.0,0.0,0.0,0.0,0.0,0.0,0.0,0.0,0.0,0.0,0.0,0.0,0.0,0.0,0.0,0.0,0.0,0.0,0.0,0.0,0.0,0.0,0.0,0.0,0.0,0.0,0.0,0.0,0.0,0.0,0.0,0.0,0.0,0.0,0.0,0.0,0.0,0.0,0.0,0.0,0.0,0.0,0.0,0.0,0.0,0.0,0.0,0.0,0.0,0.0,0.0,0.0,0.0,0.0,0.0,0.0,0.0,0.0,0.0,0.0,0.0,0.0,0.0,0.0,0.0,0.0,0.0,0.0,0.0,0.0,0.0,0.0,0.0,0.0,0.0,0.0,0.0,0.0,0.0,0.0,0.0,0.0,0.0,0.0,0.0,0.0,0.0,0.0,0.0,0.0,0.0,0.0,0.0,0.0,0.0,0.0,0.0,0.0,0.0,0.0,0.0,0.0,0.0,0.0,0.0,0.0,0.0,0.0,0.0,0.0,0.0,0.0,0.0,0.0,0.0,0.0,0.0,0.0,0.0,0.0,0.0,0.0,0.0,0.0,0.0,0.0,0.0,0.0,0.0,0.0,0.0,0.0,0.0,0.0,0.0,0.0,0.0,0.0,0.0,0.0,0.0,0.0,0.0,0.0,0.0,0.0,0.0,0.0,0.0,0.0,0.0,0.0,0.0,0.0,0.0,0.0,0.0,0.0,0.0,0.0,0.0,0.0,0.0,0.0,0.0,0.0,0.0,0.0,0.0,0.0,0.0,0.0,0.0,0.0,0.0,0.0,0.0,0.0,0.0,0.0,0.0,0.0,0.0,0.0,0.0,0.0,0.0,0.0,0.0,0.0,0.0,0.0,0.0,0.0,0.0,0.0,0.0,0.0,0.0,0.0,0.0,0.0,0.0,0.0,0.0,0.0,0.0,0.0,0.0,0.0,0.0,0.0,0.0,0.0,0.0,0.0,0.0,0.0,0.0,0.0,0.0,0.0,0.0,0.0,0.0,0.0,0.0,0.0,0.0,0.0,0.0,0.0,0.0,0.0,0.0,0.0,0.0,2.8447,0.0,0.0,0.0,0.0,0.0,0.0,0.0,0.0,0.0,0.0,0.0,0.0,0.0,0.0,0.0,0.0,0.0,0.0,0.0,0.0,0.0,0.0,0.0,0.0,0.0,0.0,0.0,0.0,0.0,0.0,0.0,0.0,0.0,0.0,0.0,0.0,0.0,0.0,0.0,0.0,0.0,0.0,0.0,0.0,0.0,0.0,0.0,0.0,0.0,0.0,0.0,0.0,0.0,0.0,0.0,0.0,0.0,0.0,0.0,0.0,0.0,0.0,0.0,0.0,0.0,0.0,0.0,0.0,0.0,0.0,0.0,0.0,0.0,0.0,0.0,0.0,0.0,0.0,0.0,0.0,0.0,0.0,0.0,0.0,0.0,0.0,0.0,0.0,0.0,0.0,0.0,0.0,0.0,0.0,0.0,0.0,0.0,0.0,0.0,0.0,0.0,0.0,0.0,0.0,0.0,0.0,0.0,0.0,0.0,0.0,2.7822,2.8023,2.8142,2.8351,2.8586,0.0,0.0,0.0,0.0,0.0,0.0,0.0,0.0,0.0,0.0,0.0,0.0,0.0,0.0,0.0,0.0,0.0,0.0,0.0,0.0,0.0,0.0,0.0,0.0,0.0,0.0,0.0,0.0,0.0,0.0,0.0,0.0,0.0,0.0,0.0,0.0,0.0,0.0,0.0,0.0,0.0,0.0,0.0,0.0,0.0,0.0,0.0,0.0,0.0,0.0,0.0,0.0,0.0,0.0,0.0,0.0,0.0,0.0,0.0,0.0,0.0,0.0,0.0,0.0,0.0,0.0,0.0,0.0,0.0,0.0,0.0,0.0,0.0,0.0,0.0,0.0,0.0,0.0,0.0,0.0,0.0,0.0,0.0,0.0,0.0,0.0,0.0,0.0,0.0,0.0,0.0,0.0,0.0,0.0,0.0,0.0,0.0,0.0,0.0,0.0,0.0,0.0,0.0,0.0,0.0,0.0,0.0,0.0,0.0,0.0,0.0,0.0,2.8534,2.8768,2.8981,0.0,0.0,0.0,0.0,0.0,0.0,0.0,0.0,0.0,0.0,0.0,0.0,0.0,0.0,0.0,0.0,0.0,0.0,0.0,0.0,0.0,0.0,0.0,0.0,0.0,0.0,0.0,0.0,0.0,0.0,0.0,0.0,0.0,0.0,0.0,0.0,0.0,0.0,0.0,0.0,0.0,0.0,0.0,0.0,0.0,0.0,0.0,0.0,0.0,0.0,0.0,0.0,0.0,0.0,0.0,0.0,0.0,0.0,0.0,0.0,0.0,0.0,0.0,0.0,0.0,0.0,0.0,0.0,0.0,0.0,0.0,0.0,0.0,0.0,0.0,0.0,0.0,0.0,0.0,0.0,0.0,0.0,0.0,0.0,0.0,0.0,0.0,0.0,0.0,0.0,0.0,0.0,0.0,0.0,0.0,0.0,0.0,0.0,0.0,0.0,0.0,0.0,0.0,0.0,0.0,0.0,0.0,0.0,0.0,0.0,3.0062,3.0238,3.0259,0.0,3.078,0.0,0.0,0.0,0.0,0.0,0.0,0.0,0.0,0.0,0.0,0.0,0.0,0.0,0.0,0.0,0.0,0.0,0.0,0.0,0.0,0.0,0.0,0.0,0.0,0.0,0.0,0.0,0.0,0.0,0.0,0.0,0.0,0.0,0.0,0.0,0.0,0.0,0.0,0.0,0.0,0.0,0.0,0.0,0.0,0.0,0.0,0.0,0.0,0.0,0.0,0.0,0.0,0.0,0.0,0.0,0.0,0.0,0.0,0.0,0.0,0.0,0.0,0.0,0.0,0.0,0.0,0.0,0.0,0.0,0.0,0.0,0.0,0.0,0.0,0.0,0.0,0.0,0.0,0.0,0.0,0.0,0.0,0.0,0.0,0.0,0.0,0.0,0.0,0.0,0.0,0.0,0.0,0.0,0.0,0.0,0.0,0.0,0.0,0.0,0.0,0.0,0.0,0.0,0.0,0.0,0.0,0.0,0.0,0.0,0.0,2.9881,3.0065,3.0353,3.0654,0.0,0.0,0.0,0.0,0.0,0.0,0.0,0.0,0.0,0.0,0.0,0.0,0.0,0.0,0.0,0.0,0.0,0.0,0.0,0.0,0.0,0.0,0.0,0.0,0.0,0.0,0.0,0.0,0.0,0.0,0.0,0.0,0.0,0.0,0.0,0.0,0.0,0.0,0.0,0.0,0.0,0.0,0.0,0.0,0.0,0.0,0.0,0.0,0.0,0.0,0.0,0.0,0.0,0.0,0.0,0.0,0.0,0.0,0.0,0.0,0.0,0.0,0.0,0.0,0.0,0.0,0.0,0.0,0.0,0.0,0.0,0.0,0.0,0.0,0.0,0.0,0.0,0.0,0.0,0.0,0.0,0.0,0.0,0.0,0.0,0.0,0.0,0.0,0.0,0.0,0.0,0.0,0.0,0.0,0.0,0.0,0.0,0.0,0.0,0.0,0.0,0.0,0.0,0.0,0.0,0.0,0.0,0.0,0.0,0.0,2.9481,2.9694,2.9979,3.0321,3.0624,3.0888,0.0,0.0,0.0,0.0,0.0,0.0,0.0,0.0,0.0,0.0,0.0,0.0,0.0,0.0,0.0,0.0,0.0,0.0,0.0,0.0,0.0,0.0,0.0,0.0,0.0,0.0,0.0,0.0,0.0,0.0,0.0,0.0,0.0,0.0,0.0,0.0,0.0,0.0,0.0,0.0,0.0,0.0,0.0,0.0,0.0,0.0,0.0,0.0,0.0,0.0,0.0,0.0,0.0,0.0,0.0,0.0,0.0,0.0,0.0,0.0,0.0,0.0,0.0,0.0,0.0,0.0,0.0,0.0,0.0,0.0,0.0,0.0,0.0,0.0,0.0,0.0,0.0,0.0,0.0,0.0,0.0,0.0,0.0,0.0,0.0,0.0,0.0,0.0,0.0,0.0,0.0,0.0,0.0,0.0,0.0,0.0,0.0,0.0,0.0,0.0,0.0,0.0,0.0,0.0,0.0,0.0,0.0,0.0,2.9728,2.9761,2.9989,3.0437,3.0489,3.0562,0.0,0.0,0.0,0.0,0.0,0.0,0.0,0.0,0.0,0.0,0.0,0.0,0.0,0.0,0.0,0.0,0.0,0.0,0.0,0.0,0.0,0.0,0.0,0.0,0.0,0.0,0.0,0.0,0.0,0.0,0.0,0.0,0.0,0.0,0.0,0.0,0.0,0.0,0.0,0.0,0.0,0.0,0.0,0.0,0.0,0.0,0.0,0.0,0.0,0.0,0.0,0.0,0.0,0.0,0.0,0.0,0.0,0.0,0.0,0.0,0.0,0.0,0.0,0.0,0.0,0.0,0.0,0.0,0.0,0.0,0.0,0.0,0.0,0.0,0.0,0.0,0.0,0.0,0.0,0.0,0.0,0.0,0.0,0.0,0.0,0.0,0.0,0.0,0.0,0.0,0.0,0.0,0.0,0.0,0.0,0.0,0.0,0.0,0.0,0.0,0.0,0.0,0.0,0.0,0.0,0.0,0.0,0.0,0.0,2.9357,2.966,2.9968,3.0289,3.0416,3.0551,0.0,0.0,0.0,0.0,0.0,0.0,0.0,0.0,0.0,0.0,0.0,0.0,0.0,0.0,0.0,0.0,0.0,0.0,0.0,0.0,0.0,0.0,0.0,0.0,0.0,0.0,0.0,0.0,0.0,0.0,0.0,0.0,0.0,0.0,0.0,0.0,0.0,0.0,0.0,0.0,0.0,0.0,0.0,0.0,0.0,0.0,0.0,0.0,0.0,0.0,0.0,0.0,0.0,0.0,0.0,0.0,0.0,0.0,0.0,0.0,0.0,0.0,0.0,0.0,0.0,0.0,0.0,0.0,0.0,0.0,0.0,0.0,0.0,0.0,0.0,0.0,0.0,0.0,0.0,0.0,0.0,0.0,0.0,0.0,0.0,0.0,0.0,0.0,0.0,0.0,0.0,0.0,0.0,0.0,0.0,0.0,0.0,0.0,0.0,0.0,0.0,0.0,0.0,0.0,0.0,0.0,0.0,0.0,0.0,2.9448,0.0,3.0119,3.0268,3.0416,3.0551,0.0,0.0,0.0,0.0,0.0,0.0,0.0,0.0,0.0,0.0,0.0,0.0,0.0,0.0,0.0,0.0,0.0,0.0,0.0,0.0,0.0,0.0,0.0,0.0,0.0,0.0,0.0,0.0,0.0,0.0,0.0,0.0,0.0,0.0,0.0,0.0,0.0,0.0,0.0,0.0,0.0,0.0,0.0,0.0,0.0,0.0,0.0,0.0,0.0,0.0,0.0,0.0,0.0,0.0,0.0,0.0,0.0,0.0,0.0,0.0,0.0,0.0,0.0,0.0,0.0,0.0,0.0,0.0,0.0,0.0,0.0,0.0,0.0,0.0,0.0,0.0,0.0,0.0,0.0,0.0,0.0,0.0,0.0,0.0,0.0,0.0,0.0,0.0,0.0,0.0,0.0,0.0,0.0,0.0,0.0,0.0,0.0,0.0,0.0,0.0,0.0,0.0,0.0,0.0,0.0,0.0,0.0,0.0,2.9946,3.0194,3.0386,3.0458,3.0489,3.0522,3.0551,0.0,0.0,0.0,0.0,0.0,0.0,0.0,0.0,0.0,0.0,0.0,0.0,0.0,0.0,0.0,0.0,0.0,0.0,0.0,0.0,0.0,0.0,0.0,0.0,0.0,0.0,0.0,0.0,0.0,0.0,0.0,0.0,0.0,0.0,0.0,0.0,0.0,0.0,0.0,0.0,0.0,0.0,0.0,0.0,0.0,0.0,0.0,0.0,0.0,0.0,0.0,0.0,0.0,0.0,0.0,0.0,0.0,0.0,0.0,0.0,0.0,0.0,0.0,0.0,0.0,0.0,0.0,0.0,0.0,0.0,0.0,0.0,0.0,0.0,0.0,0.0,0.0,0.0,0.0,0.0,0.0,0.0,0.0,0.0,0.0,0.0,0.0,0.0,0.0,0.0,0.0,0.0,0.0,0.0,0.0,0.0,0.0,0.0,0.0,0.0,0.0,0.0,0.0,0.0,0.0,0.0,0.0,0.0,0.0,3.0216,3.0236,3.0428,3.0636,3.0574,3.0624,0.0,0.0,0.0,0.0,0.0,0.0,0.0,0.0,0.0,0.0,0.0,0.0,0.0,0.0,0.0,0.0,0.0,0.0,0.0,0.0,0.0,0.0,0.0,0.0,0.0,0.0,0.0,0.0,0.0,0.0,0.0,0.0,0.0,0.0,0.0,0.0,0.0,0.0,0.0,0.0,0.0,0.0,0.0,0.0,0.0,0.0,0.0,0.0,0.0,0.0,0.0,0.0,0.0,0.0,0.0,0.0,0.0,0.0,0.0,0.0,0.0,0.0,0.0,0.0,0.0,0.0,0.0,0.0,0.0,0.0,0.0,0.0,0.0,0.0,0.0,0.0,0.0,0.0,0.0,0.0,0.0,0.0,0.0,0.0,0.0,0.0,0.0,0.0,0.0,0.0,0.0,0.0,0.0,0.0,0.0,0.0,0.0,0.0,0.0,0.0,0.0,0.0,0.0,0.0,0.0,0.0,0.0,0.0,0.0,3.1483,3.0712,3.0395,3.0603,3.0605,3.0654,3.0892,0.0,0.0,0.0,0.0,0.0,0.0,0.0,0.0,0.0,0.0,0.0,0.0,0.0,0.0,0.0,0.0,0.0,0.0,0.0,0.0,0.0,0.0,0.0,0.0,0.0,0.0,0.0,0.0,0.0,0.0,0.0,0.0,0.0,0.0,0.0,0.0,0.0,0.0,0.0,0.0,0.0,0.0,0.0,0.0,0.0,0.0,0.0,0.0,0.0,0.0,0.0,0.0,0.0,0.0,0.0,0.0,0.0,0.0,0.0,0.0,0.0,0.0,0.0,0.0,0.0,0.0,0.0,0.0,0.0,0.0,0.0,0.0,0.0,0.0,0.0,0.0,0.0,0.0,0.0,0.0,0.0,0.0,0.0,0.0,0.0,0.0,0.0,0.0,0.0,0.0,0.0,0.0,0.0,0.0,0.0,0.0,0.0,0.0,0.0,0.0,0.0,0.0,0.0,0.0,0.0,0.0,0.0,0.0,3.3689,3.1693,3.0686,3.0696,3.0767,3.0806,0.0,0.0,0.0,0.0,0.0,0.0,0.0,0.0,0.0,0.0,0.0,0.0,0.0,0.0,0.0,0.0,0.0,0.0,0.0,0.0,0.0,0.0,0.0,0.0,0.0,0.0,0.0,0.0,0.0,0.0,0.0,0.0,0.0,0.0,0.0,0.0,0.0,0.0,0.0,0.0,0.0,0.0,0.0,0.0,0.0,0.0,0.0,0.0,0.0,0.0,0.0,0.0,0.0,0.0,0.0,0.0,0.0,0.0,0.0,0.0,0.0,0.0,0.0,0.0,0.0,0.0,0.0,0.0,0.0,0.0,0.0,0.0,0.0,0.0,0.0,0.0,0.0,0.0,0.0,0.0,0.0,0.0,0.0,0.0,0.0,0.0,0.0,0.0,0.0,0.0,0.0,0.0,0.0,0.0,0.0,0.0,0.0,0.0,0.0,0.0,0.0,0.0,0.0,0.0,0.0,0.0,0.0,0.0,0.0,3.3614,3.2868,3.2491,3.2555,3.1966,3.1995,0.0,0.0,0.0,0.0,0.0,0.0,0.0,0.0,0.0,0.0,0.0,0.0,0.0,0.0,0.0,0.0,0.0,0.0,0.0,0.0,0.0,0.0,0.0,0.0,0.0,0.0,0.0,0.0,0.0,0.0,0.0,0.0,0.0,0.0,0.0,0.0,0.0,0.0,0.0,0.0,0.0,0.0,0.0,0.0,0.0,0.0,0.0,0.0,0.0,0.0,0.0,0.0,0.0,0.0,0.0,0.0,0.0,0.0,0.0,0.0,0.0,0.0,0.0,0.0,0.0,0.0,0.0,0.0,0.0,0.0,0.0,0.0,0.0,0.0,0.0,0.0,0.0,0.0,0.0,0.0,0.0,0.0,0.0,0.0,0.0,0.0,0.0,0.0,0.0,0.0,0.0,0.0,0.0,0.0,0.0,0.0,0.0,0.0,0.0,0.0,0.0,0.0,0.0,0.0,0.0,0.0,0.0,0.0,3.4432,3.5035,3.4674,3.4498,3.4585,3.3426,3.296,0.0,0.0,0.0,0.0,0.0,0.0,0.0,0.0,0.0,0.0,0.0,0.0,0.0,0.0,0.0,0.0,0.0,0.0,0.0,0.0,0.0,0.0,0.0,0.0,0.0,0.0,0.0,0.0,0.0,0.0,0.0,0.0,0.0,0.0,0.0,0.0,0.0,0.0,0.0,0.0,0.0,0.0,0.0,0.0,0.0,0.0,0.0,0.0,0.0,0.0,0.0,0.0,0.0,0.0,0.0,0.0,0.0,0.0,0.0,0.0,0.0,0.0,0.0,0.0,0.0,0.0,0.0,0.0,0.0,0.0,0.0,0.0,0.0,0.0,0.0,0.0,0.0,0.0,0.0,0.0,0.0,0.0,0.0,0.0,0.0,0.0,0.0,0.0,0.0,0.0,0.0,0.0,0.0,0.0,0.0,0.0,0.0,0.0,0.0,0.0,0.0,0.0,0.0,0.0,0.0,0.0,0.0,0.0,3.6133,3.6923,3.6584,3.6357,3.6312,3.4863,3.3908,0.0,0.0,0.0,0.0,0.0,0.0,0.0,0.0,0.0,0.0,0.0,0.0,0.0,0.0,0.0,0.0,0.0,0.0,0.0,0.0,0.0,0.0,0.0,0.0,0.0,0.0,0.0,0.0,0.0,0.0,0.0,0.0,0.0,0.0,0.0,0.0,0.0,0.0,0.0,0.0,0.0,0.0,0.0,0.0,0.0,0.0,0.0,0.0,0.0,0.0,0.0,0.0,0.0,0.0,0.0,0.0,0.0,0.0,0.0,0.0,0.0,0.0,0.0,0.0,0.0,0.0,0.0,0.0,0.0,0.0,0.0,0.0,0.0,0.0,0.0,0.0,0.0,0.0,0.0,0.0,0.0,0.0,0.0,0.0,0.0,0.0,0.0,0.0,0.0,0.0,0.0,0.0,0.0,0.0,0.0,0.0,0.0,0.0,0.0,0.0,0.0,0.0,0.0,0.0,0.0,0.0,0.0,0.0,3.6869,3.7358,3.6978,3.6771,3.6761,3.558,3.5302,0.0,0.0,0.0,0.0,0.0,0.0,0.0,0.0,0.0,0.0,0.0,0.0,0.0,0.0,0.0,0.0,0.0,0.0,0.0,0.0,0.0,0.0,0.0,0.0,0.0,0.0,0.0,0.0,0.0,0.0,0.0,0.0,0.0,0.0,0.0,0.0,0.0,0.0,0.0,0.0,0.0,0.0,0.0,0.0,0.0,0.0,0.0,0.0,3.682,0.0,0.0,0.0,0.0,0.0,0.0,0.0,0.0,0.0,0.0,0.0,0.0,0.0,0.0,0.0,0.0,0.0,0.0,0.0,0.0,0.0,0.0,0.0,0.0,0.0,0.0,0.0,0.0,0.0,0.0,0.0,0.0,0.0,0.0,0.0,0.0,0.0,0.0,0.0,0.0,0.0,0.0,0.0,0.0,0.0,0.0,0.0,0.0,0.0,0.0,0.0,0.0,0.0,0.0,0.0,0.0,0.0,0.0,0.0,3.7586,3.7569,3.7321,3.7208,3.7246,3.6686,3.6546,0.0,0.0,0.0,0.0,0.0,0.0,0.0,0.0,0.0,0.0,0.0,0.0,0.0,0.0,0.0,0.0,0.0,0.0,0.0,0.0,0.0,0.0,0.0,0.0,0.0,0.0,0.0,0.0,0.0,0.0,0.0,0.0,0.0,0.0,0.0,0.0,0.0,0.0,0.0,0.0,0.0,0.0,0.0,0.0,0.0,0.0,0.0,0.0,0.0,0.0,0.0,0.0,0.0,0.0,0.0,0.0,0.0,0.0,0.0,0.0,0.0,0.0,0.0,0.0,0.0,0.0,0.0,0.0,0.0,0.0,0.0,0.0,0.0,0.0,0.0,0.0,0.0,0.0,0.0,0.0,0.0,0.0,0.0,0.0,0.0,0.0,0.0,0.0,0.0,0.0,0.0,0.0,0.0,0.0,0.0,0.0,0.0,0.0,0.0,0.0,0.0,0.0,0.0,0.0,0.0,0.0,0.0,3.8315,3.8146,3.7809,3.7712,3.7676,3.7792,3.7809,3.7623,3.7257,0.0,0.0,0.0,0.0,0.0,0.0,0.0,0.0,0.0,0.0,0.0,0.0,0.0,0.0,0.0,0.0,0.0,0.0,0.0,0.0,0.0,0.0,0.0,0.0,0.0,0.0,0.0,0.0,0.0,0.0,0.0,0.0,0.0,0.0,0.0,0.0,0.0,0.0,3.6093,3.6671,0.0,0.0,0.0,0.0,0.0,0.0,0.0,0.0,3.8584,0.0,0.0,0.0,0.0,0.0,0.0,0.0,0.0,0.0,0.0,0.0,0.0,0.0,0.0,0.0,0.0,0.0,0.0,0.0,0.0,0.0,0.0,0.0,0.0,0.0,0.0,0.0,0.0,0.0,0.0,0.0,0.0,0.0,0.0,0.0,0.0,0.0,0.0,0.0,0.0,0.0,0.0,0.0,0.0,0.0,0.0,0.0,0.0,0.0,0.0,0.0,0.0,0.0,0.0,0.0,0.0,3.8299,3.8344,3.836,3.8275,3.8251,3.8251,3.8275,3.8332,3.834,3.8247,0.0,0.0,0.0,0.0,0.0,0.0,0.0,0.0,0.0,0.0,0.0,0.0,0.0,0.0,0.0,0.0,0.0,0.0,0.0,0.0,0.0,0.0,0.0,0.0,0.0,0.0,0.0,0.0,0.0,0.0,0.0,0.0,0.0,0.0,0.0,0.0,0.0,0.0,0.0,3.7906,3.8057,0.0,0.0,0.0,0.0,0.0,0.0,0.0,0.0,3.8657,0.0,0.0,0.0,0.0,0.0,0.0,0.0,0.0,0.0,0.0,0.0,0.0,0.0,0.0,0.0,0.0,0.0,0.0,0.0,0.0,0.0,0.0,0.0,0.0,0.0,0.0,0.0,0.0,0.0,0.0,0.0,0.0,0.0,0.0,0.0,0.0,0.0,0.0,0.0,0.0,0.0,0.0,0.0,0.0,0.0,0.0,0.0,0.0,0.0,0.0,0.0,0.0,0.0,0.0,0.0,3.8409,3.8412,3.8473,3.8436,3.8433,3.8433,3.8436,3.8476,3.8551,0.0,0.0,0.0,0.0,0.0,0.0,0.0,0.0,0.0,0.0,0.0,0.0,0.0,0.0,0.0,0.0,0.0,0.0,0.0,0.0,0.0,0.0,0.0,0.0,0.0,0.0,0.0,0.0,0.0,0.0,0.0,0.0,0.0,0.0,0.0,0.0,0.0,0.0,0.0,0.0,3.8876,3.9033,3.9495,0.0,0.0,0.0,0.0,0.0,0.0,3.9949,3.9876,0.0,0.0,0.0,0.0,0.0,0.0,0.0,0.0,0.0,0.0,0.0,0.0,0.0,0.0,0.0,0.0,0.0,0.0,0.0,0.0,0.0,0.0,0.0,0.0,0.0,0.0,0.0,0.0,0.0,0.0,0.0,0.0,0.0,0.0,0.0,0.0,0.0,0.0,0.0,0.0,0.0,0.0,0.0,0.0,0.0,0.0,0.0,0.0,0.0,0.0,0.0,0.0,0.0,0.0,0.0,3.8528,3.8544,3.8551,3.8551,3.8496,3.8488,3.8544,3.8551,3.8583,0.0,0.0,0.0,0.0,0.0,0.0,0.0,0.0,0.0,0.0,0.0,0.0,0.0,0.0,0.0,0.0,0.0,0.0,0.0,0.0,0.0,0.0,0.0,0.0,0.0,0.0,0.0,0.0,0.0,0.0,0.0,0.0,0.0,0.0,0.0,0.0,0.0,0.0,0.0,0.0,0.0,4.0004,4.07,4.0799,0.0,0.0,0.0,0.0,4.0854,4.0616,0.0,0.0,0.0,0.0,0.0,0.0,0.0,0.0,0.0,0.0,0.0,0.0,0.0,0.0,0.0,0.0,0.0,0.0,0.0,0.0,0.0,0.0,0.0,0.0,0.0,0.0,0.0,0.0,0.0,0.0,0.0,0.0,0.0,0.0,0.0,0.0,0.0,0.0,0.0,0.0,0.0,0.0,0.0,0.0,0.0,0.0,0.0,0.0,0.0,0.0,0.0,0.0,0.0,0.0,0.0,0.0,3.8499,3.8635,3.8673,3.8673,3.8666,3.8666,3.8666,3.8666,3.8673,0.0,0.0,0.0,0.0,0.0,0.0,0.0,0.0,0.0,0.0,0.0,0.0,0.0,0.0,0.0,0.0,0.0,0.0,0.0,0.0,0.0,0.0,0.0,0.0,0.0,0.0,0.0,0.0,0.0,0.0,0.0,0.0,0.0,0.0,0.0,0.0,0.0,0.0,0.0,0.0,0.0,4.07,4.0774,4.0799,4.0817,0.0,0.0,3.996,4.0757,3.9677,0.0,0.0,0.0,0.0,0.0,0.0,0.0,0.0,0.0,0.0,0.0,0.0,0.0,0.0,0.0,0.0,0.0,0.0,0.0,0.0,0.0,0.0,0.0,0.0,0.0,0.0,0.0,0.0,0.0,0.0,0.0,0.0,0.0,0.0,0.0,0.0,0.0,0.0,0.0,0.0,0.0,0.0,0.0,0.0,0.0,0.0,0.0,0.0,0.0,0.0,0.0,0.0,0.0,0.0,0.0,3.8963,3.8621,3.8811,3.8833,3.8696,3.8681,3.8681,3.8681,3.8681,3.8681,0.0,0.0,0.0,0.0,0.0,0.0,0.0,0.0,0.0,0.0,0.0,0.0,0.0,0.0,0.0,0.0,0.0,0.0,0.0,0.0,0.0,0.0,0.0,0.0,0.0,0.0,0.0,0.0,0.0,0.0,0.0,0.0,0.0,0.0,0.0,0.0,0.0,0.0,0.0,0.0,0.0,0.0,4.0813,4.0787,0.0,0.0,0.0,4.0382,4.0771,0.0,0.0,0.0,0.0,0.0,0.0,0.0,0.0,0.0,0.0,0.0,0.0,0.0,0.0,0.0,0.0,0.0,0.0,0.0,0.0,0.0,0.0,0.0,0.0,0.0,0.0,0.0,0.0,0.0,0.0,0.0,0.0,0.0,0.0,0.0,0.0,0.0,0.0,0.0,0.0,0.0,0.0,0.0,0.0,0.0,0.0,0.0,0.0,0.0,0.0,0.0,0.0,0.0,0.0,0.0,0.0,0.0,3.8906,3.9082,3.9089,3.8899,3.8892,3.8892,3.8892,3.8906,0.0,0.0,0.0,0.0,0.0,0.0,0.0,0.0,0.0,0.0,0.0,0.0,0.0,0.0,0.0,0.0,0.0,0.0,0.0,0.0,0.0,0.0,0.0,0.0,0.0,0.0,0.0,0.0,0.0,0.0,0.0,0.0,0.0,0.0,0.0,0.0,0.0,0.0,0.0,0.0,0.0,0.0,4.0813,4.0813,4.0802,4.0825,0.0,0.0,4.0604,4.0824,4.0737,4.0704,0.0,0.0,0.0,0.0,0.0,0.0,0.0,0.0,0.0,0.0,0.0,0.0,0.0,0.0,0.0,0.0,0.0,0.0,0.0,0.0,0.0,0.0,0.0,0.0,0.0,0.0,0.0,0.0,0.0,0.0,0.0,0.0,0.0,0.0,0.0,0.0,0.0,0.0,0.0,0.0,0.0,0.0,0.0,0.0,0.0,0.0,0.0,0.0,0.0,0.0,0.0,0.0,0.0,0.0,0.0,3.9458,3.9471,3.9477,3.9458,3.9452,3.9452,3.9452,3.942,3.9307,0.0,0.0,0.0,0.0,0.0,0.0,0.0,0.0,0.0,0.0,0.0,0.0,0.0,0.0,0.0,0.0,0.0,0.0,0.0,0.0,0.0,0.0,0.0,0.0,0.0,0.0,0.0,0.0,0.0,0.0,0.0,0.0,0.0,0.0,0.0,0.0,0.0,0.0,0.0,0.0,0.0,4.0813,4.0813,4.0873,4.0898,0.0,0.0,4.0055,4.0847,4.0359,4.0151,4.0973,0.0,0.0,0.0,0.0,0.0,0.0,0.0,0.0,0.0,0.0,0.0,0.0,0.0,0.0,0.0,0.0,0.0,0.0,0.0,0.0,0.0,0.0,0.0,0.0,0.0,0.0,0.0,0.0,0.0,0.0,0.0,0.0,0.0,0.0,0.0,0.0,0.0,0.0,0.0,0.0,0.0,0.0,0.0,0.0,0.0,0.0,0.0,0.0,0.0,0.0,0.0,0.0,0.0,3.9813,3.9514,3.9707,3.9724,3.9494,3.9561,3.9567,3.9482,3.95,3.9451,0.0,0.0,0.0,0.0,0.0,0.0,0.0,0.0,0.0,0.0,0.0,0.0,0.0,0.0,0.0,0.0,0.0,0.0,0.0,0.0,0.0,0.0,0.0,0.0,0.0,0.0,0.0,0.0,4.1872,4.2219,4.2292,0.0,0.0,0.0,0.0,0.0,0.0,0.0,0.0,0.0,0.0,4.2471,4.2471,4.2459,0.0,0.0,4.2231,4.2172,4.249,4.2315,4.2261,4.2574,4.2652,0.0,0.0,0.0,0.0,0.0,0.0,0.0,0.0,0.0,0.0,0.0,0.0,0.0,0.0,0.0,0.0,0.0,0.0,0.0,0.0,0.0,0.0,0.0,0.0,0.0,0.0,0.0,0.0,0.0,0.0,0.0,0.0,0.0,0.0,0.0,0.0,0.0,0.0,0.0,0.0,0.0,0.0,0.0,0.0,0.0,0.0,0.0,0.0,0.0,0.0,0.0,0.0,4.011,3.9739,3.9972,3.9997,3.9742,3.9797,3.9808,3.9765,3.9781,3.9748,0.0,0.0,0.0,0.0,0.0,0.0,0.0,0.0,0.0,0.0,0.0,0.0,0.0,0.0,0.0,0.0,0.0,0.0,0.0,0.0,0.0,0.0,0.0,0.0,0.0,0.0,0.0,0.0,4.2883,4.3332,4.3363,0.0,0.0,0.0,0.0,0.0,0.0,0.0,0.0,0.0,0.0,4.3497,4.3497,4.3514,4.3446,4.3173,4.3382,4.3468,4.3195,4.3424,4.3631,4.3632,0.0,0.0,0.0,0.0,0.0,0.0,0.0,0.0,0.0,0.0,0.0,0.0,0.0,0.0,0.0,0.0,0.0,0.0,0.0,0.0,0.0,0.0,0.0,0.0,0.0,0.0,0.0,0.0,0.0,0.0,4.0214,0.0,0.0,0.0,0.0,0.0,0.0,0.0,0.0,0.0,0.0,0.0,0.0,0.0,0.0,0.0,0.0,0.0,0.0,0.0,0.0,0.0,0.0,4.028,4.0291,4.0345,4.0338,4.0289,4.0334,4.0389,4.0385,4.0441,4.0325,4.0007,0.0,0.0,0.0,0.0,0.0,0.0,0.0,0.0,0.0,0.0,0.0,0.0,0.0,0.0,0.0,0.0,0.0,0.0,0.0,0.0,0.0,0.0,0.0,0.0,0.0,0.0,4.3298,4.3423,4.3546,0.0,0.0,0.0,0.0,0.0,0.0,0.0,0.0,0.0,0.0,4.3497,4.3499,4.3539,4.3585,4.3336,4.2515,4.312,4.3398,4.2617,4.3164,4.3708,0.0,0.0,0.0,0.0,0.0,0.0,0.0,0.0,0.0,0.0,0.0,0.0,0.0,0.0,0.0,0.0,0.0,0.0,0.0,0.0,0.0,0.0,0.0,0.0,0.0,0.0,0.0,4.0261,4.0266,0.0,0.0,0.0,0.0,0.0,0.0,0.0,0.0,0.0,0.0,0.0,4.0512,4.0512,0.0,0.0,0.0,0.0,0.0,0.0,0.0,0.0,0.0,0.0,0.0,0.0,4.0415,4.0367,4.0419,4.0444,4.0441,4.0482,4.0452,4.0462,4.0513,4.0449,4.0334,0.0,0.0,0.0,0.0,0.0,0.0,0.0,0.0,0.0,0.0,0.0,0.0,0.0,0.0,0.0,0.0,0.0,0.0,0.0,0.0,0.0,0.0,0.0,0.0,0.0,4.4324,0.0,0.0,0.0,0.0,0.0,0.0,0.0,0.0,0.0,0.0,0.0,4.4393,4.441,4.4979,4.5146,4.456,4.4526,4.4216,0.0,0.0,0.0,0.0,0.0,0.0,0.0,0.0,0.0,0.0,0.0,0.0,0.0,0.0,4.1461,4.2592,4.3053,4.3163,4.2889,0.0,0.0,0.0,0.0,0.0,0.0,0.0,0.0,0.0,0.0,0.0,0.0,0.0,0.0,4.0512,0.0,4.0512,0.0,0.0,0.0,0.0,0.0,0.0,0.0,0.0,4.0512,4.0512,4.0512,4.0512,4.0512,0.0,4.0819,4.0804,0.0,0.0,0.0,0.0,0.0,0.0,0.0,0.0,4.0462,4.0415,4.0468,4.0492,4.0486,4.0488,4.05,4.0511,4.0507,4.0511,4.0507,4.0804,4.0935,0.0,0.0,0.0,0.0,0.0,0.0,0.0,0.0,0.0,0.0,0.0,0.0,0.0,0.0,0.0,0.0,0.0,0.0,0.0,0.0,0.0,0.0,0.0,4.53,0.0,0.0,0.0,0.0,0.0,0.0,0.0,0.0,0.0,4.4191,4.4531,4.4785,4.4521,4.5272,4.5625,4.5078,0.0,0.0,0.0,0.0,0.0,0.0,0.0,4.4257,4.4569,4.4098,4.3704,4.3697,4.3223,4.2868,4.2864,0.0,0.0,4.2709,4.3016,4.3167,4.2856,4.2577,4.2494,4.2727,4.2337,4.2221,0.0,0.0,0.0,0.0,0.0,0.0,0.0,0.0,4.0512,4.0512,0.0,4.0512,0.0,0.0,0.0,0.0,0.0,4.0643,0.0,0.0,4.0658,4.0569,4.0616,4.0658,4.0612,4.0646,4.1459,4.1459,4.0693,4.0612,0.0,0.0,0.0,0.0,0.0,0.0,4.0458,4.0415,4.0468,4.0492,4.0491,4.0492,4.0512,4.0554,4.0593,4.0631,4.0627,4.1389,4.185,4.1846,4.2624,0.0,0.0,0.0,0.0,0.0,0.0,0.0,0.0,0.0,0.0,0.0,0.0,0.0,0.0,0.0,0.0,0.0,0.0,0.0,0.0,4.6017,0.0,0.0,0.0,0.0,0.0,0.0,0.0,0.0,0.0,0.0,4.5134,4.4974,4.4672,4.3906,0.0,0.0,0.0,0.0,4.5976,4.5117,4.5703,4.5937,4.5078,4.4922,4.5195,4.6014,0.0,0.0,4.3699,4.3697,4.3656,4.3687,4.3646,4.3178,4.1539,4.2006,4.224,4.1538,4.2005,4.2122,4.1458,4.1491,4.1608,4.0512,0.0,0.0,0.0,0.0,4.0512,4.0512,4.0512,4.0512,4.0512,4.0512,4.0512,0.0,0.0,0.0,0.0,0.0,0.0,4.248,4.2577,4.2577,4.2579,4.2577,4.2577,4.2577,4.2577,4.2845,4.2806,4.2577,4.2579,4.189,4.0511,0.0,0.0,0.0,0.0,4.0488,4.0476,4.05,4.0508,4.0496,4.0508,4.0819,4.1431,4.2047,4.2354,4.2354,4.2585,4.2739,4.2739,4.297,0.0,0.0,0.0,0.0,0.0,0.0,0.0,0.0,0.0,0.0,0.0,0.0,0.0,0.0,0.0,0.0,0.0,0.0,0.0,4.6019,4.615,4.6227,0.0,0.0,0.0,0.0,0.0,0.0,0.0,0.0,0.0,4.6912,4.6286,4.5819,0.0,0.0,4.5937,4.5898,4.6133,4.5976,4.5117,0.0,0.0,0.0,4.4062,4.418,4.4414,4.4023,4.3708,4.3703,4.3699,4.3695,4.3726,4.3685,4.3529,4.3099,4.3138,4.3255,4.3021,4.3178,4.3245,4.29,4.2811,4.2874,4.1574,4.147,4.0792,4.0488,4.0516,4.0858,4.1012,4.105,4.1354,4.1512,4.155,4.155,4.1551,4.1619,4.2181,0.0,0.0,0.0,4.3305,4.3411,4.3411,4.3411,4.3411,4.3411,4.3411,4.3411,4.3758,4.3758,4.3411,4.3758,4.3139,4.1682,0.0,0.0,4.1578,4.1536,4.1512,4.155,4.1512,4.155,4.155,4.1512,4.1781,4.2316,4.2812,4.3118,4.3146,4.3459,4.3686,4.3751,4.406,4.4214,0.0,0.0,0.0,0.0,0.0,0.0,0.0,0.0,0.0,0.0,0.0,4.5851,0.0,0.0,0.0,0.0,4.6368,4.6757,4.7152,4.7234,0.0,0.0,0.0,0.0,0.0,0.0,0.0,4.8164,4.8594,4.8711,4.8164,4.7656,4.707,4.6406,4.6601,4.668,4.6328,0.0,4.6484,4.5664,4.5508,4.5312,4.4844,4.4726,4.4726,4.4726,4.4726,4.4725,4.4723,4.4758,4.4714,4.4746,4.4742,4.4739,4.4739,4.4739,4.446,4.3779,4.3602,4.353,4.3481,4.3473,4.3454,4.3192,4.2972,4.1405,4.0742,4.0804,4.1566,4.1917,4.2009,4.2783,4.313,4.3126,4.313,4.318,4.3318,4.3441,0.0,4.3617,4.3617,4.3661,4.3629,4.3629,4.3629,4.3629,4.3631,4.3629,4.3667,4.444,4.4402,4.3709,4.4443,4.4402,4.3626,4.3513,4.3363,4.3228,4.313,4.313,4.313,4.3096,4.313,4.313,4.3207,4.3246,4.3246,4.3284,4.3362,4.346,4.4199,4.4646,4.4795,4.5497,4.5883,4.5883,0.0,0.0,0.0,0.0,0.0,0.0,0.0,0.0,0.0,0.0,0.0,0.0,0.0,0.0,0.0,4.7173,0.0,4.872,4.8799,0.0,0.0,0.0,4.9018,4.8982,4.9062,4.9101,4.9101,0.0,0.0,4.9101,0.0,4.8516,4.6914,4.7226,4.7344,4.6601,4.7226,4.7422,4.6797,4.6641,4.6601,4.6523,4.6484,4.6523,4.6484,4.6484,4.6523,4.6522,4.6519,4.6514,4.6352,4.6384,4.634,4.6301,4.618,4.5738,4.4083,4.3741,4.3673,4.3741,4.3728,4.3751,4.3355,4.3289,4.2865,4.2652,4.2552,4.2778,4.2921,4.3056,4.3208,4.3325,4.3325,4.3327,4.3691,4.4339,4.4365,4.4768,4.5453,4.5451,4.5524,4.5606,4.5608,4.5608,4.5608,4.5606,4.5608,4.5608,4.5802,4.5802,4.5647,4.5802,4.5802,4.5604,4.5464,4.4729,4.341,4.3341,4.3327,4.3325,4.3327,4.3325,4.3366,4.3984,4.433,4.4333,4.4912,4.5234,4.526,4.5456,4.5584,4.5611,4.5805,4.5883,4.5883,4.5883,0.0,0.0,0.0,0.0,0.0,0.0,0.0,0.0,0.0,4.7321,4.7985,0.0,4.8107,0.0,4.8403,4.8564,4.8759,4.8804,0.0,0.0,4.9487,4.9881,4.9883,5.043,5.0781,5.082,5.082,5.082,5.082,5.082,5.0664,5.0195,4.8672,4.7734,4.8203,4.8437,4.8789,4.9101,4.9141,4.9023,4.8359,4.8281,4.8242,4.8281,4.8242,4.8281,4.828,4.8276,4.8077,4.7447,4.7282,4.7042,4.6456,4.6234,4.6045,4.5595,4.5459,4.5425,4.5315,4.5264,4.5198,4.4573,4.453,4.453,4.4523,4.4432,4.4031,4.3893,4.4028,4.4336,4.4492,4.4533,4.458,4.487,4.5298,4.5414,4.5685,4.6182,4.6182,4.6238,4.6301,4.6301,4.6301,4.6301,4.6301,4.6301,4.6301,4.669,4.6885,4.6924,4.7237,4.7432,4.7432,4.7329,4.6794,4.5824,4.4969,4.4494,4.4494,4.4494,4.4688,4.5077,4.558,4.6007,4.6362,4.6823,4.7079,4.7161,4.7122,4.7142,4.7178,4.718,4.7182,4.7182,4.7182,4.7434,0.0,0.0,0.0,0.0,0.0,0.0,0.0,0.0,0.0,0.0,0.0,4.8954,0.0,4.9383,4.954,4.993,4.9935,4.998,5.0026,5.0421,5.0738,5.0742,5.1132,5.1406,5.1406,5.1406,5.1406,5.1406,5.1406,5.125,5.0937,4.9961,4.9336,4.9453,4.9492,4.9531,4.9609,4.9609,4.9492,4.8945,4.8906,4.8906,4.8906,4.8906,4.8906,4.8906,4.8904,4.8744,4.827,4.8185,4.8022,4.751,4.7314,4.7267,4.7256,4.7159,4.6771,4.6046,4.5772,4.578,4.6074,4.5962,4.5964,4.6011,4.607,4.5382,4.5038,4.496,4.5653,4.5962,4.5969,4.6086,4.6153,4.6118,4.6362,4.6456,4.6456,4.6573,4.6612,4.6612,4.6612,4.6612,4.6612,4.6612,4.6612,4.6651,4.7392,4.7742,4.7781,4.8446,4.8798,4.8798,4.8798,4.8798,4.8717,4.7097,4.6275,4.6275,4.6275,4.6625,4.7366,4.7405,4.7758,4.8504,4.8543,4.858,4.8725,4.8691,4.8755,4.8795,4.8798,4.8798,4.8798,4.8798,4.8876,0.0,4.8954,0.0,0.0,0.0,0.0,0.0,0.0,0.0,0.0,4.915,4.9423,5.0202,5.028,5.0593,5.1336,5.1375,5.1419,5.1545,5.1546,5.1591,5.1716,5.1756,5.1718,5.1719,5.1758,5.1719,5.1797,5.1719,5.1445,5.1055,5.1406,5.1445,5.0859,5.0664,5.0391,4.9609,4.9531,5.0039,4.9883,4.9726,4.9726,4.9687,4.9805,4.957,4.9766,4.9726,4.9607,4.9485,4.9476,4.9387,4.9145,4.9054,4.8997,4.8987,4.8801,4.8097,4.6689,4.6194,4.6172,4.6245,4.6237,4.6236,4.6242,4.6327,4.6826,4.6666,4.6004,4.6159,4.6236,4.6237,4.6246,4.6249,4.6329,4.7038,4.7353,4.7392,4.8017,4.833,4.833,4.833,4.833,4.833,4.833,4.833,4.833,4.8486,4.8564,4.8564,4.872,4.8798,4.8798,4.8798,4.8798,4.8797,0.0,0.0,0.0,4.8267,4.8344,4.85,4.85,4.8578,4.8734,4.8734,0.0,4.8786,4.8787,4.879,4.8797,4.8798,0.0,0.0,0.0,0.0,0.0,0.0,0.0,0.0,0.0,0.0,0.0,5.1649,5.1688,5.0984,5.0906,5.0984,5.114,5.1179,5.1219,5.1375,5.1375,5.1691,5.2364,5.2448,5.2728,5.3396,5.3515,5.3515,5.3516,5.3516,5.3476,5.3437,5.3516,5.3437,5.3164,5.3398,5.3437,5.3281,5.2617,5.2422,5.2851,5.2773,5.293,5.3008,5.2891,5.2695,5.3047,5.3047,5.293,5.2851,5.289,5.2655,5.2067,5.1929,5.1615,5.0891,5.07,5.0656,5.0589,5.0463,4.9803,4.8183,4.7747,4.7663,4.7549,0.0,4.7549,4.751,0.0,4.8017,4.7939,4.7549,4.7549,4.7549,4.7549,4.7549,4.7549,4.7549,4.7978,4.8212,4.8212,4.8642,4.8798,4.8798,4.8798,4.8798,4.8798,4.8798,4.8798,4.8798,4.9227,4.9462,4.9462,4.9852,5.0087,5.0087,5.0087,5.0087,5.0087,5.0087,4.9657,4.8798,4.8798,4.8993,4.9422,4.9462,4.9657,5.0048,0.0,0.0,0.0,0.0,0.0,0.0,0.0,0.0,0.0,0.0,0.0,5.1998,5.2037,5.2233,5.2662,5.2662,5.2665,5.271,5.3105,5.3145,5.2711,5.2676,5.2678,5.2677,5.2678,5.2678,5.2678,5.2678,5.2875,5.3307,5.335,5.351,5.3904,5.3983,5.3984,5.3984,5.3984,5.3984,5.3984,5.3984,5.3984,5.4023,5.4375,5.4648,5.457,5.3906,5.3555,5.3945,5.3984,5.3984,5.3984,5.3984,5.4023,5.3984,5.3984,5.3984,5.3984,5.3984,5.3826,5.3385,5.3279,5.3007,5.2533,5.2311,5.2249,5.2196,5.2073,5.1767,5.0833,5.0032,4.951,4.8798,4.8798,4.8798,4.8798,4.8798,4.8954,4.9111,4.9228,0.0,0.0,0.0,4.8798,4.8798,4.8798,4.8954,4.9032,4.9032,4.9189,4.9267,4.9228,4.9267,4.9267,4.9267,4.9267,4.9267,4.9306,4.9968,5.0319,5.0358,5.1219,5.1648,5.1648,5.1765,5.1842,5.1843,5.1882,5.118,4.9774,4.9579,4.9929,5.0748,5.0787,5.114,5.1843,5.1843,5.1843,5.1882,5.2547,5.2937,5.2937,5.36,5.399,5.399,5.399,5.399,5.399,5.399,5.399,5.399,5.399,5.4073,5.4239,5.4208,5.417,5.4008,5.3974,5.3977,5.3977,5.3977,5.3977,5.3977,5.3977,5.4055,5.4211,5.4212,5.4292,5.4451,5.4452,5.4531,5.4453,5.4531,5.4453,5.4531,5.457,5.4453,5.457,5.5117,5.5625,5.5625,5.5078,5.457,5.4609,5.4687,5.457,5.4492,5.4531,5.4453,5.4609,5.4531,5.4452,5.4452,5.4411,5.4361,5.44,5.4302,5.4244,5.4088,5.3984,5.3901,5.3847,5.375,5.3659,5.3549,5.2554,5.1784,4.8798,4.8798,4.8798,4.8798,4.8876,4.9617,5.0359,5.0906,4.9462,4.8798,4.8798,4.8798,4.8798,4.8837,4.9578,4.9928,4.9967,5.071,5.1023,5.1023,5.1023,5.1023,5.1023,5.1023,5.1023,5.1023,5.118,5.1219,5.1336,5.2078,5.2508,5.2625,5.3249,5.3599,5.3639,5.3639,5.3522,5.3248,5.2547,5.2586,5.3443,5.3443,5.3521,5.3639,5.36,5.3639,5.3639,5.3755,5.3834,5.3834,5.3912,5.399,5.399,5.4029,5.399,5.399,5.399,5.399,5.399,5.399,5.4308,5.502,5.5106,5.4797,5.4054,5.3976,5.3977,5.4016,5.4056,5.3977,5.3977,5.4055,5.4407,5.5033,5.5113,5.5389,5.6131,5.6249,5.625,5.6211,5.625,5.625,5.625,5.625,5.625,5.625,5.6445,5.6719,5.7148,5.6797,5.6289,5.6211,5.625,5.625,5.625,5.625,5.6211,5.6211,5.6172,5.6145,5.6145,5.6079,5.6003,5.5976,5.5952,5.5827,5.5747,5.5624,5.5571,5.5499,5.5381,5.5329,5.5285,5.4895,5.4434,5.0204,5.0204,5.0204,5.0204,5.0243,5.0633,5.1022,5.1336,5.0555,5.0204,5.0204,5.0204,5.0204,5.0243,5.0632,5.0788,5.0827,5.1219,5.1648,5.2078,5.2118,5.2351,5.278,5.2818,5.2818,5.2819,5.2819,5.2819,5.2858,5.321,5.3405,5.3406,5.3834,5.399,5.399,5.399,5.4225,5.4655,5.3835,5.36,5.399,5.399,5.399,5.399,5.399,5.399,5.399,5.4459,5.4733,5.4694,5.5162,5.5434,5.5395,5.5395,5.5434,5.5396,5.5434,5.5395,5.5395,5.5406,5.5569,5.6003,5.6441,5.6561,5.617,5.5663,5.5428,5.5428,5.5428,5.5389,5.5389,5.5428,5.578,5.6639,5.6718,5.707,5.7812,5.8008,5.8008,5.8008,5.8008,5.8008,5.8008,5.8008,5.8008,5.8008,5.8008,5.8203,5.8515,5.8238,5.7923,5.7969,5.8008,5.8008,5.7969,5.7964,5.792,5.7879,5.7843,5.7806,5.7799,5.7723,5.7646,5.7629,5.7564,5.7525,5.742,5.7348,5.7279,5.7156,5.7125,5.6983,5.6571,5.6055,5.5439,5.1375,5.1375,5.1375,5.1531,5.1687,5.1687,5.1804,5.1959,5.1999,5.1999,5.196,5.1804,5.1804,5.1999,5.1999,5.1999,5.1998,5.196,5.2351,5.2937,5.2976,5.3327,5.3951,5.399,5.399,5.399,5.399,5.399,5.399,5.4186,5.442,5.4576,5.4576,5.4575,5.4575,5.4575,5.5005,5.5787,5.5201,5.4771,5.4575,5.4575,5.4615,5.4575,5.4615,5.4654,5.4849,5.5514,5.5943,5.6178,5.6801,5.7151,5.7151,5.7151,5.7154,5.7156,5.7156,5.7158,5.7161,5.7172,5.714,5.7181,5.7811,5.8164,5.8125,5.7578,5.7187,5.7187,5.7187,5.7187,5.7187,5.7187,5.7461,5.8086,5.8203,5.8398,5.9062,5.9219,5.9219,5.9219,5.9219,5.918,5.9219,5.9219,5.9101,5.9062,5.9136,5.9172,5.9326,5.9303,5.9341,5.9555,5.9406,5.9062,5.9131,5.8994,5.8892,5.8966,5.8862,5.8691,5.8709,5.8779,5.8767,5.8545,5.8601,5.8502,5.8479,5.8428,5.8346,5.815,5.8114,5.8011,5.7412,5.6863,5.6132,5.1414,5.1375,5.1414,5.1843,5.2547,5.2586,5.3015,5.3639,5.3755,5.3756,5.3639,5.2937,5.3014,5.3717,5.3677,5.3677,5.3677,5.3756,5.3795,5.3873,5.3873,5.3951,5.4068,5.4029,5.399,5.4068,5.4068,5.4147,5.4186,5.485,5.5592,5.6294,5.6372,5.6332,5.6371,5.6371,5.6762,5.7543,5.7505,5.7074,5.641,5.6371,5.6372,5.6372,5.6371,5.6723,5.7309,5.7544,5.7933,5.8674,5.8791,5.883,5.883,5.8869,5.8836,5.8845,5.8847,5.885,5.8856,5.8897,5.8822,5.8981,5.8982,5.9062,5.9062,5.9023,5.8984,5.8945,5.8945,5.8828,5.8945,5.8867,5.8867,5.9023,5.9062,5.9101,5.9297,5.9219,5.9219,5.9219,5.9375,5.9219,5.9375,5.9414,5.9258,5.9308,5.9311,5.9435,5.9939,6.0036,6.0255,6.0618,5.9993,5.9137,5.9102,5.8932,5.9116,5.907,5.8871,5.8917,5.9001,5.889,5.8652,5.9129,5.8807,5.8867,5.8763,5.8567,5.8592,5.8731,5.8598,5.8319,5.8182,5.7973,5.7396,5.1687,5.2157,5.2157,5.2664,5.3405,5.3444,5.3678,5.399,5.399,5.4264,5.4694,5.4382,5.4147,5.399,5.399,5.399,5.399,5.399,5.4303,5.4733,5.4772,5.5044,5.5512,5.5551,5.5551,5.5512,5.5512,5.5551,5.559,5.5903,5.6489,5.7231,5.7309,5.7582,5.801,5.8088,5.8244,5.8557,5.8558,5.8401,5.8127,5.8088,5.8088,5.8088,5.8088,5.8205,5.8518,5.8558,5.8713,5.9064,5.9103,5.9103,5.9103,5.911,5.9117,5.9121,5.9126,5.913,5.9132,5.9135,5.9176,5.9217,5.9647,5.9922,5.9961,6.0351,6.0664,6.0586,5.9805,5.9219,5.9219,5.9219,5.9375,5.9765,5.9922,6.0078,6.0625,6.0664,6.0664,6.0664,6.062,6.0613,6.0609,6.0552,6.0486,6.0416,6.0376,6.0475,6.0821,6.0811,6.0963,6.1155,6.0685,6.0406,6.0326,6.0333,6.0305,6.0271,6.0211,6.0101,6.0054,6.0098,6.0078,6.0035,5.9957,5.9957,6.0156,6.006,5.9988,5.9808,5.9346,5.9045,5.9023,5.8627,5.7973,5.2468,5.3015,5.3054,5.3562,5.4342,5.4342,5.4498,5.4692,5.4692,5.5083,5.5631,5.5669,5.5318,5.477,5.4731,5.4732,5.4693,5.4731,5.5044,5.563,5.5631,5.602,5.6566,5.6605,5.6605,5.6644,5.68,5.7034,5.7269,5.7269,5.7581,5.8089,5.8168,5.848,5.9025,5.9103,5.922,5.9416,5.9455,5.9572,5.9767,5.9806,5.9611,5.9181,5.9103,5.922,5.9455,5.9455,5.9572,5.9806,5.9809,5.9812,5.9812,5.9822,5.9829,5.9831,5.9837,5.98,5.98,5.9881,5.9882,5.9921,6.0468,6.0742,6.0859,6.1328,6.168,6.1562,6.0586,5.9922,5.9883,5.9883,6.0156,6.0703,6.0742,6.1055,6.1562,6.1719,6.164,6.168,6.1519,6.1622,6.1579,6.147,6.135,6.1346,6.1357,6.1412,6.1405,6.1309,6.1327,6.1317,6.1271,6.1249,6.1346,6.1169,6.1296,6.1225,6.1044,6.0943,6.1113,6.1075,6.1075,6.0615,6.0963,6.1036,6.077,6.092,6.0969,6.0833,6.0403,5.9893,5.9869,5.9319,5.9127,5.3912,5.3951,5.3951,5.4498,5.5241,5.5241,5.5708,5.6293,5.6371,5.6488,5.6488,5.6488,5.6488,5.6371,5.6371,5.6449,5.641,5.6371,5.6371,5.6488,5.6527,5.6566,5.6605,5.6605,5.6644,5.6878,5.7465,5.8128,5.883,5.8907,5.8986,5.9064,5.9064,5.9064,5.9259,5.9299,5.9533,6.0276,6.0315,6.0705,6.1407,6.1524,6.0704,5.9416,5.9142,5.9572,6.0237,6.0354,6.0705,6.1524,6.1496,6.1502,6.1541,6.1509,6.1477,6.1482,6.1523,6.1523,6.1484,6.1445,6.1445,6.1523,6.1484,6.1601,6.1523,6.164,6.1719,6.168,6.1523,6.1406,6.1406,6.1289,6.1406,6.1523,6.1601,6.1601,6.168,6.1719,6.1719,6.1719,6.1679,6.1675,6.1678,6.1627,6.1594,6.1538,6.1463,6.1408,6.1396,6.1391,6.1379,6.133,6.1285,6.1263,6.1135,6.1189,6.1205,6.1186,6.1125,6.1113,6.1113,6.1113,6.1113,6.1113,6.1113,6.1113,6.1113,6.1056,6.0983,6.089,6.086,6.0591,6.0414,6.0633,6.0396,5.4342,5.4889,5.5435,5.5864,5.6138,5.6138,5.6293,5.6605,5.6605,5.6605,5.6605,5.6605,5.6605,5.6605,5.7151,5.7073,5.6644,5.6605,5.6605,5.6683,5.7112,5.7348,5.7426,5.7893,5.8205,5.8244,5.8518,5.8791,5.9064,5.9103,5.9416,5.9846,5.9924,6.0198,6.0665,6.0782,6.0938,6.1172,6.125,6.1407,6.168,6.1719,6.1368,6.0821,6.0743,6.0899,6.1211,6.125,6.1371,6.1691,6.1696,6.17,6.1705,6.1712,6.1716,6.1718,6.1719,6.1719,6.1719,6.1719,6.1719,6.1719,6.1719,6.1719,6.1719,6.1719,6.1719,6.1719,6.1719,6.1719,6.1719,6.1719,6.1719,6.1719,6.1719,6.1719,6.1719,6.1719,6.1719,6.1719,6.1675,6.1618,6.1559,6.148,6.1463,6.146,6.1435,6.1393,6.1364,6.1343,6.1308,6.1225,6.1237,6.1252,6.1112,6.113,6.1152,6.1116,6.1113,6.1113,6.1113,6.1113,6.1113,6.1113,6.1113,6.1113,6.1075,6.0959,6.0877,6.0522,6.0536,6.0724,6.0804,6.0787,6.0781,5.5162,5.5747,5.6371,5.6605,5.6605,5.6605,5.6605,5.6644,5.6878,5.6995,5.7034,5.7269,5.7386,5.7503,5.7971,5.7933,5.7425,5.7425,5.7386,5.7465,5.7972,5.8207,5.8324,5.8831,5.9103,5.9142,5.9416,5.965,5.9923,5.9962,6.0274,6.0783,6.0822,6.1095,6.1641,6.1719,6.1719,6.1719,6.1719,6.1719,6.1719,6.1719,6.1719,6.1719,6.1722,6.1725,6.1726,6.1725,6.1691,6.1701,6.1705,6.1709,6.1714,6.1717,6.1718,6.1719,6.1719,6.1719,6.1719,6.1719,6.1719,6.1719,6.1719,6.1719,6.1719,6.1719,6.1719,6.1719,6.1719,6.1719,6.1719,6.1719,6.1719,6.1719,6.1719,6.1719,6.1719,6.1719,6.1719,6.168,6.1675,6.1576,6.1543,6.1499,6.1501,6.1493,6.1476,6.1467,6.1417,6.1352,6.1285,6.1185,6.1244,6.1221,6.1139,6.1102,6.1121,6.1089,6.1113,6.1113,6.1113,6.1113,6.1113,6.1113,6.1075,6.1075,6.1002,6.0847,6.0524,6.0092,6.0128,6.0366,6.0536,6.0787,6.0781,5.6527,5.6566,5.6605,5.6644,5.6722,5.6722,5.6683,5.6917,5.7504,5.7816,5.7933,5.8635,5.883,5.8986,5.9025,5.9064,5.9025,5.9064,5.8986,5.8908,5.9025,5.9103,5.9103,5.9299,5.9377,5.9416,6.0041,6.0822,6.1446,6.1446,6.1524,6.1641,6.1602,6.1602,6.1719,6.1719,6.1719,6.1719,6.1719,6.1719,6.168,6.1641,6.1563,6.1604,6.1574,6.158,6.162,6.1659,6.1702,6.1709,6.1714,6.1717,6.1719,6.1719,6.1719,6.1719,6.1719,6.1719,6.1719,6.1719,6.1719,6.1719,6.1719,6.1719,6.1719,6.1719,6.1719,6.1719,6.1719,6.1719,6.1719,6.1719,6.1719,6.1719,6.1719,6.1719,6.1719,6.1719,6.1719,6.1719,6.1679,6.1719,6.1718,6.1633,6.1627,6.1624,6.157,6.1534,6.1502,6.1442,6.1351,6.1285,6.1248,6.122,6.1143,6.1118,6.1118,6.1113,6.1113,6.1113,6.1113,6.1113,6.1113,6.1075,6.077,6.0731,6.0228,6.0069,5.9954,5.9693,5.9855,5.9919,6.0245,6.0458,6.0671,5.6605,5.6605,5.6605,5.6917,5.7387,5.7426,5.7738,5.8284,5.8635,5.8713,5.8752,5.8986,5.9103,5.9299,5.9689,6.0002,6.0041,6.0548,6.0274,5.9377,5.9728,6.0002,6.0119,6.0587,6.0899,6.0938,6.1133,6.1407,6.1641,6.1719,6.1719,6.1719,6.1719,6.1719,6.1719,6.1719,6.1719,6.1719,6.1719,6.1719,6.1641,6.1094,6.0826,6.0794,6.0798,6.0804,6.0853,6.1357,6.1671,6.1675,6.1716,6.1718,6.1719,6.1719,6.1719,6.1719,6.1719,6.1719,6.1719,6.1719,6.1719,6.1719,6.1719,6.1719,6.1719,6.1719,6.1719,6.1719,6.1719,6.1719,6.1719,6.1719,6.1797,6.1719,6.1719,6.168,6.1719,6.168,6.1719,6.168,6.1635,6.1625,6.1618,6.1566,6.1504,6.1501,6.1474,6.1443,6.1412,6.1376,6.1278,6.1173,6.1182,6.1182,6.1116,6.1113,6.1113,6.1113,6.1113,6.1113,6.1113,6.1113,6.1113,6.1002,6.0692,6.0344,5.9846,5.9484,5.9452,5.9061,5.8939,5.9269,5.9782,6.0167,6.0485,5.6751,5.7025,5.7025,5.7533,5.8236,5.8276,5.8588,5.9133,5.9438,5.959,5.963,5.9942,6.0059,6.0176,6.0645,6.084,6.0956,6.1453,6.1133,6.0235,6.0587,6.0861,6.0939,6.1407,6.1719,6.1719,6.1719,6.1719,6.1719,6.1719,6.1719,6.1719,6.1719,6.1719,6.1641,6.1368,6.1328,6.1563,6.1055,6.0899,6.0978,6.0357,5.9934,5.99,5.9946,5.9953,5.9997,6.0504,6.0896,6.1132,6.121,6.1367,6.164,6.1719,6.1719,6.1719,6.1719,6.1719,6.1719,6.1719,6.1719,6.1719,6.1719,6.1719,6.1719,6.1719,6.1797,6.2148,6.2226,6.2305,6.2617,6.2617,6.2612,6.2578,6.1992,6.1714,6.1674,6.1627,6.1601,6.1625,6.1606,6.1541,6.1519,6.146,6.1412,6.141,6.1378,6.134,6.1281,6.1263,6.1229,6.115,6.1112,6.1102,6.1089,6.1113,6.1113,6.1113,6.1113,6.1113,6.1113,6.1113,6.1113,6.1079,6.0847,6.0809,6.0344,5.9725,5.9432,5.8809,5.8563,5.9351,6.0135,6.0277,6.0517,5.7061,5.7763,5.7841,5.8351,5.9132,5.9171,5.929,5.9446,6.0117,6.0467,6.0624,6.1131,6.1522,6.16,6.1522,6.1522,6.1677,6.1627,6.1658,6.1499,6.1573,6.157,6.1603,6.168,6.1719,6.1719,6.1719,6.1719,6.1719,6.1719,6.168,6.1524,6.1485,6.1524,6.1211,6.0705,6.0707,6.1214,6.0083,5.985,6.0553,5.978,5.9316,5.9318,5.9446,5.945,5.953,5.9765,5.9922,6.0273,6.043,6.082,6.1445,6.164,6.1719,6.1719,6.1719,6.1797,6.1797,6.1914,6.1992,6.2109,6.2148,6.1836,6.2109,6.2226,6.2422,6.2969,6.3047,6.332,6.3906,6.3965,6.3901,6.3815,6.2763,6.2065,6.1791,6.1744,6.1943,6.1891,6.166,6.1598,6.179,6.1734,6.1718,6.1701,6.1707,6.1762,6.1721,6.1789,6.1421,6.1466,6.1737,6.1814,6.2046,6.2046,6.2085,6.2085,6.1853,6.1582,6.1273,6.1157,6.1113,6.1079,6.1079,6.1041,6.0615,5.9841,5.9562,5.9413,5.9587,6.0133,6.0234,6.0217,6.0446,5.7568,5.788,5.8504,5.9285,6.0028,6.0068,6.0379,6.0927,6.1127,6.1207,6.1324,6.152,6.1637,6.1598,6.1637,6.1637,6.1638,6.164,6.164,6.164,6.1676,6.1702,6.1723,6.1719,6.1719,6.1719,6.1719,6.1719,6.1719,6.168,6.1369,6.0744,6.0862,6.051,5.9846,5.9698,5.9896,6.06,6.0372,6.0414,6.1,6.0417,6.0069,6.0073,6.0036,6.0077,6.0156,6.0703,6.0469,5.9609,6.0117,6.0469,6.0976,6.1484,6.1875,6.1875,6.1797,6.2031,6.2539,6.2656,6.293,6.3555,6.3437,6.3633,6.3633,6.3594,6.375,6.3945,6.3861,6.3923,6.4151,6.4143,6.4033,6.3842,6.3575,6.3306,6.3267,6.3331,6.3324,6.3334,6.3178,6.3077,6.3008,6.299,6.2967,6.2951,6.2922,6.2883,6.2723,6.2749,6.2588,6.2902,6.3134,6.3096,6.3096,6.3096,6.3134,6.3173,6.2902,6.2438,6.1892,6.1311,6.1195,6.1079,6.1195,6.1195,6.0344,5.9493,5.9596,6.02,5.9751,5.9878,5.9875,5.9865,6.0277,5.8195,5.8896,5.9403,6.0106,6.0849,6.0889,6.1162,6.1517,6.1571,6.1576,6.1576,6.1576,6.1576,6.1576,6.1576,6.1584,6.1631,6.1637,6.164,6.1639,6.1671,6.1697,6.1722,6.1719,6.1719,6.1719,6.1719,6.1485,6.1291,6.1489,6.1219,6.0675,6.0756,6.068,6.0368,5.9826,6.0062,6.0649,6.034,6.0264,6.1006,6.0345,5.9956,5.9998,6.0194,6.0507,6.0937,6.1445,6.1484,6.1367,6.1523,6.164,6.2031,6.25,6.2812,6.2812,6.2812,6.3047,6.3398,6.3555,6.375,6.4101,6.4256,6.4253,6.418,6.425,6.4336,6.4656,6.4648,6.4831,6.5065,6.5063,6.4937,6.4931,6.4885,6.4651,6.4043,6.3803,6.3887,6.3887,6.3824,6.3757,6.38,6.3742,6.3734,6.3647,6.3555,6.354,6.3574,6.3715,6.3792,6.3908,6.3869,6.3715,6.3637,6.3676,6.3715,6.3831,6.3831,6.3366,6.2863,6.2124,6.2085,6.2008,6.166,6.1355,6.0929,6.0697,6.1157,6.1244,6.0297,5.9909,6.0149,6.0019,6.0355,5.8875,6.0282,6.039,6.0855,6.1486,6.1595,6.1525,6.1578,6.1584,6.1569,6.1573,6.1574,6.1574,6.1574,6.1586,6.1603,6.1627,6.1639,6.1675,6.1666,6.1695,6.1691,6.1725,6.172,6.1719,6.1719,6.172,6.1332,6.1102,6.146,6.1191,6.0724,6.112,6.1317,6.077,6.0421,6.0734,6.0968,6.015,6.0034,6.0659,6.0427,6.0272,6.035,6.0976,6.164,6.2109,6.2422,6.289,6.4492,6.3594,6.3242,6.3867,6.4101,6.4219,6.414,6.4023,6.414,6.4375,6.4414,6.4487,6.4587,6.4638,6.4473,6.4565,6.4725,6.4972,6.5431,6.5457,6.5736,6.6121,6.632,6.6126,6.5911,6.6061,6.5431,6.4459,6.4011,6.3974,6.4031,6.4041,6.3971,6.3947,6.3947,6.4029,6.4604,6.4527,6.4566,6.4566,6.4604,6.4566,6.445,6.4334,6.414,6.414,6.414,6.4256,6.4334,6.4488,6.4295,6.414,6.3676,6.356,6.3328,6.2709,6.267,6.2902,6.2902,6.2863,6.2457,6.1597,6.1388,6.1296,6.0804,6.079,5.9895,6.0356,6.0927,6.1304,6.149,6.1457,6.1463,6.1504,6.1523,6.1559,6.1584,6.1591,6.1591,6.1593,6.1597,6.1588,6.1566,6.1632,6.164,6.1714,6.1712,6.1706,6.1697,6.1726,6.172,6.1722,6.1691,6.1578,6.1502,6.143,6.1277,6.0575,6.0655,6.0382,5.9875,5.9996,5.9879,6.0466,6.0272,6.0625,6.1406,6.1836,6.1992,6.2148,6.289,6.3828,6.457,6.4765,6.5273,6.5547,6.4414,6.3476,6.3711,6.414,6.4453,6.4492,6.4453,6.4648,6.5117,6.5265,6.5478,6.5891,6.5863,6.6092,6.6064,6.5964,6.6096,6.6304,6.6259,6.6224,6.6269,6.6297,6.6245,6.62,6.6185,6.6084,6.5732,6.5596,6.5529,6.5538,6.5529,6.5644,6.561,6.5489,6.5489,6.561,6.5566,6.5605,6.5528,6.5455,6.5301,6.5102,6.5141,6.503,6.503,6.503,6.503,6.503,6.5102,6.5141,6.503,6.472,6.4411,6.4024,6.3598,6.3792,6.4217,6.3831,6.3521,6.3192,6.2786,6.2191,6.1625,6.1299,6.1013,6.0406,6.0861,6.1263,6.1408,6.1431,6.1401,6.1408,6.1434,6.1441,6.146,6.1487,6.1492,6.1531,6.154,6.155,6.1559,6.1566,6.1638,6.1678,6.1713,6.1713,6.171,6.1705,6.1699,6.1696,6.1697,6.1701,6.1548,6.1276,6.1437,6.1245,6.0542,6.0778,6.0935,6.0388,6.0312,6.0663,6.0976,6.1015,6.1445,6.2305,6.2734,6.3555,6.4062,6.4687,6.5312,6.6055,6.6172,6.6445,6.6445,6.5586,6.4805,6.4844,6.5234,6.5469,6.5508,6.5508,6.5664,6.6015,6.6068,6.6146,6.6498,6.6587,6.6525,6.65,6.6513,6.6522,6.645,6.638,6.6363,6.6215,6.6185,6.6185,6.6185,6.6185,6.6185,6.6185,6.6185,6.6185,6.6185,6.6074,6.6108,6.6185,6.6185,6.6147,6.5876,6.5876,6.5915,6.5953,6.5876,6.5953,6.5876,6.5992,6.6031,6.6031,6.5953,6.5876,6.5837,6.5799,6.5799,6.576,6.5412,6.503,6.4759,6.4643,6.4909,6.518,6.4682,6.4068,6.3555,6.3037,6.2399,6.1805,6.1287,6.1089,6.071,6.1384,6.1359,6.1355,6.1366,6.1352,6.1352,6.1366,6.1366,6.1381,6.1388,6.1384,6.1447,6.1428,6.1471,6.152,6.1586,6.164,6.1707,6.171,6.171,6.171,6.171,6.171,6.171,6.1711,6.1711,6.132,6.1127,6.1247,6.1366,6.0819,6.1289,6.1445,6.1601,6.168,6.1523,6.1562,6.1797,6.2148,6.293,6.332,6.4336,6.539,6.5469,6.5898,6.6484,6.664,6.668,6.6875,6.6914,6.6914,6.6914,6.6914,6.6914,6.6836,6.668,6.6601,6.6537,6.6586,6.6523,6.6418,6.6464,6.6425,6.6325,6.624,6.6217,6.6308,6.6272,6.6312,6.621,6.6185,6.6185,6.6185,6.6185,6.6185,6.6185,6.6185,6.6185,6.6185,6.6185,6.6185,6.6185,6.6185,6.6185,6.6185,6.6185,6.6185,6.6185,6.6185,6.6185,6.6185,6.6185,6.6185,6.6185,6.6185,6.6185,6.6185,6.6185,6.6185,6.6185,6.5915,6.5605,6.5837,6.5876,6.5953,6.5721,6.5146,6.4527,6.3908,6.3129,6.2414,6.18,6.1268,6.1186,6.1167,6.1373,6.1234,6.1174,6.1228,6.1165,6.1182,6.1236,6.1244,6.1283,6.1377,6.1381,6.1373,6.1396,6.1476,6.1576,6.164,6.1711,6.1709,6.171,6.1711,6.1712,6.1715,6.1716,6.1717,6.1718,6.1717,6.1559,6.1482,6.1601,6.1562,6.1484,6.1601,6.1719,6.1719,6.1719,6.1758,6.1953,6.2383,6.2812,6.3437,6.4453,6.5351,6.6289,6.5859,6.6055,6.6445,6.625,6.6133,6.6797,6.6875,6.6875,6.6875,6.6875,6.6875,6.6875,6.6875,6.6823,6.6666,6.6652,6.6563,6.6418,6.6355,6.6281,6.6075,6.5756,6.5866,6.6109,6.6215,6.6225,6.6195,6.6185,6.6185,6.6185,6.6185,6.6185,6.6185,6.6185,6.6185,6.6185,6.6185,6.6185,6.6185,6.6185,6.6185,6.6185,6.6185,6.6185,6.6185,6.6185,6.6185,6.6185,6.6185,6.6185,6.6185,6.6185,6.6185,6.6185,6.6185,6.6185,6.6185,6.6185,6.6185,6.6185,6.6185,6.6108,6.5837,6.5455,6.503,6.445,6.3478,6.2428,6.224,6.2008,6.1582,6.1178,6.1246,6.1116,6.1102,6.1134,6.1141,6.1102,6.1147,6.1152,6.1174,6.1207,6.1259,6.1254,6.1302,6.1383,6.1527,6.164,6.1714,6.1715,6.1716,6.1717,6.1717,6.1719,6.1719,6.1718,6.1719,6.1718,6.1719,6.1718,6.1679,6.1719,6.168,6.1719,6.1719,6.1719,6.1719,6.1953,6.2344,6.2812,6.3515,6.4297,6.5625,6.6289,6.6055,6.5859,6.5859,6.6015,6.5937,6.6055,6.6719,6.6836,6.6827,6.6782,6.6771,6.6766,6.6779,6.677,6.6688,6.6573,6.6522,6.6433,6.6316,6.6235,6.6195,6.6147,6.5925,6.576,6.6031,6.6185,6.6185,6.6185,6.6185,6.6185,6.6185,6.6185,6.6185,6.6185,6.6185,6.6185,6.6185,6.6185,6.6185,6.6185,6.6185,6.6185,6.6185,6.6185,6.6185,6.6185,6.6185,6.6185,6.6185,6.6185,6.6185,6.6185,6.6185,6.6185,6.6185,6.6185,6.6185,6.6185,6.6185,6.6185,6.6185,6.6185,6.6185,6.5915,6.5571,6.5262,6.4914,6.3947,6.3134,6.3013,6.2781,6.2356,6.1113,6.1113,6.1113,6.1113,6.1113,6.1113,6.1118,6.1113,6.1118,6.1123,6.1113,6.1123,6.1089,6.1131,6.1282,6.148,6.1638,6.1678,6.1638,6.168,6.1679,6.1678,6.1719,6.1719,6.1719,6.1719,6.1719,6.1719,6.1719,6.1719,6.1719,6.1719,6.1719,6.1719,6.1719,6.1992,6.2422,6.2851,6.3476,6.4375,6.5625,6.6289,6.6367,6.5547,6.5312,6.5156,6.5625,6.5351,6.5859,6.6484,6.6779,6.6675,6.6653,6.658,6.6566,6.6617,6.6622,6.6537,6.6443,6.6407,6.6384,6.624,6.6195,6.6185,6.6185,6.6108,6.6108,6.6031,6.6147,6.6185,6.6185,6.6185,6.6185,6.6185,6.6185,6.6185,6.6185,6.6185,6.6185,6.6185,6.6185,6.6185,6.6185,6.6185,6.6185,6.6185,6.6185,6.6185,6.6185,6.6185,6.6185,6.6185,6.6185,6.6185,6.6185,6.6185,6.6185,6.6185,6.6185,6.6185,6.6185,6.6185,6.6185,6.6185,6.6185,6.6147,6.5915,6.5649,6.5223,6.4759,6.4184,6.3758,6.3444,6.3366,6.3173,6.1113,6.1113,6.1113,6.1113,6.1113,6.1113,6.1113,6.1113,6.1113,6.1113,6.1113,6.1118,6.1079,6.1156,6.1256,6.1439,6.1535,6.1551,6.1568,6.1634,6.1628,6.1629,6.168,6.1719,6.168,6.168,6.168,6.1719,6.1719,6.1719,6.1719,6.1719,6.1719,6.1758,6.1953,6.2383,6.289,6.3281,6.4453,6.5664,6.6328,6.6094,6.5781,6.5156,6.4375,6.4062,6.5039,6.4883,6.5234,6.6454,6.668,6.6647,6.6615,6.6497,6.6436,6.6474,6.6516,6.654,6.6407,6.64,6.6342,6.6225,6.6185,6.6185,6.6185,6.6147,6.5953,6.5185,6.5765,6.6185,6.6185,6.6185,6.6185,6.6185,6.6185,6.6185,6.6185,6.6185,6.6185,6.6185,6.6185,6.6185,6.6185,6.6185,6.6185,6.6185,6.6185,6.6185,6.6185,6.6185,6.6185,6.6185,6.6185,6.6185,6.6185,6.6185,6.6224,6.6224,6.6224,6.6224,6.6185,6.6185,6.6185,6.6185,6.6185,6.6185,6.6069,6.5721,6.5223,6.4914,6.4682,6.4217,6.3715,6.3753,6.4024,6.1113,6.1113,6.1113,6.1113,6.1113,6.1113,6.1113,6.1113,6.1113,6.1113,6.1113,6.1118,6.1134,6.1189,6.1285,6.1376,6.1456,6.151,6.1526,6.1559,6.1558,6.156,6.1511,6.1523,6.1523,6.1627,6.1631,6.168,6.168,6.1719,6.1719,6.1719,6.1758,6.2031,6.2265,6.2773,6.3281,6.3906,6.4883,6.5703,6.5976,6.5742,6.5117,6.4219,6.3398,6.3555,6.3937,6.4323,6.4694,6.581,6.623,6.6516,6.6471,6.6392,6.6281,6.6285,6.6342,6.6346,6.6285,6.6285,6.6273,6.6225,6.6185,6.6185,6.6185,6.6185,6.6108,6.576,6.5992,6.6185,6.6185,6.6185,6.6185,6.6185,6.6185,6.6185,6.6185,6.6185,6.6185,6.6185,6.6185,6.6185,6.6185,6.6185,6.6185,6.6185,6.6185,6.6185,6.6185,6.6185,6.6185,6.6185,6.6185,6.6185,6.6185,6.6185,6.6301,6.634,6.634,6.6301,6.6224,6.6185,6.6417,6.634,6.6224,6.6224,6.6185,6.5992,6.5682,6.5528,6.5373,6.5025,6.472,6.5025,6.5257,6.1113,6.1113,6.1113,6.1113,6.1113,6.1113,6.1113,6.1113,6.1113,6.1113,6.1113,6.1079,6.1165,6.1221,6.1244,6.1281,6.1373,6.1433,6.1441,6.1439,6.1489,6.1491,6.1445,6.1433,6.146,6.1544,6.1544,6.156,6.1581,6.164,6.164,6.1719,6.1719,6.2187,6.2773,6.3047,6.3437,6.4648,6.4961,6.5351,6.5508,6.5117,6.4375,6.3633,6.3164,6.3155,6.3562,6.4081,6.486,6.5626,6.6131,6.6411,6.6359,6.6258,6.622,6.622,6.625,6.624,6.622,6.621,6.6185,6.6185,6.6185,6.6185,6.6185,6.6185,6.6185,6.6108,6.6147,6.6185,6.6185,6.6185,6.6185,6.6185,6.6185,6.6185,6.6224,6.6379,6.634,6.6185,6.6185,6.6185,6.6185,6.6185,6.6185,6.6185,6.6185,6.6224,6.6263,6.634,6.634,6.634,6.6301,6.6417,6.6688,6.6611,6.6611,6.6688,6.6688,6.6843,6.7036,6.6998,6.7109,6.6882,6.6495,6.6301,6.634,6.6263,6.6185,6.5953,6.5799,6.5992,6.5992,6.6185,6.6147,6.1113,6.1113,6.1113,6.1113,6.1113,6.1113,6.1113,6.1113,6.1113,6.1113,6.1113,6.1079,6.1089,6.1112,6.1147,6.1185,6.1278,6.1177,6.1267,6.1319,6.1331,6.134,6.1345,6.137,6.1398,6.1422,6.1424,6.1428,6.1443,6.1478,6.1566,6.168,6.1914,6.2344,6.2734,6.3047,6.375,6.4687,6.4844,6.4883,6.4883,6.4492,6.375,6.3984,6.354,6.3594,6.5033,6.5086,6.5261,6.5952,6.6256,6.6346,6.6278,6.622,6.6185,6.6185,6.6185,6.6185,6.6185,6.6185,6.6185,6.6185,6.6185,6.6263,6.6417,6.6301,6.6224,6.6417,6.6572,6.6456,6.6379,6.6224,6.6417,6.6727,6.6882,6.6843,6.6843,6.6727,6.665,6.6301,6.6417,6.6766,6.6804,6.6959,6.6379,6.634,6.6572,6.6611,6.6611,6.665,6.6611,6.6572,6.6495,6.6727,6.7346,6.7418,6.7495,6.7727,6.7843,6.8076,6.8308,6.823,6.7843,6.7423,6.6998,6.6727,6.6456,6.6301,6.6185,6.6185,6.6185,6.6185,6.6185,6.6185,6.6185,6.1113,6.1113,6.1113,6.1113,6.1113,6.1113,6.1113,6.1113,6.1113,6.1113,6.1113,6.1113,6.1113,6.1113,6.1118,6.1112,6.116,6.1221,6.1202,6.1217,6.1281,6.1281,6.1257,6.1243,6.125,6.1289,6.131,6.1359,6.1415,6.1466,6.1862,6.2127,6.2394,6.2617,6.293,6.3203,6.3867,6.4414,6.4531,6.4531,6.4609,6.4796,6.4399,6.4044,6.3915,6.3767,6.4374,6.4947,6.5262,6.5623,6.6048,6.6187,6.621,6.619,6.6185,6.6185,6.6185,6.6224,6.6263,6.6224,6.6185,6.6185,6.6224,6.6456,6.692,6.6998,6.7346,6.7462,6.7191,6.6998,6.7655,6.7346,6.7191,6.7578,6.7694,6.7539,6.7423,6.7225,6.7418,6.7307,6.7617,6.7998,6.7965,6.7926,6.7152,6.6495,6.6766,6.7036,6.7075,6.7152,6.7191,6.7114,6.7036,6.7346,6.796,6.823,6.8385,6.8617,6.881,6.8926,6.8965,6.8772,6.8346,6.7926,6.7423,6.6959,6.6572,6.6301,6.6185,6.6185,6.6185,6.6185,6.6185,6.6185,6.6185,6.1113,6.1113,6.1113,6.1113,6.1113,6.1113,6.1113,6.1113,6.1113,6.1113,6.1113,6.1113,6.1113,6.1113,6.1118,6.1118,6.1125,6.1186,6.1169,6.1182,6.1195,6.1186,6.1121,6.1107,6.1148,6.1221,6.124,6.126,6.1315,6.1534,6.2031,6.2624,6.3269,6.3605,6.3764,6.3744,6.4017,6.4441,6.433,6.4443,6.4631,6.4721,6.4969,6.445,6.4408,6.46,6.4867,6.5347,6.5485,6.5669,6.5896,6.6157,6.6185,6.6185,6.6185,6.6185,6.6224,6.6301,6.6533,6.6572,6.6727,6.7114,6.7152,6.7423,6.7694,6.7694,6.7617,6.8003,6.7733,6.7694,6.8269,6.7733,6.7346,6.7501,6.7771,6.7694,6.7766,6.7689,6.8114,6.839,6.8617,6.8617,6.8578,6.8468,6.8197,6.7578,6.7694,6.7882,6.7843,6.7926,6.7965,6.7887,6.7727,6.8153,6.8617,6.8424,6.8308,6.881,6.9004,6.928,6.928,6.9164,6.8849,6.8346,6.781,6.7152,6.6688,6.634,6.6224,6.6185,6.6185,6.6185,6.6185,6.6185,6.6185,6.1113,6.1113,6.1113,6.1113,6.1113,6.1113,6.1113,6.1113,6.1113,6.1113,6.1113,6.1113,6.1113,6.1113,6.1113,6.1113,6.1118,6.1102,6.1093,6.1102,6.1116,6.1093,6.1084,6.1127,6.1098,6.1123,6.1164,6.1152,6.1259,6.1884,6.2369,6.3212,6.4181,6.4881,6.5197,6.5244,6.528,6.5147,6.4431,6.4689,6.4928,6.4739,6.4914,6.5122,6.5142,6.5347,6.5703,6.5846,6.5921,6.6002,6.6069,6.6185,6.6185,6.6185,6.6224,6.634,6.634,6.6688,6.7384,6.7462,6.7805,6.8153,6.8037,6.8236,6.839,6.8081,6.7655,6.8081,6.7655,6.7191,6.7346,6.7573,6.7423,6.7617,6.7926,6.8042,6.8114,6.839,6.8816,6.9009,6.8926,6.8849,6.8893,6.8932,6.8965,6.881,6.8772,6.8694,6.8578,6.8501,6.8506,6.8738,6.8584,6.8932,6.9164,6.839,6.823,6.881,6.9396,6.9783,6.9976,7.0015,6.9551,6.8849,6.8429,6.8042,6.7152,6.634,6.6688,6.6998,6.634,6.6185,6.6185,6.6185,6.6185,6.1113,6.1113,6.1113,6.1113,6.1113,6.1113,6.1113,6.1113,6.1113,6.1113,6.1113,6.1113,6.1113,6.1113,6.1113,6.1113,6.1113,6.1113,6.1113,6.1113,6.1113,6.1118,6.1113,6.1113,6.1113,6.1113,6.1118,6.15,6.2017,6.2467,6.3265,6.4191,6.5058,6.5526,6.5178,6.4874,6.4427,6.453,6.4634,6.506,6.5291,6.5417,6.5641,6.5952,6.5842,6.5957,6.6233,6.621,6.619,6.6185,6.6185,6.6185,6.6224,6.6224,6.6495,6.6882,6.7114,6.7771,6.8506,6.8816,6.8462,6.8578,6.8424,6.839,6.8578,6.796,6.7882,6.8003,6.7694,6.7539,6.8153,6.7771,6.7694,6.823,6.854,6.8501,6.8661,6.9125,6.9512,6.9473,6.9396,7.0015,7.0247,6.9938,6.9899,6.9628,6.9473,6.912,6.8965,6.8854,6.8854,6.9357,6.9551,6.9821,6.9744,6.9009,6.8932,6.9551,7.0208,7.075,7.0866,7.0562,7.0214,6.9512,6.9241,6.8937,6.8081,6.7462,6.781,6.7887,6.7191,6.665,6.6611,6.6456,6.6185,6.1113,6.1113,6.1113,6.1113,6.1113,6.1113,6.1113,6.1113,6.1113,6.1113,6.1113,6.1113,6.1113,6.1113,6.1113,6.1113,6.1113,6.1113,6.1113,6.1113,6.1113,6.1113,6.1113,6.1113,6.1113,6.1152,6.15,6.1887,6.2351,6.3009,6.4068,6.5195,6.592,6.5898,6.5556,6.5226,6.5006,6.5184,6.5456,6.5674,6.5804,6.5969,6.6226,6.6273,6.6196,6.6195,6.619,6.6185,6.6185,6.6185,6.6185,6.6185,6.6224,6.6572,6.6882,6.7384,6.8236,6.87,6.9087,6.9473,6.9087,6.8772,6.8197,6.8274,6.8501,6.796,6.7887,6.7887,6.7694,6.7694,6.7771,6.7346,6.8114,6.8656,6.8694,6.8661,6.9164,6.9628,6.9943,6.9899,7.0131,7.0827,7.1291,7.1214,7.0943,7.0518,7.0092,6.9744,6.9391,6.9203,6.928,6.9783,6.9904,6.9821,6.986,6.9744,6.9821,7.0324,7.0711,7.1098,7.0794,7.033,7.0252,7.0098,6.9512,6.9048,6.8888,6.8694,6.8694,6.8462,6.796,6.7495,6.7152,6.6882,6.665,6.1113,6.1113,6.1113,6.1113,6.1113,6.1113,6.1113,6.1113,6.1113,6.1113,6.1113,6.1113,6.1113,6.1113,6.1113,6.1113,6.1113,6.1113,6.1113,6.1113,6.1113,6.1113,6.1113,6.1113,6.1229,6.15,6.1887,6.239,6.2699,6.4019,6.5296,6.5876,6.6108,6.609,6.6044,6.5989,6.5881,6.5898,6.5963,6.6083,6.6087,6.6133,6.624,6.6225,6.62,6.6185,6.6185,6.6185,6.6185,6.6185,6.6185,6.6224,6.6495,6.7036,6.7346,6.8042,6.9208,6.928,6.9241,6.9556,6.9125,6.8578,6.8385,6.8617,6.8385,6.7771,6.7423,6.7462,6.7384,6.6959,6.6688,6.7539,6.839,6.854,6.8584,6.8932,6.9551,6.9938,7.0247,7.044,7.0672,7.1059,7.1253,7.1291,7.1291,7.1059,7.0672,7.0595,7.017,6.9512,6.9667,7.0214,7.0136,6.9589,6.9667,7.0131,7.0247,7.0634,7.0518,7.0717,7.0368,7.0368,7.0484,7.0286,6.9551,6.9241,6.9551,6.9473,6.9197,6.8965,6.9004,6.8501,6.8197,6.7771,6.7501,6.1113,6.1113,6.1113,6.1113,6.1113,6.1113,6.1113,6.1113,6.1113,6.1113,6.1113,6.1113,6.1113,6.1113,6.1113,6.1113,6.1113,6.1113,6.1113,6.1113,6.1113,6.1113,6.1118,6.1195,6.1461,6.1926,6.2428,6.3125,6.4213,6.5417,6.5837,6.6147,6.6185,6.6185,6.6205,6.625,6.6225,6.6225,6.6273,6.6245,6.621,6.6185,6.6185,6.6185,6.6185,6.6185,6.6185,6.6185,6.6185,6.6185,6.6224,6.6379,6.7191,6.7462,6.7771,6.9208,6.9788,6.9827,6.9556,6.8738,6.8197,6.7921,6.7495,6.7423,6.7384,6.7346,6.6843,6.7152,6.7501,6.7307,6.7346,6.7998,6.8622,6.8816,6.8893,6.9203,6.9783,7.017,7.0402,7.0324,7.0595,7.0987,7.1175,7.1291,7.1291,7.1219,7.1181,7.1137,7.0905,7.0214,7.002,7.0562,7.0562,7.0092,7.044,7.0905,7.0827,7.0789,7.0711,7.0755,7.0833,7.0871,7.0905,7.0672,7.0247,7.0324,7.0672,7.044,7.0054,7.044,7.0479,6.9821,6.9197,6.8738,6.8429,6.1113,6.1113,6.1113,6.1113,6.1113,6.1113,6.1113,6.1113,6.1113,6.1113,6.1113,6.1113,6.1113,6.1113,6.1113,6.1113,6.1113,6.1113,6.1113,6.1113,6.1113,6.1113,6.1118,6.1466,6.1926,6.2428,6.3168,6.4058,6.5064,6.576,6.6185,6.6185,6.6185,6.6185,6.619,6.62,6.6195,6.619,6.619,6.6185,6.6185,6.6185,6.6185,6.6185,6.6185,6.6185,6.6185,6.6185,6.6185,6.6301,6.6379,6.692,6.7694,6.8081,6.8661,6.9865,6.9943,6.9479,6.886,6.8119,6.7655,6.7384,6.7036,6.7384,6.7501,6.7539,6.7423,6.7539,6.781,6.8081,6.8269,6.8462,6.8893,6.9241,6.9357,6.9473,6.9899,7.0324,7.0286,7.0092,7.0363,7.0833,7.1065,7.1214,7.1291,7.1253,7.1253,7.1253,7.1137,7.0794,7.0601,7.0833,7.0871,7.0678,7.1103,7.1291,7.1137,7.1021,7.1059,7.1137,7.1291,7.1291,7.1181,7.1175,7.1175,7.1291,7.1369,7.1214,7.1021,7.1407,7.1485,7.0866,7.017,6.9628,6.9396,6.1113,6.1113,6.1113,6.1113,6.1113,6.1113,6.1113,6.1113,6.1113,6.1113,6.1113,6.1113,6.1113,6.1113,6.1113,6.1113,6.1113,6.1113,6.1113,6.1113,6.1113,6.1152,6.1577,6.1964,6.2506,6.3129,6.3864,6.4759,6.518,6.5799,6.6185,6.6185,6.6185,6.6185,6.6185,6.6185,6.6185,6.6185,6.6185,6.6185,6.6185,6.6185,6.6185,6.6185,6.6185,6.6185,6.6185,6.6185,6.6185,6.6456,6.6882,6.7423,6.8313,6.897,6.9711,6.9672,6.9633,6.8898,6.8236,6.7655,6.7578,6.7539,6.7573,6.8081,6.8274,6.8042,6.7965,6.8197,6.8545,6.8816,6.9009,6.9396,6.9783,7.0015,7.017,7.0324,7.0595,7.0866,7.0789,7.0672,7.075,7.1137,7.1137,7.1291,7.1291,7.1291,7.1291,7.1291,7.1214,7.1065,7.1065,7.1103,7.1065,7.1026,7.1142,7.1291,7.1291,7.1253,7.133,7.1291,7.1291,7.1369,7.1452,7.1678,7.1949,7.1872,7.1872,7.1949,7.2065,7.2026,7.2026,7.1717,7.1253,7.0827,7.0402,6.1113,6.1113,6.1113,6.1113,6.1113,6.1113,6.1113,6.1113,6.1113,6.1113,6.1113,6.1113,6.1113,6.1113,6.1113,6.1113,6.1113,6.1113,6.1113,6.1113,6.1113,6.1461,6.1969,6.2351,6.3129,6.4135,6.4914,6.5339,6.576,6.6069,6.6185,6.6185,6.6185,6.6185,6.6185,6.6185,6.6185,6.6185,6.6185,6.6185,6.6185,6.6185,6.6185,6.6185,6.6185,6.6185,6.6185,6.6185,6.6185,6.634,6.7075,6.8081,6.9357,6.9788,6.9943,6.9827,6.886,6.8119,6.7771,6.7539,6.7578,6.7849,6.8153,6.8893,6.9125,6.8738,6.87,6.9004,6.928,6.9551,6.9821,7.0247,7.0595,7.0789,7.0905,7.1098,7.1291,7.1291,7.1291,7.1291,7.1291,7.1291,7.1291,7.1291,7.1291,7.1291,7.1291,7.1291,7.1291,7.1214,7.1175,7.1214,7.1214,7.1214,7.1291,7.1291,7.1291,7.1369,7.1446,7.1369,7.1407,7.1833,7.2297,7.2568,7.2761,7.2684,7.2839,7.3264,7.3264,7.2955,7.2839,7.2684,7.2839,7.2607,7.1949,6.1113,6.1113,6.1113,6.1113,6.1113,6.1113,6.1113,6.1113,6.1113,6.1113,6.1113,6.1113,6.1113,6.1113,6.1113,6.1113,6.1113,6.1113,6.1113,6.1113,6.1229,6.1655,6.2158,6.282,6.3748,6.4759,6.5378,6.5842,6.6147,6.6185,6.6185,6.6185,6.6185,6.6185,6.6185,6.6185,6.6185,6.6185,6.6185,6.6185,6.6185,6.6185,6.6185,6.6185,6.6185,6.6185,6.6185,6.6224,6.6456,6.6882,6.7689,6.8622,6.9435,6.9551,6.9203,6.8738,6.8081,6.7501,6.7501,6.7617,6.7887,6.8429,6.8893,6.9711,7.0368,7.0092,7.0054,7.0324,7.0363,7.0601,7.0601,7.0905,7.0982,7.1098,7.1137,7.1214,7.1291,7.1291,7.1291,7.1291,7.1291,7.1291,7.1291,7.1291,7.1291,7.1291,7.1291,7.1291,7.1291,7.1291,7.1291,7.1369,7.1407,7.133,7.1291,7.1291,7.1291,7.1407,7.1717,7.2142,7.2529,7.2877,7.3264,7.338,7.3496,7.3574,7.3761,7.4115,7.396,7.3535,7.3612,7.3684,7.3955,7.4077,7.3419,6.1113,6.1113,6.1113,6.1113,6.1113,6.1113,6.1113,6.1113,6.1113,6.1113,6.1113,6.1113,6.1113,6.1113,6.1113,6.1113,6.1113,6.1113,6.1113,6.1152,6.1311,6.2008,6.2781,6.3516,6.445,6.5146,6.5765,6.5992,6.6185,6.6185,6.6185,6.6185,6.6185,6.6185,6.6185,6.6185,6.6185,6.6185,6.6185,6.6185,6.6185,6.6185,6.6185,6.6185,6.6185,6.6185,6.6185,6.6456,6.6843,6.7423,6.8153,6.8893,6.9125,6.9009,6.839,6.7882,6.7733,6.7501,6.7578,6.7926,6.87,6.9479,6.9943,7.0446,7.1103,7.1219,7.1175,7.1175,7.1219,7.1258,7.1258,7.1258,7.1253,7.1291,7.1291,7.1291,7.1291,7.1291,7.1291,7.1291,7.1291,7.1291,7.1291,7.1291,7.1291,7.1291,7.1291,7.1291,7.1291,7.1291,7.1291,7.1485,7.164,7.1562,7.1523,7.1601,7.1717,7.222,7.2645,7.3187,7.3612,7.3844,7.3999,7.4115,7.4193,7.4502,7.4541,7.4773,7.4463,7.4309,7.4618,7.485,7.4773,7.485,7.4579,6.1113,6.1113,6.1113,6.1113,6.1113,6.1113,6.1113,6.1113,6.1113,6.1113,6.1113,6.1113,6.1113,6.1113,6.1113,6.1113,6.1113,6.1113,6.1113,6.1152,6.1698,6.2549,6.3439,6.4256,6.518,6.5721,6.6069,6.6147,6.6185,6.6185,6.6185,6.6185,6.6185,6.6185,6.6185,6.6185,6.6185,6.6185,6.6185,6.6185,6.6185,6.6185,6.6185,6.6185,6.6185,6.6185,6.634,6.692,6.7268,6.7733,6.823,6.87,6.8622,6.8274,6.7733,6.765,6.7501,6.7733,6.7926,6.8661,6.9633,7.002,7.0446,7.091,7.1253,7.1253,7.1253,7.1253,7.1253,7.1253,7.1253,7.1253,7.1291,7.1291,7.1291,7.1291,7.1291,7.1291,7.1291,7.1291,7.1291,7.1291,7.1291,7.1291,7.1291,7.1291,7.1291,7.1291,7.133,7.1291,7.1369,7.1678,7.1955,7.2181,7.2375,7.2413,7.2568,7.3071,7.3535,7.396,7.4309,7.4612,7.4767,7.4889,7.5353,7.574,7.5746,7.5397,7.5591,7.5546,7.5856,7.6011,7.5823,7.563,7.5353]}]]